[[{"header":{"parameterUnit":"m.s-1","parameterCategory":1,"la1":30.6,"la2":29.2853,"lo1":-89.7004,"lo2":-87.6739,"dy":0.0162,"dx":0.0183,"nx":112,"ny":82,"refTime":"2023-09-02T00:00:00:Z","depth":0,"parameterNumber":2,"parameterNumberName":"U-component_of_WINDS"},"data":[0.0,0.0,0.0,0.0,0.0,0.0,0.0,0.0,0.0,0.0,0.0,0.0,0.0,0.0,0.0,0.0,0.0,0.0,0.0,0.0,0.0,0.0,0.0,0.0,0.0,0.0,0.0,0.0,0.0,0.0,0.0,0.0,0.0,0.0,0.0,0.0,0.0,0.0,0.0,0.0,0.0,0.0,0.0,0.0,0.0,0.0,0.0,0.0,0.0,0.0,0.0,0.0,0.0,0.0,0.0,0.0,0.0,0.0,0.0,0.0,0.0,0.0,0.0,0.0,0.0,0.0,0.0,0.0,0.0,0.0,0.0,0.0,0.0,0.0,0.0,0.0,0.0,0.0,0.0,0.0,0.0,0.0,0.0,0.0,0.0,0.0,0.0,0.0,0.0,0.0,-2.984,-3.0132,-3.0549,-3.0794,-3.0799,-3.0665,-3.0477,-3.0229,0.0,0.0,0.0,0.0,0.0,0.0,0.0,0.0,0.0,0.0,0.0,0.0,0.0,0.0,0.0,0.0,0.0,0.0,0.0,0.0,0.0,0.0,0.0,0.0,0.0,0.0,0.0,0.0,0.0,0.0,0.0,0.0,0.0,0.0,0.0,0.0,0.0,0.0,0.0,0.0,0.0,0.0,0.0,0.0,0.0,0.0,0.0,0.0,0.0,0.0,0.0,0.0,0.0,0.0,0.0,0.0,0.0,0.0,0.0,0.0,0.0,0.0,0.0,0.0,0.0,0.0,0.0,0.0,0.0,0.0,0.0,0.0,0.0,0.0,0.0,0.0,0.0,0.0,0.0,0.0,0.0,0.0,0.0,0.0,0.0,0.0,0.0,0.0,0.0,0.0,0.0,0.0,0.0,0.0,0.0,0.0,0.0,0.0,0.0,0.0,0.0,0.0,0.0,0.0,-2.9975,-3.0478,-3.0685,-3.0799,-3.0808,-3.0611,-3.0437,-3.0213,0.0,0.0,0.0,0.0,0.0,0.0,0.0,0.0,0.0,0.0,0.0,0.0,0.0,0.0,0.0,0.0,0.0,0.0,0.0,0.0,0.0,0.0,0.0,0.0,0.0,0.0,0.0,0.0,0.0,0.0,0.0,0.0,0.0,0.0,0.0,0.0,0.0,0.0,0.0,0.0,0.0,0.0,0.0,0.0,0.0,0.0,0.0,0.0,0.0,0.0,0.0,0.0,0.0,0.0,0.0,0.0,0.0,0.0,0.0,0.0,0.0,0.0,0.0,0.0,0.0,0.0,0.0,0.0,0.0,0.0,0.0,0.0,0.0,0.0,0.0,0.0,0.0,0.0,0.0,0.0,0.0,0.0,0.0,0.0,0.0,0.0,0.0,0.0,0.0,0.0,0.0,0.0,0.0,0.0,0.0,0.0,0.0,0.0,0.0,0.0,0.0,0.0,0.0,-2.9912,-3.0212,-3.0607,-3.0731,-3.0801,-3.0804,-3.0642,-3.0443,-3.022,-2.9977,0.0,0.0,0.0,0.0,0.0,0.0,0.0,0.0,0.0,0.0,0.0,0.0,0.0,0.0,0.0,0.0,0.0,0.0,0.0,0.0,0.0,0.0,0.0,0.0,0.0,0.0,0.0,0.0,0.0,0.0,0.0,0.0,0.0,0.0,0.0,0.0,0.0,0.0,0.0,0.0,0.0,0.0,0.0,0.0,0.0,0.0,0.0,0.0,0.0,0.0,0.0,0.0,0.0,0.0,0.0,0.0,0.0,0.0,0.0,0.0,0.0,0.0,0.0,0.0,0.0,0.0,0.0,0.0,0.0,0.0,0.0,0.0,0.0,0.0,0.0,0.0,0.0,0.0,0.0,0.0,0.0,0.0,0.0,0.0,0.0,0.0,0.0,0.0,0.0,0.0,0.0,0.0,0.0,0.0,0.0,0.0,0.0,0.0,0.0,0.0,0.0,0.0,-3.019,-3.0419,-3.0661,-3.0761,-3.0801,-3.0799,-3.0655,-3.0477,-3.0227,-2.9958,0.0,0.0,0.0,0.0,0.0,0.0,0.0,0.0,0.0,0.0,0.0,0.0,0.0,0.0,0.0,0.0,0.0,0.0,0.0,0.0,0.0,0.0,0.0,0.0,0.0,0.0,0.0,0.0,0.0,0.0,0.0,0.0,0.0,0.0,0.0,0.0,0.0,0.0,0.0,0.0,0.0,0.0,0.0,0.0,0.0,0.0,0.0,0.0,0.0,0.0,0.0,0.0,0.0,0.0,0.0,0.0,0.0,0.0,0.0,0.0,0.0,0.0,0.0,0.0,0.0,0.0,0.0,0.0,0.0,0.0,0.0,0.0,0.0,0.0,0.0,0.0,0.0,0.0,0.0,0.0,0.0,0.0,0.0,0.0,0.0,0.0,0.0,0.0,0.0,0.0,0.0,0.0,0.0,0.0,0.0,0.0,0.0,0.0,0.0,0.0,0.0,0.0,-3.0271,-3.047,-3.0687,-3.0762,-3.0801,-3.0806,-3.0626,-3.0414,-3.0209,-2.995,0.0,0.0,0.0,0.0,0.0,0.0,0.0,0.0,0.0,0.0,0.0,0.0,0.0,0.0,0.0,0.0,0.0,0.0,0.0,0.0,0.0,0.0,0.0,0.0,0.0,0.0,0.0,0.0,0.0,0.0,0.0,0.0,0.0,0.0,0.0,0.0,0.0,0.0,0.0,0.0,0.0,0.0,0.0,0.0,0.0,0.0,0.0,0.0,0.0,0.0,0.0,0.0,0.0,0.0,0.0,0.0,0.0,0.0,0.0,0.0,0.0,0.0,0.0,0.0,0.0,0.0,0.0,0.0,0.0,0.0,0.0,0.0,0.0,0.0,0.0,0.0,0.0,0.0,0.0,0.0,0.0,0.0,0.0,0.0,0.0,0.0,0.0,0.0,0.0,0.0,0.0,0.0,0.0,0.0,0.0,0.0,0.0,0.0,0.0,0.0,0.0,0.0,-3.0271,-3.0485,0.0,-3.0762,-3.0801,-3.0798,-3.0645,-3.0485,-3.0275,0.0,0.0,0.0,0.0,0.0,0.0,0.0,0.0,0.0,0.0,0.0,0.0,0.0,0.0,0.0,0.0,0.0,0.0,0.0,0.0,0.0,0.0,0.0,0.0,0.0,0.0,0.0,0.0,0.0,0.0,0.0,0.0,0.0,0.0,0.0,0.0,0.0,0.0,0.0,0.0,0.0,0.0,0.0,0.0,0.0,0.0,0.0,0.0,0.0,0.0,0.0,0.0,0.0,0.0,0.0,0.0,0.0,0.0,0.0,0.0,0.0,0.0,0.0,0.0,0.0,0.0,0.0,0.0,0.0,0.0,0.0,0.0,0.0,0.0,0.0,0.0,0.0,0.0,0.0,0.0,0.0,0.0,0.0,0.0,0.0,0.0,0.0,0.0,0.0,0.0,0.0,0.0,0.0,0.0,0.0,0.0,0.0,0.0,0.0,0.0,0.0,0.0,-3.0022,-3.024,-3.0443,0.0,-3.0755,-3.08,-3.0807,-3.0694,-3.0544,-3.035,0.0,0.0,0.0,0.0,0.0,0.0,0.0,0.0,0.0,0.0,0.0,0.0,0.0,0.0,0.0,0.0,0.0,0.0,0.0,0.0,0.0,0.0,0.0,0.0,0.0,0.0,0.0,0.0,0.0,0.0,0.0,0.0,0.0,0.0,0.0,0.0,0.0,0.0,0.0,0.0,0.0,0.0,0.0,0.0,0.0,0.0,0.0,0.0,0.0,0.0,0.0,0.0,0.0,0.0,0.0,0.0,0.0,0.0,0.0,0.0,0.0,0.0,0.0,0.0,0.0,0.0,0.0,0.0,0.0,0.0,0.0,0.0,0.0,0.0,0.0,0.0,0.0,0.0,0.0,0.0,0.0,0.0,0.0,0.0,0.0,0.0,0.0,0.0,0.0,0.0,0.0,0.0,0.0,0.0,0.0,0.0,0.0,0.0,0.0,0.0,0.0,0.0,-2.9946,-3.0177,-3.0389,-3.0665,-3.0751,-3.0795,-3.0793,-3.073,-3.0623,0.0,0.0,0.0,0.0,0.0,0.0,0.0,0.0,0.0,0.0,0.0,0.0,0.0,0.0,0.0,0.0,0.0,0.0,0.0,0.0,0.0,0.0,0.0,0.0,0.0,0.0,0.0,0.0,0.0,0.0,0.0,0.0,0.0,0.0,0.0,0.0,0.0,0.0,0.0,0.0,0.0,0.0,0.0,0.0,0.0,0.0,0.0,0.0,0.0,0.0,0.0,0.0,0.0,0.0,0.0,0.0,0.0,0.0,0.0,0.0,0.0,0.0,0.0,0.0,0.0,0.0,0.0,0.0,0.0,0.0,0.0,0.0,0.0,0.0,0.0,0.0,0.0,0.0,0.0,0.0,0.0,0.0,0.0,0.0,0.0,0.0,0.0,0.0,0.0,0.0,0.0,0.0,0.0,0.0,0.0,0.0,0.0,0.0,0.0,0.0,0.0,0.0,0.0,-2.9748,-3.0044,-3.0318,-3.0537,-3.0699,-3.0803,-3.0801,-3.0784,-3.0709,-3.0551,0.0,0.0,0.0,0.0,0.0,0.0,0.0,0.0,0.0,0.0,0.0,0.0,0.0,0.0,0.0,0.0,0.0,0.0,0.0,0.0,0.0,0.0,0.0,0.0,0.0,0.0,0.0,0.0,0.0,0.0,0.0,0.0,0.0,0.0,0.0,0.0,0.0,0.0,0.0,0.0,0.0,0.0,0.0,0.0,0.0,0.0,0.0,0.0,0.0,0.0,0.0,0.0,0.0,0.0,0.0,0.0,0.0,0.0,0.0,0.0,0.0,0.0,0.0,0.0,0.0,0.0,0.0,0.0,0.0,0.0,0.0,0.0,0.0,0.0,0.0,0.0,0.0,0.0,0.0,0.0,0.0,0.0,0.0,0.0,0.0,0.0,0.0,0.0,0.0,0.0,0.0,0.0,0.0,0.0,0.0,0.0,0.0,0.0,0.0,0.0,0.0,0.0,-2.9635,-2.9928,-3.0201,-3.0437,-3.0639,-3.0762,-3.0795,-3.0798,-3.0768,-3.0684,0.0,0.0,0.0,0.0,0.0,0.0,0.0,0.0,0.0,0.0,0.0,0.0,0.0,0.0,0.0,0.0,0.0,0.0,0.0,0.0,0.0,0.0,0.0,0.0,0.0,0.0,0.0,0.0,0.0,0.0,0.0,0.0,0.0,0.0,0.0,0.0,0.0,0.0,0.0,0.0,0.0,0.0,0.0,0.0,0.0,0.0,0.0,0.0,0.0,0.0,0.0,0.0,0.0,0.0,0.0,0.0,0.0,0.0,0.0,0.0,0.0,0.0,0.0,0.0,0.0,0.0,0.0,0.0,0.0,0.0,0.0,0.0,0.0,0.0,0.0,0.0,0.0,0.0,0.0,0.0,0.0,0.0,0.0,0.0,0.0,0.0,0.0,0.0,0.0,0.0,0.0,0.0,0.0,0.0,0.0,0.0,0.0,0.0,0.0,0.0,0.0,0.0,-2.9551,-2.9832,-3.0086,-3.035,-3.0556,-3.0709,-3.0784,-3.08,-3.0791,-3.079,0.0,0.0,0.0,0.0,0.0,0.0,0.0,0.0,0.0,0.0,0.0,0.0,0.0,0.0,0.0,0.0,0.0,0.0,0.0,0.0,0.0,0.0,0.0,0.0,0.0,0.0,0.0,0.0,0.0,0.0,0.0,0.0,0.0,0.0,0.0,0.0,0.0,0.0,0.0,0.0,0.0,0.0,0.0,0.0,0.0,0.0,0.0,0.0,0.0,0.0,0.0,0.0,0.0,0.0,0.0,0.0,0.0,0.0,0.0,0.0,-3.038,0.0,0.0,0.0,0.0,0.0,0.0,0.0,0.0,0.0,0.0,0.0,0.0,0.0,0.0,0.0,0.0,0.0,0.0,0.0,0.0,0.0,0.0,0.0,0.0,0.0,0.0,0.0,0.0,0.0,0.0,0.0,0.0,0.0,0.0,0.0,0.0,0.0,0.0,0.0,0.0,0.0,-2.9443,-2.9725,-2.9996,-3.0226,-3.0414,-3.0603,-3.0788,-3.08,-3.08,-3.0805,-3.073,0.0,0.0,0.0,0.0,0.0,0.0,0.0,0.0,0.0,0.0,0.0,0.0,0.0,0.0,0.0,0.0,0.0,0.0,0.0,0.0,0.0,0.0,0.0,0.0,0.0,0.0,0.0,0.0,0.0,0.0,0.0,0.0,0.0,0.0,0.0,0.0,0.0,0.0,0.0,0.0,0.0,0.0,0.0,0.0,0.0,0.0,0.0,0.0,0.0,0.0,0.0,0.0,0.0,0.0,0.0,0.0,0.0,0.0,0.0,0.0,-3.0236,0.0,0.0,0.0,0.0,0.0,0.0,0.0,0.0,0.0,0.0,0.0,0.0,0.0,0.0,0.0,0.0,0.0,0.0,0.0,0.0,0.0,0.0,0.0,0.0,0.0,0.0,0.0,0.0,0.0,0.0,0.0,0.0,0.0,0.0,0.0,0.0,0.0,0.0,0.0,0.0,-2.9332,-2.9589,-2.9851,-3.0079,-3.0321,-3.0516,-3.0689,-3.0769,-3.0807,-3.0801,-3.0771,0.0,0.0,0.0,0.0,0.0,0.0,0.0,0.0,0.0,0.0,0.0,0.0,0.0,0.0,0.0,0.0,0.0,0.0,0.0,0.0,0.0,0.0,0.0,0.0,0.0,0.0,0.0,0.0,0.0,0.0,0.0,0.0,0.0,0.0,0.0,0.0,0.0,0.0,0.0,0.0,0.0,0.0,0.0,0.0,0.0,0.0,0.0,0.0,0.0,0.0,0.0,0.0,0.0,-2.8479,-2.8542,-2.8653,-2.8653,-2.8771,-2.8982,-2.9387,-2.9744,-3.006,0.0,0.0,0.0,0.0,0.0,0.0,0.0,0.0,0.0,0.0,0.0,0.0,0.0,0.0,0.0,0.0,0.0,0.0,0.0,0.0,0.0,0.0,0.0,0.0,0.0,-2.8606,-2.8583,0.0,0.0,0.0,0.0,0.0,0.0,0.0,0.0,0.0,0.0,0.0,0.0,-2.9217,-2.9415,-2.9625,-2.9897,-3.0177,-3.0384,-3.0552,-3.0695,-3.0776,-3.0789,-3.078,-3.0781,0.0,0.0,0.0,0.0,0.0,0.0,0.0,0.0,0.0,0.0,0.0,0.0,0.0,0.0,0.0,0.0,0.0,0.0,0.0,0.0,0.0,0.0,0.0,0.0,0.0,0.0,0.0,0.0,0.0,0.0,0.0,0.0,-2.4709,-2.5412,0.0,0.0,0.0,0.0,0.0,0.0,0.0,0.0,0.0,0.0,0.0,0.0,0.0,-2.8244,-2.8268,-2.8381,-2.8444,-2.842,-2.842,-2.842,-2.8444,-2.8444,-2.8468,-2.8493,-2.8565,0.0,-2.9425,-2.9611,0.0,0.0,0.0,0.0,0.0,0.0,0.0,0.0,0.0,0.0,0.0,0.0,0.0,0.0,0.0,0.0,0.0,0.0,0.0,0.0,0.0,0.0,-2.8396,-2.8137,-2.8186,-2.8003,0.0,-2.7131,-2.7442,-2.7472,0.0,0.0,0.0,0.0,0.0,0.0,0.0,0.0,-2.8934,-2.9141,-2.9348,-2.9613,-2.9897,-3.0145,-3.0404,-3.055,-3.0649,-3.072,-3.0703,-3.0742,-3.0795,-3.0795,0.0,0.0,0.0,0.0,0.0,0.0,0.0,0.0,0.0,0.0,0.0,0.0,0.0,0.0,0.0,0.0,0.0,0.0,0.0,0.0,0.0,0.0,0.0,0.0,0.0,0.0,0.0,0.0,0.0,-2.3734,-2.4205,-2.4823,-2.5175,-2.5578,0.0,0.0,0.0,0.0,0.0,0.0,0.0,0.0,0.0,-2.735,-2.7478,-2.759,-2.774,-2.779,-2.788,-2.794,-2.794,-2.7989,-2.8063,-2.8063,-2.8103,-2.8192,-2.8192,-2.8323,-2.8605,-2.902,-2.9325,-2.9528,0.0,0.0,0.0,0.0,0.0,-2.9483,-2.9325,-2.9159,0.0,0.0,0.0,0.0,0.0,0.0,0.0,0.0,0.0,0.0,0.0,0.0,0.0,-2.7815,-2.7529,-2.7106,-2.6413,-2.6224,-2.6235,0.0,-2.6425,-2.6556,-2.7052,0.0,0.0,0.0,0.0,-2.8479,-2.8657,-2.8809,-2.9016,-2.9299,-2.9559,-2.9839,-3.0157,-3.0329,-3.0482,-3.0575,-3.0623,-3.0661,-3.0733,-3.0741,-3.0741,0.0,0.0,0.0,0.0,0.0,0.0,0.0,0.0,0.0,0.0,0.0,0.0,0.0,0.0,0.0,0.0,0.0,0.0,0.0,0.0,0.0,0.0,0.0,0.0,0.0,0.0,0.0,0.0,-2.33,-2.3573,-2.4205,-2.4421,-2.4793,0.0,0.0,0.0,0.0,0.0,0.0,-2.6324,-2.6431,-2.6592,-2.6817,-2.6858,-2.6974,-2.7181,-2.7207,-2.7269,-2.7357,-2.7357,-2.7408,-2.7524,-2.7564,-2.7655,-2.7755,-2.7821,-2.7855,-2.788,-2.847,-2.8803,-2.8967,-2.9325,-2.9393,-2.9319,-2.9416,-2.9234,-2.8881,-2.8779,-2.8566,-2.8359,-2.8359,0.0,-2.8383,-2.8503,0.0,0.0,0.0,0.0,-2.8275,-2.8029,-2.788,-2.7765,-2.7625,-2.7091,-2.648,-2.6114,-2.5611,-2.5294,0.0,-2.5779,-2.6104,-2.659,0.0,0.0,0.0,0.0,-2.7971,-2.8192,-2.8352,-2.8565,-2.883,-2.9167,-2.9476,-2.9796,-3.0042,-3.0247,-3.0392,-3.0467,-3.0527,-3.0591,-3.0607,-3.0598,-3.0598,0.0,0.0,0.0,0.0,0.0,0.0,0.0,0.0,0.0,0.0,0.0,0.0,0.0,0.0,0.0,0.0,0.0,0.0,0.0,0.0,0.0,0.0,0.0,0.0,0.0,0.0,0.0,0.0,0.0,-2.3569,-2.3767,0.0,0.0,0.0,0.0,-2.5033,-2.5061,-2.5342,-2.5893,-2.5948,-2.6069,-2.6324,-2.6457,-2.6537,-2.6537,-2.6669,-2.6736,-2.6762,-2.6762,-2.6762,-2.6762,-2.6963,-2.7029,-2.7055,-2.7325,-2.7427,-2.7478,-2.8014,-2.8308,-2.8444,-2.8527,-2.8654,-2.8732,-2.8606,-2.8518,-2.842,-2.8284,-2.8137,-2.8029,-2.8029,-2.8029,-2.8029,-2.8029,-2.8113,0.0,0.0,-2.8113,-2.8137,-2.789,-2.7815,-2.7765,-2.7625,-2.7091,-2.6456,-2.5928,-2.5387,-2.506,0.0,-2.5387,-2.5689,-2.6226,0.0,-2.6623,-2.6904,-2.7001,-2.7159,-2.7424,-2.7628,-2.7883,-2.821,-2.8664,-2.9038,-2.9302,-2.9642,-2.9904,-3.0115,-3.0177,-3.0247,-3.0317,-3.0323,-3.0323,-3.0323,-3.0384,0.0,0.0,0.0,0.0,0.0,0.0,0.0,0.0,0.0,0.0,0.0,0.0,0.0,0.0,0.0,0.0,0.0,0.0,0.0,0.0,0.0,0.0,0.0,0.0,0.0,0.0,0.0,0.0,-2.2781,-2.3053,0.0,-2.3809,-2.3998,-2.4203,-2.4421,-2.4494,-2.4637,-2.4865,-2.495,-2.5147,-2.5453,-2.5508,-2.5701,-2.6123,-2.615,-2.6285,-2.6457,-2.6457,-2.6457,-2.6457,-2.6525,-2.6618,-2.6698,-2.6788,-2.6867,-2.6945,-2.7152,-2.7534,-2.8039,-2.822,-2.8293,-2.8244,-2.8277,-2.8171,-2.8005,-2.7965,-2.7865,-2.774,-2.7655,-2.7604,-2.7604,-2.7514,-2.7564,-2.7665,-2.7514,-2.7564,-2.764,-2.7463,-2.7463,-2.7409,-2.6827,-2.6243,-2.5646,-2.5014,-2.4477,-2.4161,-2.4395,-2.4655,-2.4974,-2.5329,-2.5615,-2.5873,-2.6158,-2.6351,-2.6573,-2.679,-2.7,-2.7267,-2.7631,-2.8035,-2.8424,-2.8824,-2.9164,-2.9457,-2.9703,-2.9821,-2.9939,-3.0096,-3.0098,-3.0125,-3.0171,-3.0196,-3.0215,0.0,0.0,0.0,0.0,0.0,0.0,0.0,0.0,0.0,0.0,0.0,0.0,0.0,0.0,0.0,0.0,0.0,0.0,0.0,0.0,0.0,0.0,0.0,0.0,0.0,0.0,-2.1565,-2.2002,-2.2334,-2.2684,-2.3138,-2.3313,-2.3509,-2.375,-2.3826,-2.3972,-2.4173,-2.4247,-2.4421,-2.4679,-2.4736,-2.4963,-2.5356,-2.5411,-2.5508,-2.5673,-2.5673,-2.5673,-2.5701,-2.5797,-2.592,-2.6001,-2.6217,-2.6365,-2.6445,-2.6537,-2.6852,-2.7331,-2.7585,-2.765,-2.7564,-2.766,-2.7585,-2.7448,-2.7514,-2.7514,-2.7448,-2.7325,-2.7273,-2.7248,-2.7078,-2.7089,-2.7155,-2.7063,-2.7089,-2.7141,-2.7037,-2.6953,-2.6728,-2.6186,-2.5458,-2.4779,-2.4328,-2.3762,-2.3421,-2.3646,-2.4051,-2.4467,-2.4739,-2.4977,-2.523,-2.5516,-2.5723,-2.5926,-2.6158,-2.6351,-2.6624,-2.7018,-2.742,-2.7841,-2.8298,-2.864,-2.8938,-2.9248,-2.9379,-2.9505,-2.9695,-2.9702,-2.9736,-2.9796,-2.9845,-2.9885,-2.9927,0.0,0.0,0.0,0.0,0.0,0.0,0.0,0.0,0.0,0.0,0.0,0.0,0.0,0.0,0.0,0.0,0.0,0.0,0.0,0.0,0.0,0.0,0.0,-2.0442,-2.0463,-2.0624,-2.1262,-2.1557,-2.1851,-2.2316,-2.2359,-2.2561,-2.3017,-2.3078,-2.3288,-2.3832,-2.3861,-2.3936,-2.406,-2.4205,-2.4263,-2.4292,-2.4408,-2.4481,-2.4481,-2.4481,-2.4481,-2.4509,-2.4821,-2.4977,-2.5005,-2.5591,-2.5866,-2.5866,-2.6136,-2.6229,-2.6256,-2.6563,-2.6709,-2.6709,-2.6709,-2.6709,-2.6709,-2.691,-2.7067,-2.7155,-2.7029,-2.6977,-2.6925,-2.6709,-2.6669,-2.6669,-2.6642,-2.6669,-2.6669,-2.6628,-2.6216,-2.5752,-2.5709,-2.4752,-2.3853,-2.3838,-2.3331,-2.2912,-2.3061,-2.3595,-2.4162,-2.4508,-2.4569,-2.469,-2.5013,-2.5052,0.0,-2.553,-2.5701,-2.5941,-2.6314,-2.6841,-2.7321,-2.7739,-2.8071,-2.8397,-2.8736,-2.8819,-2.8911,-2.9064,-2.9064,-2.9097,-2.9188,-2.9318,-2.9447,-2.958,0.0,0.0,0.0,0.0,0.0,0.0,0.0,0.0,0.0,0.0,0.0,0.0,0.0,0.0,0.0,0.0,0.0,0.0,0.0,0.0,0.0,0.0,-1.8798,-1.9429,-1.9693,-1.9922,-2.0193,-2.0752,-2.121,-2.1451,-2.1796,-2.2075,-2.223,-2.2377,-2.2543,-2.2787,-2.2818,-2.2987,-2.3365,-2.3395,-2.3616,-2.4024,-2.4054,-2.4115,-2.4205,-2.4205,-2.4205,-2.4205,-2.4305,-2.4392,-2.4494,-2.4666,-2.4808,-2.4893,-2.4951,-2.4979,-2.5091,-2.6041,-2.6404,-2.6404,-2.6404,-2.6404,-2.6431,-2.6457,-2.6525,-2.651,-2.6272,-2.6206,-2.6138,-2.5851,-2.592,-2.6069,-2.5824,-2.5947,-2.597,-2.5331,-2.5198,-2.4949,-2.3881,-2.3512,-2.3226,-2.2521,-2.239,-2.2402,-2.2449,-2.2694,-2.312,-2.3711,-2.3846,-2.3937,-2.4141,-2.4287,0.0,-2.4766,-2.4997,-2.5349,-2.5832,-2.6192,-2.6573,-2.7035,-2.7253,-2.7492,-2.7841,-2.7925,-2.8058,-2.8291,-2.8355,-2.8499,-2.8766,-2.89,-2.8979,0.0,0.0,0.0,0.0,0.0,0.0,0.0,0.0,0.0,0.0,0.0,0.0,0.0,0.0,0.0,0.0,0.0,0.0,0.0,0.0,0.0,0.0,-1.8245,-1.8269,-1.8607,-1.8942,-1.9241,-1.9485,-1.9944,-2.0355,-2.0645,-2.0953,-2.127,-2.1534,-2.1683,-2.1851,-2.2056,-2.2149,-2.2304,-2.2598,-2.2684,-2.2878,-2.3193,-2.3253,-2.3318,-2.3395,-2.3543,-2.3603,-2.3603,-2.3662,-2.3708,0.0,-2.3813,-2.3872,-2.4044,-2.4018,-2.4092,0.0,0.0,0.0,0.0,0.0,-2.5632,-2.5756,-2.5756,-2.5824,-2.5878,-2.5605,-2.5536,-2.5467,-2.5133,-2.5161,-2.5258,-2.5077,-2.5011,-2.486,-2.4354,-2.3956,-2.3497,-2.262,-2.235,-2.2135,-2.1574,-2.1589,-2.1732,-2.1841,0.0,0.0,-2.27,-2.3024,-2.329,-2.348,-2.361,-2.3782,-2.4009,-2.4271,-2.4603,-2.5028,-2.5411,-2.5819,-2.6264,-2.6488,0.0,0.0,0.0,-2.7217,-2.741,-2.7493,0.0,0.0,0.0,-2.8322,-2.864,0.0,0.0,0.0,-3.2557,-3.3069,0.0,0.0,0.0,0.0,0.0,0.0,0.0,0.0,0.0,0.0,0.0,0.0,0.0,0.0,0.0,0.0,-1.794,-1.794,-1.7974,-1.8212,-1.8573,-1.8975,-1.9154,-1.9441,-1.9911,-1.9998,-2.0258,-2.0837,-2.0901,-2.1092,-2.1396,0.0,0.0,0.0,0.0,-2.2092,-2.2123,-2.2235,-2.2316,-2.2359,-2.2665,-2.2818,-2.2818,-2.2927,-2.2987,-2.2944,-2.295,-2.3053,-2.3198,-2.316,-2.3314,-2.3695,-2.425,-2.4452,-2.4452,-2.4452,-2.4637,0.0,0.0,0.0,0.0,-2.4963,-2.4863,-2.4806,-2.4494,-2.4408,-2.4408,-2.4379,-2.3983,-2.3534,-2.3453,-2.2605,-2.1717,-2.1651,-2.124,-2.0856,-2.0856,-2.0894,-2.0944,-2.1191,-2.1215,-2.1313,-2.153,-2.2156,-2.2686,-2.2912,-2.2994,-2.3068,-2.3253,-2.3508,-2.3809,-2.4065,0.0,0.0,-2.5376,-2.5693,-2.5982,-2.6248,-2.6299,-2.6369,-2.6438,-2.6589,-2.6738,-2.6904,-2.7161,-2.7618,-2.8296,-2.9158,-2.9834,-3.0327,-3.1793,-3.2383,0.0,0.0,0.0,0.0,0.0,0.0,0.0,0.0,0.0,0.0,0.0,0.0,0.0,0.0,0.0,-1.7665,-1.7608,-1.7632,-1.775,-1.7818,-1.7988,-1.8405,-1.8707,-1.8942,-1.9031,-1.932,-1.9507,-1.9628,-1.9813,-2.0053,-2.0387,-2.042,0.0,-2.125,-2.1293,-2.1451,-2.1721,-2.1753,-2.1846,-2.2013,0.0,0.0,-2.234,-2.2371,-2.2285,-2.2137,-2.2125,-2.2063,-2.197,-2.2125,-2.2292,-2.2622,-2.3738,-2.4176,-2.4176,-2.4176,-2.4218,-2.4276,-2.4276,-2.4321,-2.4334,-2.4157,-2.4112,-2.4083,-2.3822,-2.3763,0.0,-2.3658,-2.3147,-2.2512,-2.1926,-2.1279,-2.0647,-2.0179,-2.0028,-2.0029,-2.0029,-2.0118,-2.0169,-2.0131,-2.0207,-2.0245,-2.0207,-2.1188,-2.1983,-2.2053,-2.224,-2.2426,-2.2498,-2.283,-2.3143,-2.3376,-2.3672,-2.397,-2.4215,-2.4343,-2.4525,-2.478,-2.5067,-2.5297,-2.5454,-2.5695,-2.5983,-2.6264,-2.6887,-2.7344,-2.76,-2.8889,-2.9571,-2.9699,-3.1022,-3.1531,0.0,0.0,0.0,0.0,0.0,0.0,0.0,0.0,0.0,0.0,0.0,-1.7805,0.0,0.0,-1.7879,-1.7756,-1.7623,-1.7518,-1.7579,-1.7505,-1.7613,-1.81,-1.8313,-1.8438,-1.8539,-1.8697,-1.8854,-1.9021,-1.9131,-1.933,-1.9584,-1.9671,-1.9857,-2.0182,-2.0302,-2.0431,-2.0613,-2.0773,-2.089,-2.0985,-2.1345,-2.1545,-2.1663,-2.1663,-2.1588,-2.1471,-2.1155,-2.1028,-2.1123,-2.1376,-2.1545,-2.1714,-2.2512,-2.301,-2.3245,-2.3245,-2.3365,-2.3484,-2.3484,-2.3543,-2.3573,-2.345,-2.3403,-2.3373,-2.318,-2.309,-2.2937,-2.2501,-2.1913,-2.1227,-2.052,-1.9946,-1.9461,-1.9168,-1.9186,-1.9303,-1.9303,-1.9344,-1.9396,-1.9396,-1.941,-1.9397,-1.9396,-1.9952,-2.0547,-2.0944,-2.1177,-2.1348,-2.1441,-2.168,-2.1941,-2.217,-2.2469,-2.2809,-2.3165,-2.3448,-2.3685,-2.3891,-2.4053,-2.4261,-2.4486,-2.4657,-2.5053,-2.575,-2.6185,-2.6796,-2.7587,-2.8232,-2.8699,-2.9026,-2.9518,-3.0105,0.0,0.0,0.0,0.0,0.0,0.0,0.0,-1.6589,-1.6616,-1.6654,-1.6992,-1.728,-1.7374,-1.7441,-1.7537,-1.7625,-1.7422,-1.7252,-1.7243,-1.7096,-1.7181,-1.7632,-1.7803,-1.794,-1.8066,-1.8134,-1.8236,-1.8472,-1.8539,-1.8664,-1.8875,-1.9021,-1.9144,-1.921,-1.9363,-1.9473,-1.9506,-1.9781,-1.9901,-1.9966,-2.0473,-2.0773,-2.0805,-2.0805,-2.0773,-2.0709,-2.0161,-2.0074,-2.0366,-2.0645,-2.0773,-2.0848,-2.1123,-2.1502,-2.1963,-2.2223,-2.2469,-2.2714,-2.2714,-2.2775,-2.2854,-2.2744,-2.2714,-2.2696,-2.2574,-2.2389,-2.2084,-2.1422,-2.0659,-1.9907,-1.9295,-1.87,-1.8251,-1.8317,-1.8398,-1.8518,-1.8572,-1.8598,-1.8598,-1.864,-1.8575,-1.8509,-1.8548,-1.8614,-1.8963,-1.9876,-2.0131,-2.0232,-2.0359,-2.0472,-2.0633,-2.0881,-2.1172,-2.1592,-2.2128,-2.2552,-2.2926,-2.317,-2.3274,-2.3504,-2.3851,-2.3991,-2.445,-2.5326,-2.5604,-2.6337,-2.7557,-2.7574,-2.7812,-2.8255,-2.8046,-2.8646,-1.4785,-1.5489,-1.591,-1.576,-1.5745,-1.5805,0.0,-1.5816,-1.5909,-1.6147,-1.6506,-1.6694,-1.634,-1.6607,-1.6782,-1.6466,-1.6375,-1.6338,-1.6362,-1.6313,-1.6374,-1.6491,-1.7132,-1.7495,-1.7339,-1.7495,-1.7529,-1.7373,-1.7638,-1.792,-1.811,-1.8303,-1.8539,-1.8841,-1.8875,-1.8975,-1.9142,-1.9198,-1.9253,-1.9398,-1.9464,-1.9573,-1.9769,-1.9769,-1.9649,-1.9497,-1.9297,-1.9287,-1.9441,-1.9497,-1.9616,-1.9769,-1.9791,-2.0042,-2.0484,-2.1565,-2.1982,-2.2002,-2.2002,-2.2002,-2.2032,-2.2013,-2.2002,-2.2002,-2.1982,-2.1765,-2.1377,-2.0784,-1.975,-1.8788,-1.8291,-1.7577,-1.706,-1.7301,-1.7385,-1.7468,-1.7749,-1.7831,-1.7722,-1.7468,-1.7385,-1.7301,-1.7088,-1.7245,-1.7831,-1.9121,-1.9436,-1.9527,-1.9527,-1.9644,-1.9747,-1.9773,-2.0029,-2.0408,-2.0944,-2.1248,-2.1721,-2.238,-2.2864,-2.3395,-2.4035,-2.4428,-2.4771,-2.5121,-2.5842,-2.6344,-2.6648,-2.7234,-2.7475,-2.7434,-2.7409,-2.7809,-1.3625,-1.4161,-1.4413,-1.4594,-1.481,-1.4936,-1.4936,-1.5151,-1.5374,-1.5492,-1.5726,-1.5921,-1.5873,-1.6013,-1.617,0.0,-1.596,-1.5748,-1.5583,-1.5575,-1.5491,-1.5328,-1.5824,-1.6289,-1.6629,-1.6742,-1.6811,-1.6855,-1.7097,-1.7382,-1.7701,-1.7862,-1.8056,-1.8337,-1.8337,-1.8371,-1.8472,-1.8573,-1.8664,-1.8721,-1.8931,-1.9065,-1.9142,-1.9142,-1.8965,-1.8721,-1.8741,-1.8731,-1.8721,-1.8921,-1.9065,-1.9142,-1.9274,-1.9396,-1.9616,-2.0505,-2.0965,-2.1135,-2.1135,-2.1135,-2.1135,-2.1135,-2.1135,-2.1135,-2.1135,-2.0901,-2.0456,-1.958,-1.884,-1.8102,-1.7228,-1.6746,-1.6552,-1.6655,-1.6768,-1.6881,-1.7039,-1.7067,-1.7011,-1.6881,-1.6779,-1.6637,-1.6524,-1.6599,-1.6909,-1.7584,-1.8093,-1.8417,-1.8417,-1.8459,-1.8699,-1.9197,-1.9585,-2.0095,-2.0743,-2.1076,-2.143,-2.1809,-2.2049,-2.2392,-2.2909,-2.3093,-2.3595,-2.4437,-2.4793,-2.5275,-2.5854,-2.5964,-2.597,-2.5916,-2.5659,-2.5754,-1.2155,-1.2638,-1.2899,-1.333,-1.3633,-1.3844,-1.3928,-1.4237,-1.4538,-1.4538,-1.4824,-1.5068,-1.5242,-1.536,-1.5484,-1.5684,-1.5491,-1.5152,-1.486,-1.482,-1.4687,-1.4348,-1.4553,-1.4947,-1.5463,-1.5816,-1.6026,-1.6105,-1.6438,-1.683,-1.722,-1.7442,-1.7647,-1.7759,-1.7769,-1.7769,-1.7701,-1.7828,-1.7896,-1.793,-1.8168,-1.8303,-1.8361,-1.8462,-1.8361,-1.8134,-1.8313,-1.8313,-1.8236,-1.8472,-1.8573,-1.8573,-1.8741,-1.8841,-1.8942,-1.9419,-1.9879,-2.0237,-2.0237,-2.0237,-2.0237,-2.0237,-2.0237,-2.0237,-2.0237,-2.0042,-1.9609,-1.8667,-1.8081,-1.7513,-1.6541,-1.6187,-1.6056,-1.6124,-1.6239,-1.6353,-1.641,-1.6381,-1.6353,-1.6285,-1.6085,-1.5923,-1.5855,-1.5855,-1.5953,-1.6277,-1.6795,-1.7225,-1.7385,-1.7473,-1.7878,-1.8731,-1.9171,-1.9681,-2.0392,-2.0698,-2.0998,-2.1374,-2.1459,-2.1691,-2.2127,-2.2252,-2.2713,-2.3636,-2.372,-2.4073,-2.4741,-2.4486,-2.4343,-2.4299,-2.4021,-2.3933,-0.9985,-1.0679,-1.1408,-1.1714,-1.2106,-1.2491,-1.2705,-1.2966,-1.3137,-1.3137,-1.3695,-1.413,-1.413,-1.4454,-1.4734,-1.4734,-1.4727,-1.4592,-1.4184,-1.4123,-1.3971,-1.3572,-1.3528,-1.3564,0.0,-1.4597,-1.5161,-1.4974,-1.5613,-1.6184,-1.6603,-1.6994,-1.7235,-1.7235,-1.7235,-1.7141,-1.6943,-1.6943,-1.6943,-1.6943,-1.6943,-1.7072,-1.727,-1.7569,-1.774,-1.774,-1.793,-1.8008,-1.8008,-1.8008,-1.8008,-1.8008,-1.8042,-1.8144,-1.8337,-1.8337,-1.8754,-1.9342,-1.9342,-1.9342,-1.9342,-1.9342,-1.9342,-1.9342,-1.9342,-1.9253,-1.9005,-1.8301,-1.7575,-1.6934,-1.6446,-1.5881,-1.5478,-1.5672,-1.573,-1.5759,-1.5885,-1.5827,-1.5672,-1.5478,-1.5225,-1.497,-1.4775,-1.4736,-1.4935,-1.5531,-1.575,-1.6048,-1.6576,-1.6977,-1.7489,-1.8257,-1.8514,-1.8887,-1.9502,-1.9667,-2.0141,-2.1033,-2.1355,-2.1739,-2.2262,-2.2621,-2.2815,-2.2827,-2.2957,-2.3034,-2.3089,-2.3059,-2.2982,-2.2839,-2.2852,-2.2761,-0.8938,-0.955,-1.025,-1.0463,-1.1111,-1.1671,-1.1757,-1.21,-1.2406,-1.2619,-1.2918,-1.3222,-1.3398,-1.3779,-1.4026,-1.4026,-1.4201,-1.4124,-1.3565,-1.3627,-1.3509,-1.297,-1.301,0.0,0.0,0.0,0.0,-1.4338,-1.4812,-1.5311,-1.5842,-1.6237,-1.6508,-1.6594,-1.6594,-1.6559,-1.649,-1.649,-1.649,-1.649,-1.649,-1.6603,-1.6821,-1.7063,-1.7235,-1.7373,-1.7598,-1.7598,-1.7486,-1.7486,-1.7382,-1.7289,-1.7289,-1.7382,-1.7579,-1.7579,-1.7784,-1.8158,-1.8596,-1.8764,-1.8764,-1.8764,-1.8764,-1.8764,-1.8764,-1.8674,-1.8449,-1.7931,-1.7441,-1.6908,-1.6167,-1.5664,-1.5311,-1.5243,-1.5137,-1.5108,-1.5264,-1.5167,-1.4981,-1.4824,-1.4627,-1.448,-1.4574,-1.4588,-1.4754,-1.5328,-1.593,-1.6414,-1.6565,-1.6644,-1.6923,-1.7564,-1.771,-1.7991,-1.8591,-1.8912,-1.9233,-1.9555,-1.9887,-2.0177,-2.0504,-2.0707,-2.0919,-2.1141,-2.1181,-2.1275,-2.1412,-2.1275,-2.1255,-2.133,-2.1247,-2.1227,-0.7933,-0.8548,-0.9161,-0.9331,-0.9937,-1.0458,-1.0539,-1.0933,-1.1284,-1.1456,-1.1886,-1.2272,-1.2534,-1.3003,-1.3392,-1.3561,-1.3786,-1.3789,-1.3393,-1.3386,-1.3208,-1.2743,-1.2668,-1.2636,0.0,0.0,0.0,-1.3622,-1.4057,-1.4525,-1.5026,-1.5453,-1.5692,-1.5702,-1.5702,-1.5631,-1.5534,-1.5498,-1.5498,-1.5534,-1.5631,-1.5772,-1.5895,-1.6324,-1.6577,-1.6707,-1.6959,-1.6994,-1.6881,-1.6881,-1.6811,-1.6682,-1.6682,-1.6742,-1.6881,-1.6959,-1.7063,-1.7279,-1.7906,-1.811,-1.8032,-1.8032,-1.8032,-1.8032,-1.8032,-1.8032,-1.7949,-1.7633,-1.7239,-1.6727,-1.61,-1.5635,-1.5249,-1.5035,-1.49,-1.4839,-1.497,-1.4818,-1.4594,-1.4532,-1.4201,-1.3999,-1.4134,-1.4247,-1.4482,-1.4837,-1.5581,-1.6187,-1.6373,-1.6322,-1.6473,-1.7002,-1.7049,-1.7254,-1.7765,-1.8031,-1.8244,-1.8388,-1.8623,-1.8824,-1.9034,-1.91,-1.9266,-1.9541,-1.9552,-1.9639,-1.9846,-1.9716,-1.9748,-1.9955,-1.9868,-1.9911,-0.701,-0.758,-0.8197,-0.8412,-0.8671,-0.8934,-0.9104,-0.9501,-0.9859,-0.9859,-1.0593,-1.1284,-1.1585,-1.2186,-1.2833,-1.3307,-1.3568,-1.3681,-1.3599,-1.3353,-1.3093,0.0,0.0,0.0,0.0,0.0,0.0,-1.2826,0.0,-1.3905,-1.423,-1.4625,-1.4752,-1.4537,-1.453,-1.4394,-1.4057,-1.4057,-1.4057,-1.4057,-1.4394,-1.4537,-1.4601,-1.5365,-1.5727,-1.5762,-1.6105,-1.6228,-1.6193,-1.6193,-1.6202,-1.6202,-1.6202,-1.6202,-1.6237,-1.642,-1.6499,-1.6603,-1.7176,-1.7279,-1.7166,-1.7166,-1.7166,-1.7166,-1.7166,-1.7314,-1.747,-1.747,-1.6998,-1.6403,-1.6194,-1.5713,-1.5189,-1.4991,-1.495,-1.4917,-1.495,-1.4698,-1.4453,-1.4453,-1.3908,-1.3465,-1.3465,-1.3816,-1.4063,-1.4071,-1.4665,-1.5319,-1.5895,-1.5952,-1.6061,-1.6463,-1.6464,-1.6585,-1.6929,-1.6964,-1.7136,-1.7522,-1.7599,-1.7677,-1.7891,-1.7891,-1.7969,-1.8104,-1.8104,-1.8206,-1.8408,-1.8408,-1.8519,-1.8707,-1.8707,-1.8808,-0.6302,-0.7013,-0.768,-0.7724,-0.8069,-0.8372,-0.846,-0.8719,-0.8982,-0.9113,-0.9637,-1.0164,-1.0598,-1.1499,-1.2314,-1.279,-1.3349,0.0,-1.3599,-1.3353,0.0,-1.2817,-1.2485,-1.2305,-1.2305,-1.2305,0.0,0.0,-1.2856,-1.3222,-1.3484,-1.3702,-1.3848,-1.3775,-1.3775,-1.3739,-1.3637,-1.3637,-1.3637,-1.3637,-1.3739,-1.3876,-1.4006,-1.4482,-1.476,-1.4931,-1.5294,-1.5321,-1.5029,-1.5029,-1.4895,-1.4653,-1.4653,-1.4824,-1.5029,-1.51,-1.5294,-1.5586,-1.5727,-1.6219,-1.6742,-1.6594,-1.6524,-1.6559,-1.6707,-1.6786,-1.6821,-1.6821,-1.6496,-1.6008,-1.5556,-1.4934,-1.4386,-1.4264,-1.4049,-1.3949,-1.4205,-1.3983,-1.37,-1.3559,-1.3298,-1.3128,-1.3128,-1.3403,-1.3684,-1.3848,-1.4032,-1.445,-1.5283,-1.5153,-1.5002,-1.5092,-1.4903,-1.476,-1.4859,-1.5092,-1.5261,-1.5367,-1.5948,-1.6306,-1.635,-1.6585,-1.6749,-1.6793,-1.6793,-1.6897,-1.7079,-1.7079,-1.7251,-1.7613,-1.7613,-1.7681,-0.5994,-0.6704,-0.7323,-0.7323,-0.754,-0.7713,-0.7713,-0.7937,-0.8157,-0.8241,-0.8636,-0.9122,-0.9602,-1.0463,-1.1284,-1.1972,-1.2662,-1.3207,-1.3355,-1.3295,-1.3127,-1.2869,-1.2641,0.0,-1.2311,-1.2305,-1.2305,0.0,-1.2599,-1.2826,-1.2936,-1.3119,-1.32,-1.3119,-1.3119,-1.3046,-1.2973,-1.2973,-1.2973,-1.2973,-1.3046,-1.3149,-1.3288,-1.3659,-1.3869,-1.4006,0.0,-1.4346,-1.4122,-1.4122,-1.4021,-1.3848,-1.3848,-1.3949,-1.4122,-1.4222,-1.4402,-1.4589,-1.4589,-1.4939,-1.5392,-1.5525,-1.5561,-1.5561,-1.5675,-1.586,-1.5974,-1.5974,-1.5683,-1.5315,-1.4913,-1.4401,-1.3933,-1.3816,-1.3639,-1.3542,-1.3735,-1.3569,-1.3292,-1.3005,-1.287,-1.2784,-1.2713,-1.2926,-1.3156,-1.3251,-1.3361,-1.3615,-1.4122,-1.4222,-1.4222,-1.4122,-1.3949,-1.3848,-1.3848,-1.4021,-1.415,-1.425,-1.4689,-1.4974,-1.5054,-1.5223,-1.5392,-1.5561,-1.5561,-1.571,-1.5974,-1.5974,-1.6184,-1.6603,-1.6603,-1.6707,-0.5905,-0.6567,-0.7095,-0.7095,-0.7095,-0.7095,-0.7095,-0.7279,-0.7459,-0.7459,-0.7808,-0.8245,-0.8736,-0.934,-1.0115,-1.1063,-1.1843,-1.2491,-1.2966,-1.3156,-1.314,-1.2974,-1.2804,-1.2607,-1.2348,-1.2251,-1.2224,-1.2261,-1.2415,-1.2526,-1.2562,-1.2716,-1.2746,-1.2562,-1.2562,-1.2489,-1.2305,-1.2305,-1.2305,-1.2305,-1.2489,-1.2562,-1.2562,-1.2936,-1.3119,-1.3119,0.0,0.0,-1.3382,-1.3382,-1.3346,-1.3346,-1.3346,-1.3346,-1.3382,-1.3586,-1.3651,-1.3688,-1.3688,-1.3651,-1.3716,-1.4286,-1.4466,-1.4466,-1.4502,-1.4724,-1.5018,-1.5018,-1.4724,-1.4394,-1.4194,-1.3905,-1.3615,-1.3455,-1.3382,-1.3382,-1.3419,-1.3273,-1.301,-1.2636,-1.2562,-1.2489,-1.2342,-1.2452,-1.2562,-1.2562,-1.2709,-1.2826,-1.2783,-1.3288,-1.3586,-1.3382,-1.3346,-1.3309,-1.3309,-1.3309,-1.3375,-1.3579,-1.3651,-1.376,-1.3985,-1.4021,-1.4158,-1.4466,-1.4466,-1.4653,-1.5018,-1.5018,-1.5196,-1.5586,-1.5586,-1.5719,-0.5633,-0.6432,-0.7095,-0.7095,-0.7095,-0.7095,-0.7095,-0.7143,-0.7187,-0.7187,-0.7411,-0.7768,-0.8245,-0.8851,-0.9628,-1.0587,-1.1327,-1.2057,-1.2662,-1.2733,-1.2836,-1.3201,-1.2615,-1.228,-1.2432,-1.204,0.0,0.0,0.0,-1.2187,-1.2342,-1.2378,-1.2378,-1.2342,-1.2342,-1.2342,-1.2305,-1.2305,-1.2305,-1.2305,-1.2342,-1.2342,-1.2378,-1.2599,-1.2709,-1.2709,-1.2936,0.0,-1.2753,-1.2753,-1.2673,-1.2526,-1.2526,-1.2599,-1.2753,-1.2783,-1.2893,-1.3039,-1.3039,-1.2966,-1.2893,-1.3484,-1.3702,-1.3702,-1.3905,-1.397,-1.4049,-1.4049,-1.3876,-1.363,-1.3448,-1.3112,-1.2856,-1.2973,-1.2863,-1.2783,-1.2973,-1.2863,-1.2636,-1.2415,-1.2342,-1.2342,-1.2305,-1.2342,-1.2342,-1.2342,-1.2378,-1.2342,-1.2187,-1.2526,-1.2783,-1.2753,-1.2452,-1.2261,-1.2261,-1.2261,-1.2342,-1.2556,-1.2856,-1.3156,-1.3339,-1.3528,-1.3637,-1.3702,-1.3702,-1.3804,-1.4049,-1.4049,-1.4158,-1.4374,-1.4374,-1.4446,-0.5586,-0.6384,-0.7095,-0.7095,-0.7095,-0.7095,-0.7095,-0.7095,-0.7095,-0.7095,-0.7187,-0.7411,-0.7764,-0.8197,-0.8763,-0.9598,-1.0207,-1.0852,-1.1499,-1.1912,-1.2212,-1.2413,-1.2175,-1.1992,-1.1971,-1.1621,-1.1484,0.0,0.0,-1.1966,-1.2268,-1.2305,-1.2305,-1.2305,-1.2305,-1.2305,-1.2305,-1.2305,-1.2305,-1.2305,-1.2305,-1.2305,-1.2305,-1.2415,-1.2452,-1.2452,-1.2562,0.0,-1.2452,-1.2452,-1.2378,-1.2305,-1.2305,-1.2378,-1.2452,-1.2452,-1.2489,-1.2599,-1.2599,-1.2526,-1.2489,-1.2783,-1.2936,-1.3046,-1.3149,-1.3258,-1.3331,-1.3331,-1.3185,-1.301,-1.29,-1.2673,-1.2489,-1.2562,-1.2526,-1.2489,-1.2562,-1.2526,-1.2378,-1.2187,-1.215,-1.2077,-1.1855,-1.1818,-1.1818,-1.1818,-1.1818,-1.1818,-1.1855,-1.1929,-1.2003,-1.2114,-1.1966,-1.1781,-1.1706,-1.1706,-1.1669,-1.1669,-1.1855,-1.2003,-1.2114,-1.2187,-1.2305,-1.2415,-1.2415,-1.2519,-1.2696,-1.2696,-1.2806,-1.2996,-1.2996,-1.3069,-0.5586,-0.6384,-0.7095,-0.7095,-0.7095,-0.7095,-0.7095,-0.7095,-0.7095,-0.7095,-0.7095,-0.7187,-0.7459,-0.7635,-0.7984,-0.8732,-0.917,-0.9689,-1.0376,-1.0982,-1.1434,-1.1537,-1.1547,0.0,-1.1323,-1.1015,0.0,0.0,0.0,0.0,-1.2268,-1.2305,-1.2305,-1.2305,-1.2305,-1.2305,-1.2305,-1.2305,-1.2305,-1.2305,-1.2305,-1.2305,-1.2305,-1.2305,-1.2305,-1.2305,-1.2305,0.0,0.0,-1.2305,-1.2305,-1.2305,-1.2305,-1.2305,-1.2305,-1.2305,-1.2305,-1.2305,-1.2305,-1.2305,-1.2305,-1.2305,-1.2415,-1.2526,-1.2526,-1.2636,-1.2783,-1.2783,-1.2673,-1.2526,-1.2526,-1.2415,-1.2305,-1.2305,-1.2305,-1.2305,-1.2305,-1.2305,-1.2224,-1.204,-1.1966,-1.1818,-1.1409,-1.1298,-1.126,-1.1223,-1.1223,-1.1298,-1.1372,-1.1298,-1.1223,-1.126,-1.1372,-1.1372,-1.1223,-1.1074,-1.0962,-1.0925,-1.085,-1.0887,-1.0962,-1.0962,-1.1037,-1.1186,-1.1223,-1.1298,-1.1446,-1.1446,-1.1521,-1.1669,-1.1669,-1.1744,-0.5586,-0.6384,-0.7095,-0.7095,-0.7095,-0.7095,-0.7095,-0.7095,-0.7095,-0.7095,-0.7095,-0.7187,-0.7459,-0.7503,-0.7768,-0.8504,-0.8819,-0.9213,-0.9859,-1.0246,-1.0631,-1.1252,-1.0747,0.0,-1.0732,-1.029,0.0,0.0,0.0,0.0,-1.2268,-1.2305,-1.2305,-1.2305,-1.2305,-1.2305,-1.2305,-1.2305,-1.2305,-1.2305,-1.2305,-1.2305,-1.2305,-1.2305,-1.2305,-1.2305,-1.2305,0.0,0.0,-1.2305,-1.2305,-1.2305,-1.2305,-1.2305,-1.2305,-1.2305,-1.2305,-1.2305,-1.2305,-1.2305,-1.2305,-1.2305,-1.2305,-1.2342,-1.2342,-1.2342,-1.2378,-1.2378,-1.2342,-1.2342,-1.2342,-1.2305,-1.2305,-1.2305,-1.2305,-1.2305,-1.2305,-1.2305,-1.2224,-1.204,-1.1855,-1.1595,-1.1186,-1.0962,-1.0775,-1.0625,-1.0738,-1.0738,-1.0368,-1.0481,-1.0368,-0.9846,-1.0293,-1.0594,-1.0588,-1.0067,-0.9922,-1.0255,-1.0105,-1.018,-1.0556,-1.055,-1.055,-1.0588,-1.0588,-1.0588,-1.0625,-1.0625,-1.0625,-1.0625,-1.0625,-1.0663,-0.5769,-0.652,-0.7095,-0.7095,-0.7095,-0.7095,-0.7095,-0.7095,-0.7095,-0.7095,-0.7095,-0.7143,-0.7231,-0.7279,-0.7408,-0.7852,-0.7988,-0.8248,-0.8811,-0.9069,-0.9371,-0.9806,-0.9582,0.0,0.0,0.0,0.0,0.0,0.0,0.0,-1.1744,-1.2114,-1.2305,-1.2305,-1.2305,-1.2305,-1.2305,-1.2305,-1.2305,-1.2305,-1.2305,-1.2305,-1.2305,-1.2305,-1.2305,-1.2305,-1.2305,0.0,0.0,-1.2305,-1.2305,-1.2305,-1.2305,-1.2305,-1.2305,-1.2305,-1.2305,-1.2305,-1.2305,-1.2305,-1.2305,-1.2305,-1.2305,-1.2305,-1.2305,-1.2305,-1.2305,-1.2305,-1.2305,-1.2305,-1.2305,-1.2305,-1.2305,-1.2305,-1.2305,-1.2305,-1.2305,-1.2187,-1.2003,-1.1706,-1.1298,-1.0775,-1.0126,-0.9755,-0.9496,-0.942,-0.9496,-0.9566,-0.9642,-0.9604,-0.9458,-0.9084,-0.9614,-0.9841,-0.9609,-0.9268,-0.9084,-0.9122,-0.8927,-0.8884,-0.9031,-0.9069,-0.9069,-0.9069,-0.9069,-0.9069,-0.9069,-0.9069,-0.9069,-0.9069,-0.9069,-0.9069,-0.5905,-0.6567,-0.7095,-0.7095,-0.7095,-0.7095,-0.7095,-0.7095,-0.7095,-0.7095,-0.7095,-0.7095,-0.7095,-0.7095,-0.7187,-0.7459,-0.7507,-0.7635,-0.8072,-0.8241,-0.8412,-0.8675,0.0,-0.8593,0.0,-0.8481,0.0,0.0,0.0,0.0,0.0,-1.1632,-1.204,-1.2224,-1.2268,-1.2305,-1.2305,-1.2305,-1.2305,-1.2305,-1.2305,-1.2305,-1.2305,-1.2305,-1.2305,-1.2305,0.0,0.0,0.0,-1.2305,-1.2305,-1.2305,-1.2305,-1.2305,-1.2305,-1.2305,-1.2305,-1.2305,-1.2305,-1.2305,-1.2305,-1.2305,-1.2305,-1.2305,-1.2305,-1.2305,-1.2305,-1.2305,-1.2305,-1.2305,-1.2305,-1.2305,-1.2305,-1.2305,-1.2305,-1.2305,-1.2305,-1.215,-1.1855,-1.1409,-1.0812,-1.0137,-0.9263,-0.8775,-0.8475,-0.836,-0.8394,-0.8508,-0.8732,-0.8694,-0.8546,-0.8284,-0.8627,-0.8818,-0.8661,-0.8394,-0.8208,-0.8136,-0.794,-0.7859,-0.7931,-0.7931,-0.7931,-0.7931,-0.7931,-0.7931,-0.7931,-0.7931,-0.7931,-0.7931,-0.7931,-0.7931,-0.5949,-0.6567,-0.7095,-0.7095,-0.7095,-0.7095,-0.7095,-0.7095,-0.7095,-0.7095,-0.7095,-0.7095,-0.7095,-0.7095,-0.7187,-0.7459,-0.7507,-0.7595,-0.7856,-0.79,-0.7984,0.0,0.0,-0.792,-0.7924,0.0,0.0,0.0,0.0,0.0,0.0,-1.0775,-1.1409,-1.1966,-1.2187,-1.2305,-1.2305,-1.2305,-1.2305,-1.2305,-1.2305,-1.2305,-1.2305,-1.2305,-1.2305,0.0,0.0,0.0,0.0,-1.2305,-1.2305,-1.2305,-1.2305,-1.2305,-1.2305,-1.2305,-1.2305,-1.2305,-1.2305,-1.2305,-1.2305,-1.2305,-1.2305,-1.2305,-1.2305,-1.2305,-1.2305,-1.2305,-1.2305,-1.2305,-1.2305,-1.2305,-1.2305,-1.2305,-1.2305,-1.2305,-1.2305,-1.215,-1.1818,-1.1223,-1.0625,-0.9873,-0.8889,-0.8365,-0.7987,-0.7561,-0.7672,-0.7744,-0.7561,-0.771,-0.7672,-0.7257,-0.7219,-0.7369,-0.7783,-0.7446,-0.7296,-0.7484,-0.7334,-0.7296,-0.7484,-0.7522,-0.7522,-0.7522,-0.7522,-0.7522,-0.7522,-0.7522,-0.7522,-0.7522,-0.7522,-0.7522,-0.6393,-0.6833,-0.7095,-0.7095,-0.7095,-0.7095,-0.7095,-0.7095,-0.7095,-0.7095,-0.7095,-0.7095,-0.7095,-0.7095,-0.7177,-0.7375,-0.7438,-0.7483,-0.7528,-0.7573,0.0,-0.7462,-0.7408,-0.7392,0.0,0.0,0.0,0.0,0.0,0.0,0.0,-0.9873,-1.0663,-1.1558,-1.1929,-1.2077,-1.2077,-1.2224,-1.2305,-1.2305,-1.2305,-1.2305,-1.2305,-1.2305,0.0,0.0,0.0,0.0,0.0,-1.2305,-1.2305,-1.2305,-1.2305,-1.2305,-1.2305,-1.2305,-1.2305,-1.2305,-1.2305,-1.2305,-1.2305,-1.2305,-1.2305,-1.2305,-1.2305,-1.2187,-1.2077,-1.1929,-1.2003,-1.2077,-1.2077,-1.2187,-1.2305,-1.2305,-1.2305,-1.2261,-1.2114,-1.1818,-1.1372,-1.0625,-0.976,-0.8889,-0.8016,-0.7446,-0.7022,-0.6907,-0.6945,-0.7022,-0.7096,-0.7134,-0.7096,-0.6834,-0.6795,-0.6907,-0.7169,-0.6945,-0.6834,-0.6868,-0.6683,-0.6606,-0.6683,-0.6683,-0.6683,-0.6683,-0.6683,-0.6683,-0.6683,-0.6683,-0.6683,-0.6683,-0.6683,-0.6683,-0.6659,-0.6966,-0.7095,-0.7095,-0.7095,-0.7095,-0.7095,-0.7095,-0.7095,-0.7095,-0.7095,-0.7095,-0.7095,-0.7142,-0.7258,-0.7402,-0.7421,-0.7438,-0.7426,0.0,0.0,-0.7112,0.0,0.0,0.0,0.0,0.0,0.0,0.0,0.0,0.0,-0.8932,-0.9647,-1.0357,-1.1217,-1.1706,-1.1781,-1.204,-1.2194,-1.2194,-1.2261,-1.2305,-1.2305,-1.2305,0.0,0.0,0.0,0.0,0.0,-1.2077,-1.2077,-1.2077,-1.2077,-1.2077,-1.2077,-1.2157,-1.2194,-1.2187,-1.2268,-1.2305,-1.2298,-1.2224,-1.2077,-1.1929,-1.1781,-1.1818,-1.1855,-1.1632,-1.1669,-1.1781,-1.1855,-1.204,-1.2194,-1.2194,-1.2194,-1.2114,-1.1818,-1.1446,-1.0925,-1.0143,-0.9236,-0.8322,-0.7522,-0.6949,-0.6563,-0.6486,-0.649,-0.6525,-0.6676,-0.6676,-0.6637,-0.6486,-0.649,-0.6525,-0.6676,-0.6563,-0.649,-0.649,-0.6377,-0.63,-0.63,-0.63,-0.63,-0.63,-0.63,-0.63,-0.63,-0.63,-0.63,-0.63,-0.63,-0.63,0.0,-0.6969,-0.7095,-0.7095,-0.7095,-0.7095,-0.7095,-0.7095,0.0,-0.7095,-0.7095,-0.7098,-0.7109,-0.7275,-0.7426,-0.7446,-0.7522,-0.756,-0.7453,-0.7415,0.0,0.0,-0.7095,0.0,0.0,0.0,0.0,0.0,0.0,0.0,0.0,-0.7983,-0.8399,-0.8623,-1.0094,-1.1037,-1.1298,-1.1744,-1.1929,-1.1966,-1.2187,-1.2268,-1.2268,-1.2298,0.0,0.0,0.0,0.0,0.0,-1.1632,-1.1632,-1.1595,-1.1595,-1.1632,-1.1669,-1.1855,-1.1966,-1.2003,-1.2194,-1.2261,-1.2231,-1.2003,-1.1669,-1.1298,-1.085,-1.1149,-1.1558,-1.1335,-1.1298,-1.1372,-1.1558,-1.1781,-1.1929,-1.1929,-1.1929,-1.1781,-1.1409,-1.0999,-1.0481,-0.9657,-0.8861,-0.8097,-0.7296,-0.6834,-0.6525,-0.6338,-0.63,-0.63,-0.63,-0.63,-0.63,-0.63,-0.63,-0.63,-0.63,-0.63,-0.63,-0.63,-0.63,-0.63,-0.63,-0.63,-0.63,-0.63,-0.63,-0.63,-0.63,-0.63,-0.63,-0.63,-0.63,-0.63,-0.701,0.0,-0.7095,-0.7095,-0.7095,-0.7095,0.0,-0.7095,-0.7095,-0.7095,-0.7095,-0.7132,-0.7295,-0.7346,-0.7444,-0.7672,-0.7736,-0.7709,-0.7567,0.0,0.0,-0.7098,-0.7095,0.0,0.0,0.0,0.0,0.0,0.0,0.0,0.0,-0.7253,-0.7561,-0.7787,-0.8585,-0.9496,-1.0481,-1.1037,-1.1409,-1.1558,-1.1892,-1.2077,-1.2077,-1.2224,0.0,0.0,0.0,0.0,-1.1223,-1.1074,-1.0925,-1.0775,-1.0775,-1.0887,-1.1037,-1.1223,-1.1409,-1.1558,-1.1781,-1.1855,-1.1781,-1.1446,-1.1149,-1.085,-1.0293,-1.0438,-1.07,-1.0368,-1.0481,-1.07,-1.0775,-1.1037,-1.1298,-1.1298,-1.1186,-1.0962,-1.0556,-1.018,-0.9614,-0.8656,-0.805,-0.7522,-0.6872,-0.6528,-0.6335,-0.63,-0.63,-0.63,-0.63,-0.63,-0.63,-0.63,-0.63,-0.63,-0.63,-0.63,-0.63,-0.63,-0.63,-0.63,-0.63,-0.63,-0.63,-0.63,-0.63,-0.63,-0.63,-0.63,-0.63,-0.63,-0.63,-0.63,-0.7095,-0.7095,-0.7095,-0.7095,-0.7095,-0.7095,-0.7095,-0.7095,-0.7095,-0.7095,-0.7095,-0.7142,-0.7343,-0.7431,-0.755,-0.7773,-0.7872,0.0,0.0,0.0,-0.7095,-0.7095,-0.7095,0.0,0.0,0.0,0.0,0.0,0.0,0.0,0.0,-0.6756,-0.6988,-0.7099,-0.7599,-0.8399,-0.9501,-1.0212,-1.0663,-1.085,-1.126,-1.1558,-1.1744,-1.1855,-1.1781,0.0,0.0,0.0,-1.0513,-1.0244,-1.0056,-0.9943,-0.9943,-1.0019,-1.0132,-1.0438,-1.0663,-1.0887,-1.1186,-1.1186,-1.0962,-1.0663,-1.0212,-0.976,-0.9349,-0.9231,-0.9301,-0.9458,-0.9647,-0.9836,-1.003,-1.0331,-1.055,-1.055,-1.0481,-1.0212,-0.9647,-0.9273,-0.8818,-0.7974,-0.7518,-0.7096,-0.6676,-0.6451,-0.63,-0.63,-0.63,-0.63,-0.63,-0.63,-0.63,-0.63,-0.63,-0.63,-0.63,-0.63,-0.63,-0.63,-0.63,-0.63,-0.63,-0.63,-0.63,-0.63,-0.63,-0.63,-0.63,-0.63,-0.63,-0.63,-0.63,-0.63,-0.7095,-0.7095,-0.7095,-0.7095,-0.7095,-0.7095,-0.7095,-0.7095,-0.7095,-0.7095,-0.7115,-0.7221,-0.7377,-0.7529,-0.7678,-0.7824,0.0,0.0,-0.7604,-0.7319,-0.7095,-0.7095,0.0,0.0,0.0,0.0,0.0,0.0,0.0,0.0,0.0,-0.6451,-0.6563,-0.6563,-0.6911,-0.7522,-0.836,-0.9236,-0.9765,-0.9992,-1.0438,-1.085,-1.1186,-1.1223,-1.1149,0.0,0.0,0.0,-0.969,-0.9268,-0.9074,-0.9036,-0.9036,-0.9031,-0.9107,-0.9539,-0.9803,-1.003,-1.0438,-1.0325,-0.9954,-0.9728,-0.916,-0.8508,-0.8289,-0.7978,-0.7859,-0.8504,-0.8732,-0.8889,-0.9236,-0.9463,-0.9614,-0.9614,-0.9614,-0.9387,-0.8665,-0.836,-0.8059,-0.7484,-0.7096,-0.6791,-0.6602,-0.6412,-0.63,-0.63,-0.63,-0.63,-0.63,-0.63,-0.63,-0.63,-0.63,-0.63,-0.63,-0.63,-0.63,-0.63,-0.63,-0.63,-0.63,-0.63,-0.63,-0.63,-0.63,-0.63,-0.63,-0.63,-0.63,-0.63,-0.63,-0.63,-0.7095,-0.7095,-0.7095,-0.7095,-0.7095,-0.7095,-0.7095,-0.7095,-0.7095,-0.7095,-0.7244,-0.7383,-0.7536,-0.7682,-0.7828,-0.7931,0.0,-0.7607,0.0,0.0,-0.7095,0.0,0.0,0.0,0.0,0.0,0.0,0.0,0.0,0.0,0.0,-0.6338,-0.6335,-0.6335,-0.6563,-0.6753,-0.6907,-0.8055,-0.8742,-0.8932,-0.969,-1.0067,-1.0143,-1.0481,-1.0513,0.0,0.0,-0.9425,-0.8851,-0.8441,-0.8097,-0.7787,-0.7787,-0.7897,-0.8089,-0.8475,-0.8742,-0.9003,-0.9377,-0.9263,-0.8894,-0.8708,-0.8322,-0.7859,-0.7488,-0.7334,-0.7292,-0.7246,-0.7591,-0.8012,-0.805,-0.8237,-0.8389,-0.8389,-0.8237,-0.805,-0.7748,-0.7522,-0.7257,-0.683,-0.6679,-0.6563,-0.6374,-0.6338,-0.63,-0.63,-0.63,-0.63,-0.63,-0.63,-0.63,-0.63,-0.63,-0.63,-0.63,-0.63,-0.63,-0.63,-0.63,-0.63,-0.63,-0.63,-0.63,-0.63,-0.63,-0.63,-0.63,-0.63,-0.63,-0.63,-0.63,-0.63,-0.7095,-0.7095,-0.7095,-0.7095,-0.7095,-0.7095,-0.7095,-0.7095,-0.7095,-0.7095,-0.7261,-0.7417,-0.757,-0.7716,-0.7834,-0.7906,0.0,-0.7546,-0.7439,0.0,0.0,0.0,0.0,0.0,0.0,0.0,0.0,0.0,0.0,0.0,0.0,0.0,-0.63,-0.63,-0.6374,-0.6451,-0.6451,-0.7103,-0.7633,-0.8055,-0.8546,-0.8927,-0.9273,-0.9458,-0.9533,-0.9533,0.0,-0.8585,-0.8165,-0.7672,-0.733,-0.7173,-0.7173,-0.7249,-0.7361,-0.7748,-0.8055,-0.8241,-0.8428,-0.828,-0.8016,-0.7829,-0.7484,-0.7134,-0.6949,-0.6799,-0.6683,-0.6602,-0.6942,-0.7322,-0.7446,-0.7561,-0.7633,-0.7633,-0.7561,-0.7407,-0.7099,-0.6945,-0.6795,-0.649,-0.6451,-0.6412,-0.63,-0.63,-0.63,-0.63,-0.63,-0.63,-0.63,-0.63,-0.63,-0.63,-0.63,-0.63,-0.63,-0.63,-0.63,-0.63,-0.63,-0.63,-0.63,-0.63,-0.63,-0.63,-0.63,-0.63,-0.63,-0.63,-0.63,-0.63,-0.63,-0.63,-0.7095,-0.7095,-0.7095,-0.7095,-0.7095,-0.7095,-0.7095,-0.7095,-0.7095,-0.7095,-0.7292,-0.7461,-0.758,-0.7716,0.0,-0.7767,-0.7641,-0.7492,0.0,0.0,0.0,0.0,0.0,0.0,0.0,0.0,0.0,0.0,0.0,0.0,0.0,0.0,-0.63,-0.63,-0.63,-0.63,-0.63,-0.6451,-0.6791,-0.7292,-0.7557,-0.7902,-0.836,-0.8399,-0.8508,-0.8623,-0.8122,-0.7783,-0.7553,-0.7053,-0.6788,-0.6753,-0.6753,-0.6788,-0.6865,-0.7176,-0.7403,-0.7591,-0.7591,-0.7442,-0.7253,-0.7103,-0.6834,-0.6525,-0.6525,-0.6412,-0.63,-0.63,-0.6525,-0.6791,-0.6953,-0.6992,-0.6992,-0.6992,-0.6992,-0.6914,-0.6602,-0.6525,-0.649,-0.6338,-0.63,-0.63,-0.63,-0.63,-0.63,-0.63,-0.63,-0.63,-0.63,-0.63,-0.63,-0.63,-0.63,-0.63,-0.63,-0.63,-0.63,-0.63,-0.63,-0.63,-0.63,-0.63,-0.63,-0.63,-0.63,-0.63,-0.63,-0.63,-0.63,-0.63,-0.63,-0.63,-0.7095,-0.7095,-0.7095,-0.7095,-0.7095,-0.7095,-0.7095,-0.7095,-0.7095,-0.7095,-0.7377,-0.7587,-0.7597,-0.7716,-0.777,-0.7638,-0.7489,-0.7333,0.0,0.0,0.0,0.0,0.0,0.0,0.0,0.0,0.0,0.0,0.0,0.0,0.0,0.0,0.0,-0.63,-0.63,-0.63,-0.63,-0.63,-0.6451,-0.6676,-0.7065,-0.7257,-0.7296,-0.7484,-0.7599,-0.7599,-0.7373,-0.7138,-0.6942,-0.6714,-0.6525,-0.6338,-0.6338,-0.6451,-0.6637,-0.6641,-0.6791,-0.698,-0.698,-0.6826,-0.6679,-0.6641,-0.649,-0.6338,-0.6338,-0.63,-0.63,-0.63,-0.6338,-0.6338,-0.6377,-0.6377,-0.6377,-0.6377,-0.6377,-0.6338,-0.6338,-0.6338,-0.63,-0.63,-0.63,-0.63,-0.63,-0.63,-0.63,-0.63,-0.63,-0.63,-0.63,-0.63,-0.63,-0.63,-0.63,-0.63,-0.63,-0.63,-0.63,-0.63,-0.63,-0.63,-0.63,-0.63,-0.63,-0.63,-0.63,-0.63,-0.63,-0.63,-0.63,-0.63,-0.63,-0.63,-0.7095,-0.7095,-0.7095,-0.7095,-0.7095,-0.7095,-0.7095,-0.7095,-0.7095,-0.7095,-0.7309,-0.7489,-0.7584,-0.7645,-0.7631,-0.7482,-0.7456,0.0,0.0,0.0,0.0,0.0,0.0,0.0,0.0,0.0,0.0,0.0,0.0,0.0,0.0,0.0,0.0,-0.63,-0.63,-0.63,-0.63,-0.63,-0.6338,-0.6412,-0.6567,-0.6721,-0.6834,-0.6911,-0.7022,-0.7134,-0.6907,-0.6791,-0.6714,-0.6486,-0.6377,-0.63,-0.63,-0.6335,-0.6412,-0.6412,-0.6451,-0.6525,-0.6525,-0.649,-0.6412,-0.6412,-0.6377,-0.63,-0.63,-0.63,-0.63,-0.63,-0.63,-0.63,-0.63,-0.63,-0.63,-0.63,-0.63,-0.63,-0.63,-0.63,-0.63,-0.63,-0.63,-0.63,-0.63,-0.63,-0.63,-0.63,-0.63,-0.63,-0.63,-0.63,-0.63,-0.63,-0.6141,-0.5944,-0.5712,-0.5792,-0.5792,-0.5673,-0.6064,-0.63,-0.63,-0.63,-0.63,-0.63,-0.63,-0.63,-0.63,-0.63,-0.63,-0.63,-0.63,-0.63,-0.7095,-0.7095,-0.7095,-0.7095,-0.7095,-0.7095,-0.7095,-0.7095,-0.7095,-0.7095,-0.7261,-0.7417,-0.757,-0.756,0.0,0.0,0.0,0.0,0.0,0.0,0.0,0.0,0.0,0.0,0.0,0.0,0.0,0.0,0.0,0.0,0.0,0.0,0.0,0.0,-0.63,-0.63,-0.63,-0.63,-0.63,-0.63,-0.63,-0.6377,-0.6486,-0.6486,-0.6563,-0.6714,-0.6563,-0.6486,-0.649,-0.6377,-0.63,-0.63,-0.63,-0.63,-0.63,-0.63,-0.63,-0.63,-0.63,-0.63,-0.63,-0.63,-0.63,-0.631,-0.6354,-0.6368,-0.6378,-0.6426,-0.6439,-0.6439,-0.6439,-0.6371,-0.63,-0.63,-0.63,-0.63,-0.63,-0.63,-0.63,-0.63,-0.63,-0.63,-0.63,-0.63,-0.63,-0.63,-0.63,-0.63,-0.63,-0.63,-0.6261,-0.6106,-0.5786,-0.5473,-0.5126,-0.5165,-0.5207,-0.5126,-0.5595,-0.5983,-0.618,-0.6261,-0.63,-0.63,-0.63,-0.63,-0.63,-0.63,-0.63,-0.63,-0.63,-0.6261,-0.7095,-0.7095,-0.7095,-0.7095,-0.7095,-0.7095,-0.7095,-0.7095,-0.7095,-0.7095,-0.7261,-0.7414,-0.7567,-0.7472,0.0,0.0,0.0,0.0,0.0,0.0,0.0,0.0,0.0,0.0,0.0,0.0,0.0,0.0,0.0,0.0,0.0,0.0,0.0,0.0,-0.63,-0.63,-0.63,-0.63,-0.63,-0.63,-0.63,-0.63,-0.63,-0.63,-0.63,-0.63,-0.63,-0.63,-0.63,-0.63,-0.63,-0.63,-0.63,-0.63,-0.63,-0.63,-0.63,-0.63,-0.63,-0.63,-0.63,-0.6303,-0.6303,-0.6327,-0.647,-0.6515,-0.6545,-0.6658,-0.6702,-0.6702,-0.6702,-0.6485,-0.6303,-0.6303,-0.6303,-0.6303,-0.6303,-0.6303,-0.6303,-0.6303,-0.6303,-0.6303,-0.63,-0.63,-0.63,-0.63,-0.63,-0.63,-0.63,-0.63,-0.6106,-0.5637,-0.524,-0.4927,-0.4701,-0.4501,-0.4462,-0.4659,-0.489,-0.5276,-0.586,-0.6141,-0.63,-0.63,-0.63,-0.63,-0.63,-0.63,-0.63,-0.63,-0.63,-0.6141,-0.7095,-0.7095,-0.7095,-0.7095,-0.7095,-0.7095,-0.7095,-0.7095,-0.7095,-0.7095,-0.7132,-0.7221,-0.7223,-0.7193,0.0,0.0,0.0,0.0,0.0,0.0,0.0,0.0,0.0,0.0,0.0,0.0,0.0,0.0,0.0,0.0,0.0,0.0,0.0,0.0,-0.63,-0.63,-0.63,-0.63,-0.63,-0.63,-0.63,-0.63,-0.63,-0.63,-0.63,-0.63,-0.63,-0.63,-0.63,-0.63,-0.63,-0.63,-0.63,-0.63,-0.63,-0.63,-0.63,-0.63,-0.63,-0.63,-0.6317,-0.6416,-0.645,-0.6477,-0.6586,-0.663,-0.6644,-0.6688,-0.6702,-0.6702,-0.6702,-0.6634,-0.6569,-0.6569,-0.6569,-0.6569,-0.6569,-0.6569,-0.6539,-0.647,-0.645,-0.6416,-0.6317,-0.63,-0.63,-0.63,-0.63,-0.63,-0.63,-0.6141,-0.5786,-0.524,-0.481,-0.4268,-0.345,-0.3446,-0.3407,-0.3175,-0.38,-0.454,-0.5437,-0.5825,-0.6022,-0.6022,-0.6219,-0.63,-0.63,-0.6099,-0.6022,-0.6022,-0.587,-0.5673,-0.7095,-0.7095,-0.7095,-0.7095,-0.7095,-0.7095,-0.7095,-0.7095,-0.7095,-0.7095,-0.7095,-0.7095,-0.7095,-0.7095,0.0,0.0,0.0,0.0,0.0,0.0,0.0,0.0,0.0,0.0,0.0,0.0,0.0,0.0,0.0,0.0,0.0,0.0,0.0,0.0,-0.63,-0.63,-0.63,-0.63,-0.63,-0.63,-0.63,-0.63,-0.63,-0.63,-0.63,-0.63,-0.63,-0.63,-0.63,-0.63,-0.63,-0.63,-0.63,-0.63,-0.63,-0.63,-0.63,-0.631,-0.6364,-0.6385,-0.6409,-0.6515,-0.6563,-0.659,-0.6746,-0.6793,-0.6803,-0.6858,-0.6875,-0.6875,-0.6875,-0.6875,-0.6848,-0.6729,-0.6702,-0.6702,-0.6702,-0.6702,-0.6671,-0.658,-0.6563,-0.6536,-0.6491,-0.6474,-0.6474,-0.6474,-0.6474,-0.6434,-0.6318,-0.6032,-0.5548,-0.4786,-0.4185,-0.3465,-0.2542,-0.2418,-0.2296,-0.2137,-0.2782,-0.3465,-0.4183,-0.5092,-0.5589,-0.567,-0.5983,-0.6103,-0.6028,-0.5867,-0.5747,-0.567,-0.5362,-0.5129,-0.7095,-0.7095,-0.7095,-0.7098,-0.7051,-0.7007,-0.7007,-0.7007,-0.7007,-0.7095,-0.7095,-0.7095,-0.7095,-0.7095,0.0,0.0,0.0,0.0,0.0,0.0,0.0,0.0,0.0,0.0,0.0,0.0,0.0,0.0,0.0,0.0,0.0,0.0,0.0,-0.63,-0.63,-0.63,-0.63,-0.63,-0.63,0.0,-0.63,-0.63,-0.63,-0.63,-0.63,-0.63,-0.63,-0.63,-0.63,-0.63,-0.63,-0.63,-0.63,-0.63,-0.63,-0.63,-0.631,-0.6337,-0.6467,-0.6521,-0.6559,-0.6671,-0.6722,-0.6749,-0.6859,-0.6906,-0.693,-0.7058,-0.7095,-0.7095,-0.7095,-0.7095,-0.7031,-0.6803,-0.6742,-0.6742,-0.6742,-0.6742,-0.6736,-0.6722,-0.6722,-0.6715,-0.6702,-0.6702,-0.6702,-0.6702,-0.6702,-0.6619,-0.6331,-0.591,-0.5321,-0.4362,-0.3484,-0.2646,-0.1892,-0.1471,-0.1303,-0.1471,-0.185,-0.2185,-0.2476,-0.4067,-0.504,-0.5238,-0.5668,-0.5785,-0.5635,-0.5584,-0.5458,-0.526,-0.4781,-0.4465,-0.7095,-0.7095,-0.7051,-0.6925,-0.6571,-0.6305,-0.6305,-0.6305,-0.6479,-0.7007,-0.7095,-0.7095,-0.7095,-0.7095,0.0,0.0,0.0,0.0,0.0,0.0,0.0,0.0,0.0,0.0,0.0,0.0,0.0,0.0,0.0,0.0,0.0,0.0,0.0,-0.63,-0.63,-0.63,-0.63,-0.63,-0.63,0.0,-0.63,-0.63,-0.63,-0.63,-0.63,-0.63,-0.63,-0.63,-0.63,-0.63,-0.63,-0.63,-0.63,-0.63,-0.63,-0.63,-0.6371,-0.647,-0.6501,-0.6552,-0.6675,-0.6831,-0.6836,-0.6862,-0.7007,-0.7051,-0.7058,-0.7088,-0.7095,-0.7095,-0.7095,-0.7095,-0.7082,-0.7018,-0.7001,-0.7001,-0.7001,-0.7001,-0.697,-0.6859,-0.6836,-0.6841,-0.6722,-0.6702,-0.6702,-0.6702,-0.6702,-0.6619,-0.6331,-0.5743,-0.503,-0.4151,-0.3107,-0.2103,-0.1263,-0.0926,-0.0716,-0.0589,-0.0968,-0.1304,-0.1554,-0.3407,-0.4547,-0.4755,-0.5333,-0.5744,-0.5908,-0.5321,-0.5036,-0.4951,-0.4071,-0.3563,-0.7095,-0.701,-0.6833,-0.639,-0.6035,-0.5727,-0.5591,-0.5591,-0.5725,-0.6169,-0.6656,-0.6966,-0.6966,0.0,0.0,0.0,0.0,0.0,0.0,0.0,0.0,0.0,0.0,0.0,0.0,0.0,0.0,0.0,0.0,0.0,0.0,-0.6443,-0.6402,-0.6402,-0.6334,-0.63,-0.63,-0.63,-0.63,-0.63,-0.63,-0.63,-0.63,-0.63,-0.63,-0.63,-0.63,-0.63,-0.63,-0.63,-0.63,-0.63,-0.63,-0.63,-0.631,-0.6375,-0.645,-0.6532,-0.6641,-0.6742,-0.6834,-0.694,-0.6987,-0.7001,-0.7071,-0.7095,-0.7095,-0.7095,-0.7095,-0.7095,-0.7095,-0.7095,-0.7095,-0.7095,-0.7095,-0.7095,-0.7095,-0.7095,-0.7075,-0.7001,-0.6987,-0.696,-0.6883,-0.6912,-0.6912,-0.6912,-0.6912,-0.6741,-0.6398,-0.5755,-0.4935,-0.3937,-0.2774,-0.1736,-0.0912,-0.0521,-0.0261,-0.0174,-0.0478,-0.0738,-0.0867,-0.2297,-0.3389,-0.3948,-0.4615,-0.5118,-0.5368,-0.4726,-0.4371,-0.4248,-0.3179,-0.2635,-0.7095,-0.6877,-0.6435,-0.5766,-0.5277,-0.4968,-0.4696,-0.4652,-0.4696,-0.4924,-0.5816,-0.6571,0.0,0.0,0.0,0.0,0.0,0.0,0.0,0.0,0.0,0.0,0.0,0.0,0.0,0.0,0.0,0.0,0.0,0.0,-0.6702,-0.658,-0.6552,-0.6552,-0.6436,-0.6364,-0.6337,-0.6337,-0.6323,-0.63,-0.63,-0.63,-0.63,-0.63,-0.63,-0.63,-0.63,-0.63,-0.63,-0.63,-0.63,-0.6303,-0.6327,-0.6337,-0.6354,-0.6497,-0.6569,-0.6586,-0.6841,-0.6903,-0.6943,-0.7058,-0.7095,-0.7095,-0.7095,-0.7095,-0.7095,-0.7095,-0.7095,-0.7095,-0.7095,-0.7095,-0.7095,-0.7095,-0.7095,-0.7095,-0.7095,-0.7095,-0.7095,-0.7095,-0.7095,-0.7095,-0.7095,-0.7095,-0.7095,-0.7095,-0.7051,-0.6874,-0.6387,-0.5722,-0.4832,-0.3669,-0.2464,-0.1436,-0.0762,-0.0269,0.0,0.0,-0.0224,-0.0314,-0.0314,-0.1122,-0.1985,-0.2933,-0.3779,-0.4331,-0.4629,-0.4059,-0.3672,-0.3505,-0.2315,-0.1807,-0.7095,-0.6476,-0.5719,-0.523,-0.4297,-0.3449,-0.3224,-0.3179,-0.3179,0.0,-0.4476,0.0,0.0,0.0,0.0,0.0,0.0,0.0,0.0,0.0,0.0,0.0,0.0,0.0,0.0,0.0,0.0,0.0,0.0,0.0,-0.6702,-0.6681,-0.6671,-0.6671,-0.6651,-0.6576,-0.6484,-0.6484,-0.6422,-0.63,-0.63,-0.63,-0.63,-0.63,-0.63,-0.63,-0.63,-0.63,-0.63,-0.63,-0.63,-0.6313,-0.6436,-0.6484,-0.6501,-0.6614,-0.6753,-0.6832,-0.6873,-0.6967,-0.7071,-0.7092,-0.7095,-0.7095,-0.7095,-0.7095,-0.7095,-0.7095,-0.7095,-0.7095,-0.7095,-0.7095,-0.7095,-0.7095,-0.7095,-0.7095,-0.7095,-0.7095,-0.7095,-0.7095,-0.7095,-0.7095,-0.7095,-0.7095,-0.7095,-0.7095,-0.6966,-0.6659,-0.6216,-0.5364,-0.4385,-0.336,-0.2196,-0.1256,-0.0762,-0.0269,0.0,0.0,-0.0045,-0.0045,-0.0045,-0.0404,-0.0939,-0.1646,-0.2978,-0.3911,-0.4351,-0.3575,-0.3197,-0.3152,-0.1949,-0.1386,-0.6656,-0.6035,-0.5277,-0.4253,-0.3403,-0.2688,-0.2196,-0.2062,-0.2107,-0.2241,-0.2868,0.0,0.0,0.0,0.0,0.0,0.0,0.0,0.0,0.0,0.0,0.0,0.0,0.0,0.0,0.0,0.0,0.0,0.0,-0.6903,-0.6903,-0.6871,-0.6827,-0.6827,-0.6746,-0.6668,-0.66,-0.66,-0.6525,-0.6419,-0.6337,-0.63,-0.63,-0.63,-0.63,-0.63,-0.63,-0.63,-0.63,-0.63,-0.6347,-0.6426,-0.6487,-0.6566,-0.6617,-0.6773,-0.6829,-0.6896,-0.6977,-0.7045,-0.7095,-0.7095,-0.7095,-0.7095,-0.7095,-0.7095,-0.7095,-0.7095,-0.7095,-0.7095,-0.7095,-0.7095,-0.7095,-0.7095,-0.7095,-0.7095,-0.7095,-0.7095,-0.7095,-0.7095,-0.7095,-0.7095,-0.7095,-0.7095,-0.7095,-0.7095,-0.6925,-0.6615,-0.6171,-0.5144,-0.4162,-0.327,-0.2017,-0.1076,-0.0718,-0.0269,0.0,0.0,0.0,0.0,0.0,-0.0269,-0.0583,-0.0987,-0.2062,-0.2913,-0.3494,-0.2886,-0.2521,-0.2343,-0.1401,-0.0915,-0.6346,-0.5727,-0.4968,-0.3628,-0.2777,-0.2061,-0.139,0.0,-0.1211,0.0,0.0,0.0,0.0,0.0,0.0,0.0,0.0,0.0,0.0,0.0,0.0,0.0,0.0,0.0,0.0,0.0,0.0,0.0,0.0,-0.7095,-0.7095,-0.6997,-0.694,-0.694,-0.6871,-0.6797,-0.6759,-0.6719,-0.6624,-0.6511,-0.6405,-0.6334,-0.63,-0.63,-0.63,-0.63,-0.63,-0.63,-0.6303,-0.6337,-0.6416,-0.6518,-0.6559,-0.6658,-0.6776,-0.6883,-0.694,-0.6953,-0.7058,-0.7095,-0.7095,-0.7095,-0.7095,-0.7095,-0.7095,-0.7095,-0.7095,-0.7095,-0.7095,-0.7095,-0.7095,-0.7095,-0.7095,-0.7095,-0.7095,-0.7095,-0.7095,-0.7095,-0.7095,-0.7095,-0.7095,-0.7095,-0.7095,-0.7095,-0.7095,-0.7095,-0.6833,-0.6438,-0.5994,-0.4788,-0.3762,-0.3004,-0.1793,-0.0897,-0.0628,-0.0224,0.0,0.0,0.0,0.0,0.0,-0.018,-0.0404,-0.0628,-0.1166,-0.1838,-0.2599,-0.2288,-0.1974,-0.166,-0.1031,-0.0583,-0.652,-0.5719,-0.4786,-0.3803,-0.2508,-0.1345,-0.0852,0.0,-0.0448,-0.0448,0.0,0.0,0.0,0.0,0.0,0.0,0.0,0.0,0.0,0.0,0.0,0.0,0.0,0.0,0.0,0.0,0.0,0.0,0.0,-0.7095,-0.7095,-0.7088,-0.7085,-0.7085,-0.7078,-0.7007,-0.6876,-0.6773,-0.6624,-0.6511,-0.6504,-0.6429,-0.63,-0.63,-0.63,-0.63,-0.63,-0.63,-0.631,-0.6446,-0.6504,-0.6542,-0.6793,-0.6866,-0.6893,-0.7034,-0.7085,-0.7085,-0.7095,-0.7095,-0.7095,-0.7095,-0.7095,-0.7095,-0.7095,-0.7095,-0.7095,-0.7095,-0.7095,-0.7095,-0.7095,-0.7095,-0.7095,-0.7095,-0.7095,-0.7095,-0.7095,-0.7095,-0.7095,-0.7095,-0.7095,-0.7095,-0.7095,-0.7095,-0.7095,-0.7095,-0.6567,-0.5949,-0.5505,-0.4164,-0.3004,-0.2333,-0.1345,-0.0628,-0.0448,-0.018,0.0,0.0,0.0,0.0,0.0,0.0,-0.0135,-0.0403,-0.0448,-0.0942,-0.1839,-0.1839,-0.1705,-0.1391,-0.0942,-0.0583,-0.6435,-0.5725,-0.4968,-0.3673,-0.2644,-0.1705,-0.0897,-0.0538,-0.0359,-0.018,0.0,0.0,0.0,0.0,0.0,0.0,0.0,0.0,0.0,0.0,0.0,0.0,0.0,0.0,0.0,0.0,0.0,0.0,0.0,0.0,-0.7095,-0.7095,-0.7095,-0.7095,-0.7095,-0.7071,-0.7021,-0.6876,-0.677,-0.6617,-0.6559,-0.6436,-0.63,-0.63,-0.63,-0.63,-0.63,-0.6351,-0.6439,-0.6491,-0.6586,-0.6776,-0.6842,-0.6943,-0.7028,-0.7078,-0.7095,-0.7095,-0.7095,-0.7095,-0.7095,-0.7095,-0.7095,-0.7095,-0.7095,-0.7095,-0.7095,-0.7095,-0.7095,-0.7095,-0.7095,-0.7095,-0.7095,-0.7095,-0.7095,-0.7095,-0.7095,-0.7095,-0.7095,-0.7095,-0.7095,-0.7095,-0.7095,-0.7095,-0.7095,-0.7095,-0.6523,-0.5949,-0.546,-0.3985,-0.278,-0.2243,-0.1166,-0.0493,-0.0403,-0.0135,0.0,0.0,0.0,0.0,0.0,0.0,-0.0045,-0.0135,-0.0314,-0.0628,-0.1076,-0.1076,-0.0987,-0.0762,-0.0583,-0.0359,-0.6656,-0.5991,-0.5188,-0.3983,-0.3047,-0.2198,-0.13,-0.0852,-0.0538,-0.0224,0.0,0.0,0.0,0.0,0.0,0.0,0.0,0.0,0.0,0.0,0.0,0.0,0.0,0.0,0.0,0.0,0.0,0.0,0.0,0.0,-0.7095,-0.7095,-0.7095,-0.7095,-0.7095,-0.7095,-0.7095,-0.7004,-0.6883,-0.6776,-0.662,-0.6511,-0.6368,-0.632,-0.63,-0.6303,-0.6351,-0.6426,-0.6515,-0.6569,-0.6698,-0.6889,-0.694,-0.7014,-0.7095,-0.7095,-0.7095,-0.7095,-0.7095,-0.7095,-0.7095,-0.7095,-0.7095,-0.7095,-0.7095,-0.7095,-0.7095,-0.7095,-0.7095,-0.7095,-0.7095,-0.7095,-0.7095,-0.7095,-0.7095,-0.7095,-0.7095,-0.7095,-0.7095,-0.7095,-0.7095,-0.7095,-0.7095,-0.7095,-0.7095,-0.7095,-0.6523,-0.5949,-0.546,-0.3985,-0.278,-0.2243,-0.1256,-0.0583,-0.0403,-0.0224,-0.009,0.0,0.0,0.0,0.0,0.0,0.0,0.0,-0.018,-0.0314,-0.0449,-0.0628,-0.0583,-0.0403,-0.0403,-0.0269,0.0,0.0,0.0,-0.4872,-0.3848,-0.2777,-0.2018,0.0,-0.0987,-0.0538,0.0,0.0,0.0,0.0,0.0,0.0,0.0,0.0,0.0,0.0,0.0,0.0,0.0,0.0,0.0,0.0,0.0,0.0,0.0,-0.7095,-0.7095,-0.7095,-0.7095,-0.7095,-0.7095,-0.7095,-0.7095,-0.7095,-0.7024,-0.6883,-0.6776,-0.6624,-0.6508,-0.6368,-0.6306,-0.6313,-0.6453,-0.6518,-0.6538,-0.6647,-0.6797,-0.6906,-0.7045,-0.7095,-0.7095,-0.7095,-0.7095,-0.7095,-0.7095,-0.7095,-0.7095,-0.7095,-0.7095,-0.7095,-0.7095,-0.7095,-0.7095,-0.7095,-0.7095,-0.7095,-0.7095,-0.7095,-0.7095,-0.7095,-0.7095,-0.7095,-0.7095,-0.7095,-0.7095,-0.7095,-0.7095,-0.7095,-0.7095,-0.7095,-0.7095,-0.7095,-0.6523,-0.5949,-0.546,-0.4119,-0.2959,-0.2288,-0.157,-0.0942,-0.0493,-0.0448,-0.0314,-0.0045,-0.0045,-0.0045,-0.0045,-0.0045,-0.0045,-0.0045,-0.0045,-0.0045,-0.0045,-0.0449,-0.0583,-0.0403,-0.0403,-0.0269,-0.7625,0.0,0.0,0.0,0.0,0.0,0.0,0.0,0.0,0.0,0.0,0.0,0.0,0.0,0.0,0.0,0.0,0.0,0.0,0.0,0.0,0.0,0.0,0.0,0.0,0.0,0.0,0.0,-0.7095,-0.7095,-0.7095,-0.7095,-0.7095,-0.7095,-0.7095,-0.7095,-0.7095,-0.7095,-0.7024,-0.6886,-0.6842,-0.6725,-0.6511,-0.647,-0.6453,-0.6457,-0.6494,-0.66,-0.6807,-0.6848,-0.691,-0.7041,-0.7082,-0.7095,-0.7095,-0.7095,-0.7095,-0.7095,-0.7095,-0.7095,-0.7095,-0.7095,-0.7095,-0.7095,-0.7095,-0.7095,-0.7095,-0.7095,-0.7095,-0.7095,-0.7095,-0.7095,-0.7095,-0.7095,-0.7095,-0.7095,-0.7095,-0.7095,-0.7095,-0.7095,-0.7095,-0.7095,-0.7095,-0.7095,-0.7095,-0.7095,-0.6523,-0.5994,-0.5677,-0.4383,-0.3358,-0.2959,-0.2153,-0.157,-0.1436,-0.1256,-0.1077,-0.1032,-0.1032,-0.1032,-0.1032,-0.1032,-0.1032,-0.1032,-0.0852,-0.0808,-0.0808,-0.0404,-0.018,-0.009,-0.009,-0.009,-0.8174,-0.748,-0.683,-0.5964,0.0,0.0,-0.3934,-0.3471,0.0,0.0,0.0,0.0,0.0,0.0,0.0,0.0,0.0,0.0,0.0,0.0,0.0,0.0,0.0,0.0,0.0,0.0,0.0,-0.7051,-0.7095,-0.7095,-0.7095,-0.7095,-0.7095,-0.7095,-0.7095,-0.7095,-0.7095,-0.7095,-0.7055,-0.6974,-0.6913,-0.6834,-0.6661,-0.6597,-0.6566,-0.6569,-0.6634,-0.6763,-0.6889,-0.695,-0.7021,-0.7095,-0.7095,-0.7095,-0.7095,-0.7095,-0.7095,-0.7095,-0.7095,-0.7095,-0.7095,-0.7095,-0.7095,-0.7095,-0.7095,-0.7095,-0.7095,-0.7095,-0.7095,-0.7095,-0.7095,-0.7095,-0.7095,-0.7095,-0.7095,-0.7095,-0.7095,-0.7095,-0.7095,-0.7095,-0.7095,-0.7095,-0.7095,-0.7095,-0.7095,-0.7095,-0.67,-0.6305,-0.6033,-0.5095,-0.4293,-0.3894,-0.3226,-0.2689,-0.2287,-0.2107,-0.1928,-0.1748,-0.1748,-0.1748,-0.1748,-0.1748,-0.1748,-0.1748,-0.1613,-0.1434,-0.1211,-0.0494,-0.009,0.0,0.0,0.0,-0.8916,-0.8112,-0.7319,-0.6609,0.0,0.0,-0.4794,-0.4526,-0.4194,0.0,0.0,0.0,0.0,0.0,0.0,0.0,0.0,0.0,0.0,0.0,0.0,0.0,0.0,0.0,0.0,-0.6163,-0.6609,-0.7051,-0.7095,-0.7095,-0.7095,-0.7095,-0.7095,-0.7095,-0.7095,-0.7095,-0.7095,-0.7095,-0.7095,-0.7095,-0.697,-0.6903,-0.6879,-0.679,-0.6725,-0.6732,-0.6868,-0.6896,-0.692,-0.7045,-0.7095,-0.7095,-0.7095,-0.7095,-0.7095,-0.7095,-0.7095,-0.7095,-0.7095,-0.7095,-0.7095,-0.7095,-0.7095,-0.7095,-0.7095,-0.7095,-0.7095,-0.7095,-0.7095,-0.7095,-0.7095,-0.7095,-0.7095,-0.7095,-0.7095,-0.7102,-0.7119,-0.7122,-0.7125,-0.7142,-0.7119,-0.7095,-0.7095,-0.7095,-0.7095,-0.7095,-0.6925,-0.6704,-0.6476,-0.6033,-0.5497,-0.4917,-0.461,-0.4074,-0.3269,-0.3135,-0.2956,-0.2551,-0.2506,-0.2506,-0.2506,-0.2506,-0.2506,-0.2506,-0.2417,-0.2105,-0.1524,-0.0807,-0.0314,-0.0045,0.0,0.0,-0.9892,-0.9109,0.0,0.0,0.0,0.0,-0.582,-0.5536,-0.5361,0.0,0.0,0.0,0.0,0.0,0.0,0.0,0.0,0.0,0.0,0.0,0.0,0.0,0.0,0.0,0.0,-0.6523,-0.6833,-0.7098,-0.7095,-0.7095,-0.7095,-0.7095,-0.7095,-0.7095,-0.7095,-0.7095,-0.7095,-0.7095,-0.7095,-0.7095,-0.7068,-0.6997,-0.6883,-0.6856,-0.6842,-0.6842,-0.6873,-0.695,-0.7058,-0.7085,-0.7095,-0.7095,-0.7095,-0.7095,-0.7095,-0.7095,-0.7095,-0.7095,-0.7095,-0.7095,-0.7095,-0.7095,-0.7095,-0.7095,-0.7095,-0.7095,-0.7095,-0.7095,-0.7095,-0.7095,-0.7095,-0.7095,-0.7095,-0.7095,-0.7095,-0.7129,-0.7299,-0.7326,-0.7363,-0.7485,-0.7264,-0.7095,-0.7095,-0.7095,-0.7095,-0.7095,-0.6925,-0.6795,-0.6748,-0.6305,-0.5994,-0.5858,-0.5458,-0.5102,-0.4924,-0.4699,-0.4563,-0.4472,-0.4472,-0.4472,-0.4472,-0.4472,-0.4472,-0.4472,-0.3892,-0.3133,-0.2284,-0.1165,-0.0538,-0.0314,-0.009,0.0,0.0,0.0,0.0,-0.8339,0.0,0.0,0.0,-0.6571,-0.6362,-0.5792,-0.5638,-0.5476,0.0,0.0,0.0,0.0,0.0,0.0,0.0,0.0,0.0,0.0,0.0,0.0,0.0,-0.6704,-0.6881,-0.7098,-0.7095,-0.7095,-0.7095,-0.7095,-0.7095,-0.7095,-0.7095,-0.7095,-0.7095,-0.7095,-0.7095,-0.7095,-0.7095,-0.7058,-0.6991,-0.6991,-0.6991,-0.6991,-0.6991,-0.7031,-0.7095,-0.7095,-0.7095,-0.7095,-0.7095,-0.7095,-0.7095,-0.7095,-0.7095,-0.7095,-0.7095,-0.7095,-0.7095,-0.7095,-0.7095,-0.7095,-0.7095,-0.7095,-0.7095,-0.7095,-0.7095,-0.7095,-0.7095,-0.7095,-0.7115,-0.7238,-0.7255,-0.7299,-0.7451,-0.7485,-0.7509,-0.7587,-0.7475,-0.737,-0.737,-0.737,-0.737,-0.737,-0.7218,-0.7082,-0.7082,-0.6789,-0.6567,-0.6438,-0.626,-0.5994,-0.5772,-0.5636,-0.55,-0.5364,-0.5364,-0.5364,-0.5364,-0.5364,-0.5364,-0.5364,-0.4741,-0.416,-0.3578,-0.2508,-0.1524,-0.0762,-0.0628,-0.0404,0.0,0.0,0.0,0.0,0.0,-0.8627,0.0,0.0,0.0,-0.6684,-0.6544,0.0,0.0,0.0,0.0,0.0,0.0,0.0,0.0,0.0,0.0,0.0,0.0,0.0,0.0,-0.6836,-0.6925,-0.7095,-0.7095,-0.7095,-0.7095,-0.7095,-0.7095,-0.7095,-0.7095,-0.7095,-0.7095,-0.7095,-0.7095,-0.7095,-0.7095,-0.7095,-0.7095,-0.7095,-0.7095,-0.7095,-0.7095,-0.7095,-0.7095,-0.7095,-0.7095,-0.7095,-0.7095,-0.7095,-0.7095,-0.7095,-0.7095,-0.7095,-0.7095,-0.7095,-0.7095,-0.7095,-0.7095,-0.7095,-0.7095,-0.7095,-0.7095,-0.7095,-0.7095,-0.7095,-0.7095,-0.7119,-0.7217,-0.7343,-0.7439,-0.7458,-0.7607,-0.7641,-0.7648,-0.7678,-0.7685,-0.7665,-0.7611,-0.76,-0.76,-0.76,-0.7495,-0.746,-0.746,-0.7305,-0.7131,-0.6926,-0.6923,-0.6735,-0.6349,-0.6305,-0.6213,-0.5985,-0.5985,-0.5985,-0.5985,-0.5985,-0.5941,-0.5899,-0.5497,-0.5142,-0.4872,-0.4028,-0.2867,-0.1435,-0.13,-0.0987,0.0,0.0,0.0,0.0,-0.9895,0.0,0.0,0.0,-0.8334,-0.7881,0.0,0.0,0.0,0.0,0.0,0.0,0.0,0.0,0.0,0.0,0.0,0.0,0.0,0.0,0.0,0.0,-0.7098,-0.7095,-0.7095,-0.7095,-0.7095,-0.7095,-0.7095,-0.7095,-0.7095,-0.7095,-0.7095,-0.7095,-0.7095,-0.7095,-0.7095,-0.7095,-0.7095,-0.7095,-0.7095,-0.7095,-0.7095,-0.7095,-0.7095,-0.7095,-0.7095,-0.7095,-0.7095,-0.7095,-0.7095,-0.7095,-0.7095,-0.7095,-0.7095,-0.7095,-0.7095,-0.7095,-0.7095,-0.7095,-0.7095,-0.7095,-0.7095,-0.7095,-0.7095,-0.7095,-0.7095,-0.7241,-0.735,-0.7412,-0.7475,-0.7611,-0.7756,-0.7787,-0.7828,-0.7914,-0.7941,-0.7857,-0.7645,-0.76,-0.76,-0.76,-0.7587,-0.7573,-0.7573,-0.756,-0.7495,-0.736,-0.7346,-0.7243,-0.702,-0.7007,-0.6962,-0.6962,-0.6962,-0.6962,-0.6962,-0.6962,-0.6877,-0.6659,-0.6387,-0.603,-0.5586,-0.528,-0.4297,-0.2688,-0.2017,-0.157,0.0,0.0,0.0,0.0,0.0,0.0,-0.976,0.0,-0.9213,0.0,0.0,0.0,0.0,0.0,0.0,0.0,-0.7275,0.0,0.0,0.0,0.0,0.0,0.0,0.0,0.0,0.0,0.0,0.0,0.0,-0.7095,-0.7095,-0.7095,-0.7095,-0.7095,-0.7095,-0.7095,-0.7095,-0.7095,-0.7095,-0.7095,-0.7095,-0.7095,-0.7095,-0.7095,-0.7095,-0.7095,-0.7095,-0.7095,-0.7095,-0.7095,-0.7095,-0.7095,-0.7095,-0.7095,-0.7095,-0.7095,-0.7095,-0.7095,-0.7095,-0.7095,-0.7095,-0.7095,-0.7095,-0.7095,-0.7095,-0.7095,-0.7095,-0.7095,-0.7095,-0.7119,-0.7251,-0.7322,-0.746,-0.7587,-0.7675,-0.7763,-0.7913,-0.7894,-0.7914,-0.7978,-0.7988,-0.7951,-0.7826,-0.7855,-0.7855,-0.7855,-0.778,-0.7723,-0.7723,-0.7651,-0.7577,-0.7509,-0.7424,-0.7346,-0.7282,-0.7146,-0.7095,-0.7095,-0.7095,-0.7095,-0.7095,-0.7095,-0.7051,-0.6966,-0.6745,-0.6523,-0.6346,-0.5994,-0.5458,-0.4741,-0.3582,-0.2688,-1.4867,0.0,0.0,0.0,0.0,0.0,0.0,0.0,0.0,0.0,0.0,0.0,0.0,0.0,0.0,-0.8636,0.0,-0.7764,0.0,0.0,0.0,0.0,0.0,0.0,0.0,0.0,0.0,0.0,0.0,0.0,-0.7095,-0.7095,-0.7095,-0.7095,-0.7095,-0.7095,-0.7095,-0.7095,-0.7095,-0.7095,-0.7095,-0.7095,-0.7095,-0.7095,-0.7095,-0.7095,-0.7095,-0.7095,-0.7095,-0.7095,-0.7095,-0.7095,-0.7095,-0.7095,-0.7095,-0.7095,-0.7095,-0.7095,-0.7095,-0.7095,-0.7095,-0.7095,-0.7095,-0.7095,-0.7095,-0.7095,-0.7095,-0.7095,-0.7125,-0.7227,-0.7343,-0.7477,-0.7546,-0.776,-0.7841,-0.7902,-0.7965,-0.7988,-0.7988,-0.7988,-0.7988,-0.7988,-0.7988,-0.7988,-0.7988,-0.7988,-0.7894,-0.7875,-0.7875,-0.7784,-0.7702,-0.7662,-0.7556,-0.7458,-0.7426,-0.7268,-0.7139,-0.7098,-0.7095,-0.7095,-0.7095,-0.7095,-0.7095,-0.7095,-0.6966,-0.6881,-0.6881,-0.6526,-0.6346,-0.626,-0.4875,-0.3803,0.0,0.0,0.0,-1.4369,0.0,0.0,0.0,0.0,-1.1864,0.0,0.0,0.0,0.0,0.0,-0.9772,-0.9602,-0.8942,0.0,0.0,0.0,0.0,0.0,0.0,0.0,0.0,0.0,0.0,0.0,0.0,0.0,-0.7095,-0.7095,-0.7095,-0.7095,-0.7095,-0.7095,-0.7095,-0.7095,-0.7095,-0.7095,-0.7095,-0.7095,-0.7095,-0.7095,-0.7095,-0.7095,-0.7095,-0.7095,-0.7095,-0.7095,-0.7095,-0.7095,-0.7095,-0.7095,-0.7095,-0.7095,-0.7095,-0.7095,-0.7095,-0.7095,-0.7095,-0.7095,-0.7095,-0.7095,-0.7095,-0.7095,-0.7095,-0.7095,-0.7248,-0.7409,-0.7415,-0.7584,-0.7797,-0.7811,-0.7923,-0.7985,-0.7988,-0.7988,-0.7988,-0.7988,-0.7988,-0.7988,-0.7988,-0.7988,-0.7988,-0.7988,-0.7985,-0.7982,-0.7982,-0.7978,-0.7921,-0.7821,-0.7801,-0.7682,-0.7443,-0.7412,-0.7299,-0.7105,-0.7095,-0.7095,-0.7095,-0.7095,-0.7095,-0.7095,-0.7095,-0.7095,-0.7095,-0.7098,-0.6966,-0.6751,-0.5544,-0.483,0.0,0.0,-1.6324,-1.5724,0.0,0.0,0.0,0.0,0.0,0.0,0.0,0.0,0.0,0.0,-1.1235,-1.1025,-1.0115,-0.9375,0.0,0.0,0.0,0.0,0.0,0.0,0.0,0.0,0.0,0.0,0.0,0.0,0.0,-0.7095,-0.7095,-0.7095,-0.7095,-0.7095,-0.7095,-0.7095,-0.7095,-0.7095,-0.7095,-0.7095,-0.7095,-0.7095,-0.7095,-0.7095,-0.7095,-0.7095,-0.7095,-0.7095,-0.7095,-0.7095,-0.7095,-0.7095,-0.7095,-0.7095,-0.7095,-0.7095,-0.7095,-0.7095,-0.7095,-0.7095,-0.7095,-0.7095,-0.7095,-0.7095,-0.7095,-0.7095,-0.7251,-0.7439,-0.7495,-0.7668,-0.7838,-0.7887,-0.7951,-0.7988,-0.7988,-0.7988,-0.7988,-0.7988,-0.7988,-0.7988,-0.7988,-0.7988,-0.7988,-0.7988,-0.7988,-0.7988,-0.7988,-0.7988,-0.7971,-0.7917,-0.7872,-0.777,-0.7672,-0.7485,-0.7305,-0.7105,-0.7095,-0.7095,-0.7095,-0.7095,-0.7095,-0.7095,-0.7095,-0.7095,-0.7095,-0.7095,-0.7051,-0.6966,-0.6435,-0.5899,-1.8233,-1.7892,0.0,-1.725,-1.6879,0.0,-1.5957,0.0,0.0,0.0,0.0,0.0,0.0,0.0,-1.2613,-1.2229,-1.1327,-1.0419,0.0,-0.9122,0.0,0.0,0.0,0.0,0.0,0.0,0.0,-0.7095,-0.7095,0.0,0.0,0.0,-0.7095,-0.7095,-0.7095,-0.7095,-0.7095,-0.7095,-0.7095,-0.7095,-0.7095,-0.7095,-0.7095,-0.7095,-0.7095,-0.7095,-0.7095,-0.7095,-0.7095,-0.7095,-0.7095,-0.7095,-0.7095,-0.7095,-0.7095,-0.7095,-0.7095,-0.7095,-0.7095,-0.7095,-0.7095,-0.7095,-0.7095,-0.7095,-0.7095,-0.7095,-0.7105,-0.7207,-0.7333,-0.7489,-0.7638,-0.7784,-0.7916,-0.7968,-0.7988,-0.7988,-0.7988,-0.7988,-0.7988,-0.7988,-0.7988,-0.7988,-0.7988,-0.7988,-0.7988,-0.7988,-0.7988,-0.7988,-0.7988,-0.7988,-0.7988,-0.7988,-0.7901,-0.7848,-0.7743,-0.7512,-0.7305,-0.7105,-0.7095,-0.7095,-0.7095,-0.7095,-0.7095,-0.7095,-0.7095,-0.7095,-0.7095,-0.7095,-0.7095,-0.7095,-0.6966,-0.6656]},{"header":{"parameterUnit":"m.s-1","parameterCategory":1,"la1":30.6,"la2":29.2853,"lo1":-89.7004,"lo2":-87.6739,"dy":0.0162,"dx":0.0183,"nx":112,"ny":82,"refTime":"2023-09-02T00:00:00:Z","depth":0,"parameterNumber":3,"parameterNumberName":"V-component_of_WINDS"},"data":[0.0,0.0,0.0,0.0,0.0,0.0,0.0,0.0,0.0,0.0,0.0,0.0,0.0,0.0,0.0,0.0,0.0,0.0,0.0,0.0,0.0,0.0,0.0,0.0,0.0,0.0,0.0,0.0,0.0,0.0,0.0,0.0,0.0,0.0,0.0,0.0,0.0,0.0,0.0,0.0,0.0,0.0,0.0,0.0,0.0,0.0,0.0,0.0,0.0,0.0,0.0,0.0,0.0,0.0,0.0,0.0,0.0,0.0,0.0,0.0,0.0,0.0,0.0,0.0,0.0,0.0,0.0,0.0,0.0,0.0,0.0,0.0,0.0,0.0,0.0,0.0,0.0,0.0,0.0,0.0,0.0,0.0,0.0,0.0,0.0,0.0,0.0,0.0,0.0,0.0,0.7474,0.5789,0.2874,0.0638,-0.0336,-0.2178,-0.3877,-0.5262,0.0,0.0,0.0,0.0,0.0,0.0,0.0,0.0,0.0,0.0,0.0,0.0,0.0,0.0,0.0,0.0,0.0,0.0,0.0,0.0,0.0,0.0,0.0,0.0,0.0,0.0,0.0,0.0,0.0,0.0,0.0,0.0,0.0,0.0,0.0,0.0,0.0,0.0,0.0,0.0,0.0,0.0,0.0,0.0,0.0,0.0,0.0,0.0,0.0,0.0,0.0,0.0,0.0,0.0,0.0,0.0,0.0,0.0,0.0,0.0,0.0,0.0,0.0,0.0,0.0,0.0,0.0,0.0,0.0,0.0,0.0,0.0,0.0,0.0,0.0,0.0,0.0,0.0,0.0,0.0,0.0,0.0,0.0,0.0,0.0,0.0,0.0,0.0,0.0,0.0,0.0,0.0,0.0,0.0,0.0,0.0,0.0,0.0,0.0,0.0,0.0,0.0,0.0,0.0,0.6645,0.3709,0.1877,0.0336,-0.0874,-0.2611,-0.4176,-0.5463,0.0,0.0,0.0,0.0,0.0,0.0,0.0,0.0,0.0,0.0,0.0,0.0,0.0,0.0,0.0,0.0,0.0,0.0,0.0,0.0,0.0,0.0,0.0,0.0,0.0,0.0,0.0,0.0,0.0,0.0,0.0,0.0,0.0,0.0,0.0,0.0,0.0,0.0,0.0,0.0,0.0,0.0,0.0,0.0,0.0,0.0,0.0,0.0,0.0,0.0,0.0,0.0,0.0,0.0,0.0,0.0,0.0,0.0,0.0,0.0,0.0,0.0,0.0,0.0,0.0,0.0,0.0,0.0,0.0,0.0,0.0,0.0,0.0,0.0,0.0,0.0,0.0,0.0,0.0,0.0,0.0,0.0,0.0,0.0,0.0,0.0,0.0,0.0,0.0,0.0,0.0,0.0,0.0,0.0,0.0,0.0,0.0,0.0,0.0,0.0,0.0,0.0,0.0,0.7009,0.5361,0.288,0.1375,0.0101,-0.1008,-0.2714,-0.4278,-0.5533,-0.6817,0.0,0.0,0.0,0.0,0.0,0.0,0.0,0.0,0.0,0.0,0.0,0.0,0.0,0.0,0.0,0.0,0.0,0.0,0.0,0.0,0.0,0.0,0.0,0.0,0.0,0.0,0.0,0.0,0.0,0.0,0.0,0.0,0.0,0.0,0.0,0.0,0.0,0.0,0.0,0.0,0.0,0.0,0.0,0.0,0.0,0.0,0.0,0.0,0.0,0.0,0.0,0.0,0.0,0.0,0.0,0.0,0.0,0.0,0.0,0.0,0.0,0.0,0.0,0.0,0.0,0.0,0.0,0.0,0.0,0.0,0.0,0.0,0.0,0.0,0.0,0.0,0.0,0.0,0.0,0.0,0.0,0.0,0.0,0.0,0.0,0.0,0.0,0.0,0.0,0.0,0.0,0.0,0.0,0.0,0.0,0.0,0.0,0.0,0.0,0.0,0.0,0.0,0.5698,0.4309,0.248,0.1108,-0.0067,-0.1143,-0.2783,-0.4317,-0.5602,-0.6985,0.0,0.0,0.0,0.0,0.0,0.0,0.0,0.0,0.0,0.0,0.0,0.0,0.0,0.0,0.0,0.0,0.0,0.0,0.0,0.0,0.0,0.0,0.0,0.0,0.0,0.0,0.0,0.0,0.0,0.0,0.0,0.0,0.0,0.0,0.0,0.0,0.0,0.0,0.0,0.0,0.0,0.0,0.0,0.0,0.0,0.0,0.0,0.0,0.0,0.0,0.0,0.0,0.0,0.0,0.0,0.0,0.0,0.0,0.0,0.0,0.0,0.0,0.0,0.0,0.0,0.0,0.0,0.0,0.0,0.0,0.0,0.0,0.0,0.0,0.0,0.0,0.0,0.0,0.0,0.0,0.0,0.0,0.0,0.0,0.0,0.0,0.0,0.0,0.0,0.0,0.0,0.0,0.0,0.0,0.0,0.0,0.0,0.0,0.0,0.0,0.0,0.0,0.5474,0.4079,0.2146,0.1074,-0.0067,-0.1446,-0.2882,-0.4342,-0.5804,-0.719,0.0,0.0,0.0,0.0,0.0,0.0,0.0,0.0,0.0,0.0,0.0,0.0,0.0,0.0,0.0,0.0,0.0,0.0,0.0,0.0,0.0,0.0,0.0,0.0,0.0,0.0,0.0,0.0,0.0,0.0,0.0,0.0,0.0,0.0,0.0,0.0,0.0,0.0,0.0,0.0,0.0,0.0,0.0,0.0,0.0,0.0,0.0,0.0,0.0,0.0,0.0,0.0,0.0,0.0,0.0,0.0,0.0,0.0,0.0,0.0,0.0,0.0,0.0,0.0,0.0,0.0,0.0,0.0,0.0,0.0,0.0,0.0,0.0,0.0,0.0,0.0,0.0,0.0,0.0,0.0,0.0,0.0,0.0,0.0,0.0,0.0,0.0,0.0,0.0,0.0,0.0,0.0,0.0,0.0,0.0,0.0,0.0,0.0,0.0,0.0,0.0,0.0,0.5474,0.4115,0.0,0.1074,-0.0067,-0.1176,-0.2681,-0.4115,-0.5338,0.0,0.0,0.0,0.0,0.0,0.0,0.0,0.0,0.0,0.0,0.0,0.0,0.0,0.0,0.0,0.0,0.0,0.0,0.0,0.0,0.0,0.0,0.0,0.0,0.0,0.0,0.0,0.0,0.0,0.0,0.0,0.0,0.0,0.0,0.0,0.0,0.0,0.0,0.0,0.0,0.0,0.0,0.0,0.0,0.0,0.0,0.0,0.0,0.0,0.0,0.0,0.0,0.0,0.0,0.0,0.0,0.0,0.0,0.0,0.0,0.0,0.0,0.0,0.0,0.0,0.0,0.0,0.0,0.0,0.0,0.0,0.0,0.0,0.0,0.0,0.0,0.0,0.0,0.0,0.0,0.0,0.0,0.0,0.0,0.0,0.0,0.0,0.0,0.0,0.0,0.0,0.0,0.0,0.0,0.0,0.0,0.0,0.0,0.0,0.0,0.0,0.0,0.6793,0.5639,0.4278,0.0,0.1276,0.0134,-0.0908,-0.2315,-0.3649,-0.4773,0.0,0.0,0.0,0.0,0.0,0.0,0.0,0.0,0.0,0.0,0.0,0.0,0.0,0.0,0.0,0.0,0.0,0.0,0.0,0.0,0.0,0.0,0.0,0.0,0.0,0.0,0.0,0.0,0.0,0.0,0.0,0.0,0.0,0.0,0.0,0.0,0.0,0.0,0.0,0.0,0.0,0.0,0.0,0.0,0.0,0.0,0.0,0.0,0.0,0.0,0.0,0.0,0.0,0.0,0.0,0.0,0.0,0.0,0.0,0.0,0.0,0.0,0.0,0.0,0.0,0.0,0.0,0.0,0.0,0.0,0.0,0.0,0.0,0.0,0.0,0.0,0.0,0.0,0.0,0.0,0.0,0.0,0.0,0.0,0.0,0.0,0.0,0.0,0.0,0.0,0.0,0.0,0.0,0.0,0.0,0.0,0.0,0.0,0.0,0.0,0.0,0.0,0.712,0.5968,0.4643,0.2885,0.1746,0.0605,-0.0672,-0.1779,-0.2915,0.0,0.0,0.0,0.0,0.0,0.0,0.0,0.0,0.0,0.0,0.0,0.0,0.0,0.0,0.0,0.0,0.0,0.0,0.0,0.0,0.0,0.0,0.0,0.0,0.0,0.0,0.0,0.0,0.0,0.0,0.0,0.0,0.0,0.0,0.0,0.0,0.0,0.0,0.0,0.0,0.0,0.0,0.0,0.0,0.0,0.0,0.0,0.0,0.0,0.0,0.0,0.0,0.0,0.0,0.0,0.0,0.0,0.0,0.0,0.0,0.0,0.0,0.0,0.0,0.0,0.0,0.0,0.0,0.0,0.0,0.0,0.0,0.0,0.0,0.0,0.0,0.0,0.0,0.0,0.0,0.0,0.0,0.0,0.0,0.0,0.0,0.0,0.0,0.0,0.0,0.0,0.0,0.0,0.0,0.0,0.0,0.0,0.0,0.0,0.0,0.0,0.0,0.0,0.7832,0.642,0.4972,0.3547,0.2248,0.1042,0.0067,-0.1008,-0.2114,-0.3245,0.0,0.0,0.0,0.0,0.0,0.0,0.0,0.0,0.0,0.0,0.0,0.0,0.0,0.0,0.0,0.0,0.0,0.0,0.0,0.0,0.0,0.0,0.0,0.0,0.0,0.0,0.0,0.0,0.0,0.0,0.0,0.0,0.0,0.0,0.0,0.0,0.0,0.0,0.0,0.0,0.0,0.0,0.0,0.0,0.0,0.0,0.0,0.0,0.0,0.0,0.0,0.0,0.0,0.0,0.0,0.0,0.0,0.0,0.0,0.0,0.0,0.0,0.0,0.0,0.0,0.0,0.0,0.0,0.0,0.0,0.0,0.0,0.0,0.0,0.0,0.0,0.0,0.0,0.0,0.0,0.0,0.0,0.0,0.0,0.0,0.0,0.0,0.0,0.0,0.0,0.0,0.0,0.0,0.0,0.0,0.0,0.0,0.0,0.0,0.0,0.0,0.0,0.8323,0.6944,0.5529,0.4176,0.2748,0.1545,0.0571,-0.0403,-0.1411,-0.2449,0.0,0.0,0.0,0.0,0.0,0.0,0.0,0.0,0.0,0.0,0.0,0.0,0.0,0.0,0.0,0.0,0.0,0.0,0.0,0.0,0.0,0.0,0.0,0.0,0.0,0.0,0.0,0.0,0.0,0.0,0.0,0.0,0.0,0.0,0.0,0.0,0.0,0.0,0.0,0.0,0.0,0.0,0.0,0.0,0.0,0.0,0.0,0.0,0.0,0.0,0.0,0.0,0.0,0.0,0.0,0.0,0.0,0.0,0.0,0.0,0.0,0.0,0.0,0.0,0.0,0.0,0.0,0.0,0.0,0.0,0.0,0.0,0.0,0.0,0.0,0.0,0.0,0.0,0.0,0.0,0.0,0.0,0.0,0.0,0.0,0.0,0.0,0.0,0.0,0.0,0.0,0.0,0.0,0.0,0.0,0.0,0.0,0.0,0.0,0.0,0.0,0.0,0.8683,0.7507,0.6224,0.4773,0.338,0.2114,0.1008,0.0134,-0.0773,-0.1748,0.0,0.0,0.0,0.0,0.0,0.0,0.0,0.0,0.0,0.0,0.0,0.0,0.0,0.0,0.0,0.0,0.0,0.0,0.0,0.0,0.0,0.0,0.0,0.0,0.0,0.0,0.0,0.0,0.0,0.0,0.0,0.0,0.0,0.0,0.0,0.0,0.0,0.0,0.0,0.0,0.0,0.0,0.0,0.0,0.0,0.0,0.0,0.0,0.0,0.0,0.0,0.0,0.0,0.0,0.0,0.0,0.0,0.0,0.0,0.0,1.9308,0.0,0.0,0.0,0.0,0.0,0.0,0.0,0.0,0.0,0.0,0.0,0.0,0.0,0.0,0.0,0.0,0.0,0.0,0.0,0.0,0.0,0.0,0.0,0.0,0.0,0.0,0.0,0.0,0.0,0.0,0.0,0.0,0.0,0.0,0.0,0.0,0.0,0.0,0.0,0.0,0.0,0.9177,0.8069,0.6822,0.55,0.4342,0.3115,0.1782,0.1109,0.0235,-0.0975,-0.1779,0.0,0.0,0.0,0.0,0.0,0.0,0.0,0.0,0.0,0.0,0.0,0.0,0.0,0.0,0.0,0.0,0.0,0.0,0.0,0.0,0.0,0.0,0.0,0.0,0.0,0.0,0.0,0.0,0.0,0.0,0.0,0.0,0.0,0.0,0.0,0.0,0.0,0.0,0.0,0.0,0.0,0.0,0.0,0.0,0.0,0.0,0.0,0.0,0.0,0.0,0.0,0.0,0.0,0.0,0.0,0.0,0.0,0.0,0.0,0.0,1.9495,0.0,0.0,0.0,0.0,0.0,0.0,0.0,0.0,0.0,0.0,0.0,0.0,0.0,0.0,0.0,0.0,0.0,0.0,0.0,0.0,0.0,0.0,0.0,0.0,0.0,0.0,0.0,0.0,0.0,0.0,0.0,0.0,0.0,0.0,0.0,0.0,0.0,0.0,0.0,0.0,0.946,0.8554,0.7512,0.6256,0.5074,0.3882,0.2618,0.1781,0.0908,-0.0101,-0.0772,0.0,0.0,0.0,0.0,0.0,0.0,0.0,0.0,0.0,0.0,0.0,0.0,0.0,0.0,0.0,0.0,0.0,0.0,0.0,0.0,0.0,0.0,0.0,0.0,0.0,0.0,0.0,0.0,0.0,0.0,0.0,0.0,0.0,0.0,0.0,0.0,0.0,0.0,0.0,0.0,0.0,0.0,0.0,0.0,0.0,0.0,0.0,0.0,0.0,0.0,0.0,0.0,0.0,2.1951,2.1901,2.1788,2.1788,2.1632,2.1348,2.072,2.0204,1.9802,0.0,0.0,0.0,0.0,0.0,0.0,0.0,0.0,0.0,0.0,0.0,0.0,0.0,0.0,0.0,0.0,0.0,0.0,0.0,0.0,0.0,0.0,0.0,0.0,0.0,2.1753,2.1296,0.0,0.0,0.0,0.0,0.0,0.0,0.0,0.0,0.0,0.0,0.0,0.0,0.9811,0.9134,0.8285,0.7074,0.5866,0.4677,0.3582,0.2551,0.1647,0.084,0.0302,-0.0134,0.0,0.0,0.0,0.0,0.0,0.0,0.0,0.0,0.0,0.0,0.0,0.0,0.0,0.0,0.0,0.0,0.0,0.0,0.0,0.0,0.0,0.0,0.0,0.0,0.0,0.0,0.0,0.0,0.0,0.0,0.0,0.0,2.6095,2.5412,0.0,0.0,0.0,0.0,0.0,0.0,0.0,0.0,0.0,0.0,0.0,0.0,0.0,2.2316,2.2285,2.2173,2.2123,2.2154,2.2154,2.2154,2.2123,2.2123,2.2092,2.2061,2.1968,0.0,2.07,2.0399,0.0,0.0,0.0,0.0,0.0,0.0,0.0,0.0,0.0,0.0,0.0,0.0,0.0,0.0,0.0,0.0,0.0,0.0,0.0,0.0,0.0,0.0,2.2185,2.2482,2.242,2.1927,0.0,1.9577,1.8553,1.6959,0.0,0.0,0.0,0.0,0.0,0.0,0.0,0.0,1.0674,1.0034,0.9218,0.8108,0.7074,0.5928,0.468,0.392,0.3052,0.1946,0.1542,0.1107,0.0605,0.0605,0.0,0.0,0.0,0.0,0.0,0.0,0.0,0.0,0.0,0.0,0.0,0.0,0.0,0.0,0.0,0.0,0.0,0.0,0.0,0.0,0.0,0.0,0.0,0.0,0.0,0.0,0.0,0.0,0.0,2.7063,2.659,2.5987,2.5674,2.53,0.0,0.0,0.0,0.0,0.0,0.0,0.0,0.0,0.0,2.3463,2.3313,2.315,2.2969,2.2909,2.283,2.2726,2.2726,2.2665,2.2574,2.2574,2.2555,2.2475,2.2475,2.2278,2.1851,2.123,2.0773,2.0484,0.0,0.0,0.0,0.0,0.0,2.0549,2.0773,2.104,0.0,0.0,0.0,0.0,0.0,0.0,0.0,0.0,0.0,0.0,0.0,0.0,0.0,2.2878,2.2643,2.2048,2.0916,2.0077,1.9017,0.0,1.6313,1.5565,1.4726,0.0,0.0,0.0,0.0,1.1833,1.1397,1.0951,1.0275,0.9308,0.8302,0.7233,0.6067,0.5143,0.4284,0.3382,0.2915,0.248,0.2048,0.1914,0.1914,0.0,0.0,0.0,0.0,0.0,0.0,0.0,0.0,0.0,0.0,0.0,0.0,0.0,0.0,0.0,0.0,0.0,0.0,0.0,0.0,0.0,0.0,0.0,0.0,0.0,0.0,0.0,0.0,2.7463,2.7178,2.659,2.6418,2.6069,0.0,0.0,0.0,0.0,0.0,0.0,2.4494,2.4379,2.4261,2.4041,2.4024,2.3865,2.3628,2.3599,2.3497,2.3365,2.3365,2.3305,2.3198,2.318,2.3103,2.2982,2.2934,2.286,2.283,2.1994,2.1557,2.1336,2.0773,2.0677,2.0816,2.0645,2.0901,2.142,2.1588,2.187,2.2106,2.2106,0.0,2.2075,2.192,0.0,0.0,0.0,0.0,2.234,2.2647,2.283,2.2939,2.3078,2.2681,2.2072,2.1194,2.0418,1.9365,0.0,1.6821,1.6312,1.5546,0.0,0.0,0.0,0.0,1.2895,1.2405,1.2035,1.1469,1.0672,0.9653,0.8592,0.7567,0.6523,0.5606,0.4882,0.4384,0.3951,0.3587,0.3453,0.3351,0.3351,0.0,0.0,0.0,0.0,0.0,0.0,0.0,0.0,0.0,0.0,0.0,0.0,0.0,0.0,0.0,0.0,0.0,0.0,0.0,0.0,0.0,0.0,0.0,0.0,0.0,0.0,0.0,0.0,0.0,2.7233,2.6982,0.0,0.0,0.0,0.0,2.5866,2.5839,2.5564,2.5005,2.4948,2.4793,2.4494,2.435,2.4263,2.4263,2.4118,2.4073,2.4044,2.4044,2.4044,2.4044,2.3907,2.3861,2.3832,2.3492,2.3373,2.3313,2.2635,2.2266,2.2123,2.1889,2.169,2.1553,2.1753,2.1932,2.2154,2.2297,2.2482,2.2647,2.2647,2.2647,2.2647,2.2647,2.2512,0.0,0.0,2.2512,2.2482,2.2787,2.2878,2.2939,2.3078,2.2681,2.2101,2.1421,2.0696,1.9667,0.0,1.7407,1.6922,1.6189,0.0,1.5371,1.4875,1.4698,1.4403,1.3936,1.3438,1.2854,1.2266,1.1111,1.0034,0.9169,0.8151,0.7214,0.6367,0.5968,0.5606,0.5209,0.5176,0.5176,0.5176,0.505,0.0,0.0,0.0,0.0,0.0,0.0,0.0,0.0,0.0,0.0,0.0,0.0,0.0,0.0,0.0,0.0,0.0,0.0,0.0,0.0,0.0,0.0,0.0,0.0,0.0,0.0,0.0,0.0,2.782,2.7595,0.0,2.6971,2.6829,2.6645,2.6418,2.6324,2.619,2.5974,2.5892,2.5701,2.5398,2.5342,2.5147,2.4736,2.4708,2.4565,2.435,2.435,2.435,2.435,2.4305,2.4232,2.4144,2.4015,2.3927,2.3839,2.3603,2.3155,2.2604,2.2347,2.2254,2.2316,2.2242,2.2408,2.2678,2.2696,2.2818,2.2969,2.3103,2.3163,2.3163,2.3241,2.318,2.306,2.3241,2.318,2.309,2.33,2.33,2.3152,2.2963,2.2414,2.1759,2.1176,2.0448,1.9696,1.8931,1.8494,1.8061,1.749,1.7034,1.6602,1.6187,1.5833,1.5458,1.508,1.466,1.4156,1.3476,1.2519,1.1556,1.0634,0.9723,0.8796,0.7924,0.747,0.6981,0.6363,0.626,0.6129,0.6001,0.5972,0.5976,0.0,0.0,0.0,0.0,0.0,0.0,0.0,0.0,0.0,0.0,0.0,0.0,0.0,0.0,0.0,0.0,0.0,0.0,0.0,0.0,0.0,0.0,0.0,0.0,0.0,0.0,2.8748,2.8415,2.8204,2.7949,2.7575,2.7478,2.7284,2.7023,2.693,2.68,2.6671,2.6578,2.6418,2.6177,2.6123,2.5907,2.5522,2.5467,2.5342,2.5119,2.5119,2.5119,2.5091,2.5021,2.4921,2.4836,2.4609,2.4478,2.4392,2.4263,2.3914,2.3395,2.3095,2.3047,2.318,2.3005,2.3095,2.3288,2.3241,2.3241,2.3288,2.3492,2.3552,2.3582,2.3747,2.3704,2.3658,2.3734,2.3704,2.3645,2.3763,2.3533,2.3286,2.3015,2.2277,2.154,2.1195,2.0565,2.0003,1.9798,1.9303,1.8774,1.8348,1.8023,1.7667,1.7251,1.6905,1.6557,1.6187,1.5872,1.541,1.4708,1.3858,1.2945,1.2012,1.1173,1.0319,0.9468,0.9052,0.8565,0.7957,0.7854,0.7725,0.7567,0.7372,0.7209,0.7116,0.0,0.0,0.0,0.0,0.0,0.0,0.0,0.0,0.0,0.0,0.0,0.0,0.0,0.0,0.0,0.0,0.0,0.0,0.0,0.0,0.0,0.0,0.0,2.9605,2.9566,2.9454,2.8997,2.8803,2.8605,2.8244,2.8235,2.8048,2.7675,2.7625,2.7448,2.7055,2.7029,2.6937,2.6721,2.659,2.6537,2.651,2.6404,2.631,2.631,2.631,2.631,2.6283,2.6042,2.5921,2.5893,2.5314,2.5033,2.5033,2.4694,2.4567,2.4538,2.4234,2.4102,2.4102,2.4102,2.4102,2.4102,2.3966,2.3789,2.3658,2.3861,2.392,2.3979,2.4102,2.4118,2.4118,2.4147,2.4118,2.4118,2.4134,2.3657,2.3239,2.3199,2.2336,2.1524,2.1511,2.1053,2.0585,2.0447,1.9798,1.9133,1.8721,1.864,1.8479,1.8007,1.7952,0.0,1.7301,1.7011,1.6606,1.6007,1.5108,1.4222,1.3342,1.2535,1.1726,1.0923,1.0703,1.0451,1.0078,1.0078,0.9983,0.9837,0.9314,0.8898,0.8587,0.0,0.0,0.0,0.0,0.0,0.0,0.0,0.0,0.0,0.0,0.0,0.0,0.0,0.0,0.0,0.0,0.0,0.0,0.0,0.0,0.0,0.0,3.0675,3.0279,3.0108,2.9957,2.9728,2.9364,2.9059,2.8858,2.8598,2.8383,2.8262,2.8195,2.8088,2.789,2.7865,2.77,2.7357,2.7331,2.7167,2.6858,2.6832,2.6724,2.659,2.659,2.659,2.659,2.6525,2.6445,2.6324,2.6163,2.6028,2.5947,2.5837,2.581,2.5701,2.4766,2.4408,2.4408,2.4408,2.4408,2.4379,2.435,2.4305,2.4292,2.4607,2.4706,2.475,2.4964,2.4921,2.4793,2.4992,2.4893,2.4699,2.4462,2.4122,2.3676,2.3012,2.2409,2.1944,2.1749,2.1434,2.1166,2.1118,2.0795,2.0321,1.972,1.9526,1.9384,1.916,1.8975,0.0,1.841,1.7995,1.7462,1.6775,1.6169,1.5497,1.4717,1.4225,1.367,1.2945,1.2763,1.2419,1.1827,1.1673,1.137,1.0899,1.0483,1.0262,0.0,0.0,0.0,0.0,0.0,0.0,0.0,0.0,0.0,0.0,0.0,0.0,0.0,0.0,0.0,0.0,0.0,0.0,0.0,0.0,0.0,0.0,3.1052,3.1015,3.0814,3.0609,3.0422,3.022,2.9919,2.9617,2.9416,2.9173,2.8943,2.8772,2.8708,2.8605,2.8422,2.835,2.8229,2.7968,2.7949,2.7815,2.7579,2.7529,2.7423,2.7331,2.7203,2.7152,2.7152,2.71,2.7034,0.0,2.6916,2.6864,2.6762,2.6733,2.664,0.0,0.0,0.0,0.0,0.0,2.5189,2.509,2.509,2.4992,2.4936,2.5272,2.537,2.5411,2.5687,2.566,2.5591,2.5742,2.5451,2.5078,2.4892,2.4325,2.3652,2.3119,2.2644,2.228,2.2147,2.1969,2.1827,2.1746,0.0,0.0,2.0847,2.0459,2.0156,1.9965,1.9811,1.9604,1.9356,1.8963,1.8498,1.7852,1.7302,1.6687,1.6016,1.5603,0.0,0.0,0.0,1.4168,1.3703,1.3447,0.0,0.0,0.0,1.2205,1.2453,0.0,0.0,0.0,1.3319,1.3867,0.0,0.0,0.0,0.0,0.0,0.0,0.0,0.0,0.0,0.0,0.0,0.0,0.0,0.0,0.0,0.0,3.123,3.123,3.121,3.1072,3.0834,3.0589,3.0431,3.0225,2.9941,2.9859,2.9683,2.928,2.9234,2.9097,2.885,0.0,0.0,0.0,0.0,2.8468,2.8444,2.8332,2.8244,2.8235,2.7989,2.7865,2.7865,2.775,2.77,2.771,2.7655,2.7595,2.7524,2.7479,2.7297,2.7019,2.6522,2.6336,2.6336,2.6336,2.619,0.0,0.0,0.0,0.0,2.5907,2.6029,2.6084,2.6324,2.6404,2.6404,2.6431,2.5945,2.5403,2.5371,2.4453,2.3545,2.3473,2.3028,2.2612,2.2612,2.2603,2.2558,2.2379,2.2356,2.2263,2.2053,2.1396,2.0833,2.0585,2.0523,2.0409,2.0169,1.9901,1.954,1.9099,0.0,0.0,1.7319,1.6845,1.6433,1.5967,1.592,1.5766,1.5573,1.5274,1.5051,1.4875,1.4442,1.4454,1.4927,1.526,1.5863,1.6595,1.5635,1.5403,0.0,0.0,0.0,0.0,0.0,0.0,0.0,0.0,0.0,0.0,0.0,0.0,0.0,0.0,0.0,3.1543,3.144,3.1404,3.1293,3.1254,3.1157,3.0935,3.0753,3.0609,3.0531,3.0326,3.0182,3.0081,3.0006,2.987,2.9595,2.9572,0.0,2.8982,2.8974,2.8858,2.863,2.8606,2.8535,2.8431,0.0,0.0,2.8275,2.825,2.8268,2.8334,2.8319,2.8367,2.8439,2.8319,2.8213,2.7999,2.7008,2.6616,2.6616,2.6616,2.6604,2.6551,2.6551,2.6484,2.6498,2.6712,2.6779,2.6806,2.6985,2.7037,0.0,2.7155,2.6745,2.6184,2.5786,2.508,2.4335,2.3836,2.3554,2.3399,2.3399,2.3297,2.3253,2.3312,2.3246,2.3187,2.3246,2.2328,2.1602,2.153,2.1337,2.1142,2.0979,2.0646,2.0295,1.9965,1.9644,1.9281,1.8876,1.8679,1.8439,1.8128,1.7797,1.7468,1.7169,1.6806,1.6394,1.6016,1.6155,1.6228,1.6217,1.7145,1.768,1.7845,1.7196,1.712,0.0,0.0,0.0,0.0,0.0,0.0,0.0,0.0,0.0,0.0,0.0,3.4021,0.0,0.0,3.3274,3.2874,3.2458,3.2181,3.2126,3.1743,3.137,3.1114,3.1012,3.0915,3.0855,3.0736,3.0617,3.0514,3.0468,3.0342,3.0156,3.0075,2.993,2.9711,2.9677,2.9589,2.9438,2.9325,2.9219,2.915,2.8912,2.8787,2.8748,2.8748,2.8779,2.8818,2.9051,2.9143,2.9074,2.8889,2.8787,2.8685,2.7987,2.7605,2.7458,2.7458,2.7357,2.7255,2.7255,2.7203,2.7178,2.7335,2.7401,2.7427,2.7564,2.764,2.764,2.7418,2.694,2.6389,2.5855,2.5188,2.4575,2.4259,2.412,2.4051,2.4051,2.3994,2.3952,2.3952,2.3915,2.39,2.3952,2.3465,2.292,2.2558,2.2365,2.2203,2.2058,2.1823,2.1561,2.1269,2.0953,2.0582,2.0181,1.9851,1.9568,1.9347,1.9176,1.8912,1.862,1.8328,1.8118,1.7947,1.8038,1.8287,1.8652,1.9267,1.9725,2.0042,1.991,1.9411,0.0,0.0,0.0,0.0,0.0,0.0,0.0,3.5882,3.5331,3.5313,3.513,3.4945,3.4658,3.4603,3.4511,3.4312,3.3736,3.323,3.3036,3.2408,3.1809,3.1404,3.1308,3.123,3.1134,3.1095,3.1035,3.0895,3.0855,3.0757,3.0651,3.0514,3.0414,3.0372,3.0321,3.0274,3.0253,3.0027,2.9924,2.9881,2.9512,2.9325,2.9303,2.9303,2.9325,2.9371,2.975,2.9832,2.9633,2.9416,2.9325,2.9296,2.9074,2.8795,2.8494,2.8317,2.8122,2.7925,2.7925,2.7875,2.7785,2.79,2.7925,2.7965,2.8063,2.821,2.8203,2.7604,2.7107,2.6598,2.5958,2.5329,2.4835,2.4811,2.4751,2.4686,2.4645,2.4625,2.4625,2.4569,2.4594,2.4619,2.4614,2.4589,2.4271,2.3478,2.3312,2.3224,2.3113,2.2987,2.2815,2.2589,2.2262,2.1828,2.1369,2.0892,2.0598,2.0589,2.0501,2.0386,2.0281,2.0086,2.0021,2.0055,2.0049,2.0347,2.1003,2.1206,2.1632,2.2175,2.2408,2.1538,3.7776,3.7978,3.7825,3.793,3.7894,3.7806,0.0,3.7716,3.7593,3.747,3.7292,3.6951,3.6275,3.6024,3.5684,3.5013,3.4818,3.4447,3.3547,3.3353,3.2931,3.2018,3.1635,3.1481,3.1523,3.1481,3.1462,3.1504,3.1334,3.1196,3.1131,3.0995,3.0855,3.0671,3.0651,3.0589,3.0485,3.0426,3.0368,3.023,3.0187,3.014,3.0081,3.0081,3.0113,3.0166,3.0363,3.0347,3.0225,3.0166,3.0135,3.0081,3.0044,2.9853,2.9528,2.8748,2.8455,2.8415,2.8415,2.8415,2.8391,2.8431,2.8415,2.8415,2.8455,2.8622,2.8693,2.8088,2.7752,2.74,2.6675,2.6121,2.5715,2.553,2.5473,2.5416,2.5173,2.5114,2.5192,2.5416,2.5473,2.553,2.5696,2.5567,2.5114,2.4147,2.3894,2.3794,2.3794,2.3672,2.3586,2.3565,2.3348,2.3017,2.2558,2.2244,2.2249,2.2724,2.2321,2.2249,2.2709,2.2286,2.1963,2.1741,2.2071,2.2204,2.2114,2.26,2.2952,2.3122,2.3152,2.267,3.821,3.8514,3.8421,3.8394,3.8332,3.8283,3.8283,3.8219,3.8172,3.8104,3.7966,3.7736,3.7395,3.7272,3.7077,0.0,3.6273,3.5683,3.4795,3.4177,3.3506,3.2591,3.2266,3.2056,3.1859,3.1821,3.1785,3.1784,3.1654,3.1521,3.1366,3.1252,3.1117,3.0975,3.0975,3.0955,3.0895,3.0834,3.0757,3.0699,3.0593,3.051,3.0485,3.0485,3.0572,3.0699,3.0733,3.0716,3.0699,3.0576,3.051,3.0485,3.0401,3.03,3.0135,2.9489,2.9189,2.909,2.909,2.909,2.909,2.909,2.909,2.909,2.909,2.9234,2.9214,2.8159,2.7931,2.7741,2.6656,2.6222,2.6045,2.5956,2.5883,2.5809,2.5682,2.5663,2.5701,2.5809,2.5899,2.599,2.6063,2.5992,2.5791,2.5288,2.4902,2.4664,2.4664,2.4608,2.4647,2.4905,2.4677,2.4541,2.4612,2.4405,2.4329,2.4489,2.4274,2.4171,2.4141,2.3966,2.3802,2.3702,2.3838,2.3985,2.411,2.4478,2.4699,2.4755,2.505,2.4924,3.8846,3.904,3.8975,3.8851,3.8766,3.8691,3.8661,3.859,3.8499,3.8499,3.8368,3.8252,3.8204,3.8136,3.8086,3.7983,3.7513,3.6808,3.5766,3.502,3.4185,3.3098,3.288,3.2703,3.2419,3.2248,3.2144,3.2127,3.2002,3.1819,3.1632,3.1466,3.1351,3.131,3.1327,3.1327,3.1366,3.1271,3.1232,3.1213,3.1075,3.0995,3.0938,3.0878,3.0938,3.1095,3.1012,3.1012,3.1035,3.0895,3.0834,3.0834,3.0733,3.0671,3.0609,3.0262,2.9962,2.9722,2.9722,2.9722,2.9722,2.9722,2.9722,2.9722,2.9722,2.9853,2.9766,2.8608,2.8313,2.8094,2.6927,2.6479,2.633,2.6312,2.6241,2.617,2.6134,2.6152,2.617,2.6189,2.6313,2.6434,2.6452,2.6452,2.6484,2.6562,2.6237,2.584,2.5473,2.5602,2.5892,2.632,2.6146,2.6059,2.6277,2.6137,2.6047,2.6044,2.5974,2.5908,2.5794,2.5712,2.5672,2.5681,2.5604,2.5702,2.5957,2.6144,2.6277,2.6344,2.6678,2.6756,3.9862,3.9682,3.9458,3.9389,3.929,3.917,3.9101,3.9036,3.8979,3.8979,3.8807,3.8692,3.8692,3.853,3.8382,3.8382,3.8364,3.7767,3.6124,3.5854,3.5242,3.3592,3.3378,3.3364,0.0,3.2882,3.2605,3.2669,3.2369,3.2109,3.1894,3.171,3.1579,3.1579,3.1579,3.1653,3.1781,3.1781,3.1781,3.1781,3.1781,3.169,3.156,3.1372,3.1276,3.1276,3.1213,3.119,3.119,3.119,3.119,3.119,3.1171,3.1112,3.0975,3.0975,3.0679,3.0288,3.0288,3.0288,3.0288,3.0288,3.0288,3.0288,3.0288,3.0368,3.034,2.9719,2.9178,2.8605,2.785,2.7163,2.6674,2.6606,2.6572,2.6555,2.6502,2.6537,2.6606,2.6674,2.6842,2.7007,2.707,2.7069,2.7294,2.7947,2.7981,2.745,2.6145,2.6585,2.7254,2.778,2.7774,2.7545,2.7089,2.6945,2.7033,2.7411,2.7211,2.733,2.7987,2.7748,2.7615,2.763,2.742,2.733,2.7335,2.736,2.745,2.7645,2.766,2.7735,4.011,3.9969,3.9815,3.9739,3.9563,3.9401,3.9376,3.9272,3.9197,3.9129,3.9031,3.895,3.891,3.8777,3.8667,3.8667,3.8624,3.8028,3.6402,3.6087,3.5422,3.3788,3.3563,0.0,0.0,0.0,0.0,3.2975,3.2786,3.2556,3.2301,3.2126,3.1966,3.1877,3.1877,3.1895,3.1931,3.1931,3.1931,3.1931,3.1931,3.1894,3.1802,3.1673,3.1579,3.1504,3.1423,3.1423,3.1464,3.1464,3.1521,3.1595,3.1595,3.1521,3.1389,3.1389,3.1274,3.1058,3.0797,3.0695,3.0695,3.0695,3.0695,3.0695,3.0695,3.0773,3.0704,2.999,2.9758,2.9434,2.8216,2.7828,2.7622,2.7011,2.6892,2.6908,2.6842,2.6875,2.6957,2.7021,2.7151,2.745,2.7996,2.8099,2.8343,2.9056,2.8887,2.8502,2.8052,2.8255,2.8658,2.9231,2.9257,2.9359,2.9608,2.9473,2.9405,2.9544,2.9345,2.9289,2.9419,2.93,2.9125,2.8965,2.8887,2.8818,2.874,2.8818,2.8856,2.8826,2.8911,2.895,4.0341,4.0215,4.008,4.002,3.9854,3.9721,3.9679,3.9592,3.9514,3.9464,3.9337,3.9219,3.9156,3.9003,3.8892,3.8833,3.8795,3.8275,3.6923,3.6406,3.5681,3.4311,3.3881,3.3684,0.0,0.0,0.0,3.3298,3.3117,3.2914,3.2688,3.2489,3.2352,3.2282,3.2282,3.2317,3.2385,3.2402,3.2402,3.2385,3.2317,3.2248,3.2231,3.2038,3.193,3.184,3.1728,3.171,3.1748,3.1748,3.1785,3.1875,3.1875,3.1821,3.1748,3.1728,3.1673,3.1578,3.1249,3.1131,3.1154,3.1154,3.1154,3.1154,3.1154,3.1154,3.1089,3.0618,3.0393,3.0098,2.9195,2.887,2.8678,2.8128,2.8023,2.8056,2.8008,2.8089,2.8184,2.8216,2.8406,2.8702,2.9222,2.9537,2.9857,3.0336,3.0334,3.0126,2.9691,2.9674,2.9948,3.0593,3.0678,3.081,3.1082,3.0996,3.0894,3.0831,3.069,3.0567,3.046,3.0418,3.0314,3.0091,3.0107,3.0026,2.9913,3.0,2.9978,2.9865,2.9946,2.9941,4.0531,4.0408,4.0288,4.0223,4.0148,4.0091,4.0032,3.996,3.9914,3.9914,3.9705,3.9514,3.9427,3.9245,3.9059,3.8921,3.8851,3.8501,3.7617,3.6813,3.5973,0.0,0.0,0.0,0.0,0.0,0.0,3.3633,0.0,3.316,3.3021,3.2848,3.2749,3.2844,3.2827,3.2908,3.3117,3.3117,3.3117,3.3117,3.2908,3.2844,3.2795,3.2487,3.2335,3.2318,3.2127,3.2021,3.2039,3.2039,3.2056,3.2056,3.2056,3.2056,3.2039,3.1967,3.1948,3.1894,3.1634,3.1578,3.1617,3.1617,3.1617,3.1617,3.1617,3.1559,3.1517,3.1517,3.1064,3.0608,3.0698,3.0266,2.981,2.9823,2.9822,2.9838,2.9822,2.9969,3.0131,3.0131,3.0429,3.0692,3.0692,3.1306,3.1773,3.1791,3.2273,3.2207,3.1029,3.089,3.1185,3.1879,3.1966,3.186,3.1589,3.1571,3.1478,3.1287,3.1266,3.1244,3.1145,3.1145,3.1123,3.1044,3.1044,3.0985,3.0865,3.0865,3.0821,3.0753,3.0753,3.0692,4.0647,4.055,4.0449,4.0441,4.0334,4.0252,4.0233,4.0158,4.01,4.007,3.9948,3.9837,3.9724,3.9452,3.9205,3.9073,3.8906,0.0,3.7617,3.6813,0.0,3.5096,3.4302,3.3807,3.3807,3.3807,0.0,0.0,3.3601,3.3459,3.3375,3.3286,3.3226,3.3256,3.3256,3.3271,3.3334,3.3334,3.3334,3.3334,3.3271,3.3193,3.3096,3.2912,3.2766,3.2668,3.252,3.2486,3.2601,3.2601,3.2684,3.2814,3.2814,3.2716,3.2601,3.2568,3.252,3.2403,3.2335,3.2091,3.1821,3.1877,3.1913,3.1895,3.184,3.182,3.1802,3.1802,3.1774,3.1673,3.12,3.1135,3.1026,3.0329,3.03,3.0346,3.0205,3.033,3.0502,3.0544,3.1232,3.1791,3.1791,3.2459,3.2934,3.2823,3.2957,3.284,3.2223,3.222,3.2355,3.255,3.2702,3.2766,3.27,3.255,3.245,3.24,3.2162,3.2003,3.2003,3.186,3.1751,3.175,3.175,3.1695,3.162,3.162,3.1526,3.137,3.137,3.1332,4.0713,4.0603,4.0495,4.0495,4.0436,4.0383,4.0383,4.036,4.0316,4.0279,4.0196,4.0109,3.9996,3.9739,3.9514,3.9311,3.9115,3.8769,3.8243,3.7415,3.6562,3.5721,3.4848,0.0,3.3825,3.3807,3.3807,0.0,3.3698,3.3633,3.3591,3.352,3.3509,3.352,3.352,3.3549,3.3577,3.3577,3.3577,3.3577,3.3549,3.3488,3.3412,3.3283,3.3175,3.3096,0.0,3.2993,3.3068,3.3068,3.3132,3.3226,3.3226,3.3162,3.3068,3.3003,3.2925,3.2864,3.2864,3.2685,3.2453,3.2368,3.2351,3.2351,3.2317,3.2249,3.2214,3.2214,3.2335,3.2381,3.2073,3.2157,3.2235,3.1775,3.1745,3.1807,3.1682,3.1775,3.1892,3.1988,3.2464,3.2875,3.2903,3.3239,3.3506,3.3426,3.3383,3.328,3.3068,3.3003,3.3003,3.3068,3.3162,3.3226,3.3226,3.3132,3.3034,3.297,3.2798,3.2669,3.2654,3.2554,3.2453,3.2351,3.2351,3.23,3.2214,3.2214,3.2109,3.1894,3.1894,3.184,4.0726,4.0605,4.0496,4.0496,4.0496,4.0496,4.0496,4.0503,4.0491,4.0491,4.0405,4.0298,4.0234,4.0058,3.9829,3.9556,3.935,3.917,3.9036,3.8208,3.7366,3.6638,3.5662,3.4757,3.4041,3.3889,3.3815,3.3802,3.3766,3.3726,3.3712,3.3675,3.3643,3.3712,3.3712,3.3739,3.3807,3.3807,3.3807,3.3807,3.3739,3.3712,3.3712,3.3591,3.352,3.352,0.0,0.0,3.3437,3.3437,3.3452,3.3452,3.3452,3.3452,3.3437,3.3313,3.3265,3.325,3.325,3.3265,3.3217,3.2954,3.2876,3.2876,3.286,3.2782,3.267,3.267,3.2782,3.2908,3.3037,3.316,3.328,3.3408,3.3437,3.3437,3.3422,3.3481,3.3563,3.3684,3.3712,3.3739,3.3793,3.3753,3.3712,3.3712,3.3657,3.3633,3.3629,3.3412,3.3313,3.3437,3.3452,3.3466,3.3466,3.3466,3.3419,3.3294,3.3265,3.322,3.3147,3.3132,3.3052,3.2876,3.2876,3.2814,3.267,3.267,3.2588,3.2403,3.2403,3.2318,4.0725,4.0607,4.0496,4.0496,4.0496,4.0496,4.0496,4.0508,4.05,4.05,4.0479,4.0432,4.0298,4.0129,3.991,3.9686,3.9502,3.9285,3.9115,3.8331,3.7678,3.7407,3.6122,3.5164,3.4986,3.4358,0.0,0.0,0.0,3.3829,3.3793,3.378,3.378,3.3793,3.3793,3.3793,3.3807,3.3807,3.3807,3.3807,3.3793,3.3793,3.378,3.3698,3.3657,3.3657,3.3591,0.0,3.3661,3.3661,3.3671,3.3726,3.3726,3.3698,3.3661,3.3629,3.3587,3.353,3.353,3.3559,3.3587,3.3375,3.3286,3.3286,3.316,3.3111,3.3099,3.3099,3.3193,3.3316,3.339,3.3502,3.3601,3.3577,3.3619,3.3629,3.3577,3.3619,3.3684,3.3766,3.3793,3.3793,3.3807,3.3793,3.3793,3.3793,3.378,3.3793,3.3829,3.3726,3.3629,3.3661,3.3753,3.3802,3.3802,3.3802,3.3793,3.3694,3.3601,3.3506,3.3433,3.3378,3.3334,3.3286,3.3286,3.3223,3.3099,3.3099,3.3052,3.2959,3.2959,3.2928,4.0712,4.0595,4.0496,4.0496,4.0496,4.0496,4.0496,4.0496,4.0496,4.0496,4.05,4.0479,4.0413,4.0288,4.0148,3.9977,3.9826,3.9635,3.9452,3.8962,3.8439,3.7922,3.6787,3.584,3.5393,3.4605,3.4074,0.0,0.0,3.3908,3.382,3.3807,3.3807,3.3807,3.3807,3.3807,3.3807,3.3807,3.3807,3.3807,3.3807,3.3807,3.3807,3.3766,3.3753,3.3753,3.3712,0.0,3.3753,3.3753,3.378,3.3807,3.3807,3.378,3.3753,3.3753,3.3739,3.3698,3.3698,3.3726,3.3739,3.3629,3.3591,3.3549,3.3488,3.3444,3.3415,3.3415,3.3473,3.3563,3.3605,3.3671,3.3739,3.3712,3.3726,3.3739,3.3712,3.3726,3.378,3.3829,3.3842,3.3868,3.3947,3.3959,3.3959,3.3959,3.3959,3.3959,3.3947,3.3921,3.3895,3.3855,3.3908,3.3972,3.3998,3.3998,3.4011,3.4011,3.3947,3.3895,3.3855,3.3829,3.3807,3.3766,3.3766,3.3707,3.362,3.362,3.3578,3.3526,3.3526,3.3498,4.0712,4.0595,4.0496,4.0496,4.0496,4.0496,4.0496,4.0496,4.0496,4.0496,4.0496,4.05,4.0491,4.0458,4.037,4.0215,4.0118,3.9975,3.9762,3.9599,3.9227,3.8484,3.7623,0.0,3.5913,3.5069,0.0,0.0,0.0,0.0,3.382,3.3807,3.3807,3.3807,3.3807,3.3807,3.3807,3.3807,3.3807,3.3807,3.3807,3.3807,3.3807,3.3807,3.3807,3.3807,3.3807,0.0,0.0,3.3807,3.3807,3.3807,3.3807,3.3807,3.3807,3.3807,3.3807,3.3807,3.3807,3.3807,3.3807,3.3807,3.3766,3.3726,3.3726,3.3684,3.3629,3.3629,3.3671,3.3726,3.3726,3.3766,3.3807,3.3807,3.3807,3.3807,3.3807,3.3807,3.3815,3.3881,3.3908,3.3959,3.4099,3.4136,3.4148,3.4161,3.4161,3.4136,3.4111,3.4136,3.4161,3.4148,3.4111,3.4111,3.4161,3.4209,3.4245,3.4257,3.4281,3.4269,3.4245,3.4245,3.4221,3.4173,3.4161,3.4136,3.4086,3.4086,3.4061,3.4011,3.4011,3.3985,4.0712,4.0595,4.0496,4.0496,4.0496,4.0496,4.0496,4.0496,4.0496,4.0496,4.0496,4.05,4.0491,4.0482,4.0432,4.0224,4.0196,4.0108,3.9914,3.9796,3.9675,3.9401,3.8752,0.0,3.697,3.6182,0.0,0.0,0.0,0.0,3.382,3.3807,3.3807,3.3807,3.3807,3.3807,3.3807,3.3807,3.3807,3.3807,3.3807,3.3807,3.3807,3.3807,3.3807,3.3807,3.3807,0.0,0.0,3.3807,3.3807,3.3807,3.3807,3.3807,3.3807,3.3807,3.3807,3.3807,3.3807,3.3807,3.3807,3.3807,3.3807,3.3793,3.3793,3.3793,3.378,3.378,3.3793,3.3793,3.3793,3.3807,3.3807,3.3807,3.3807,3.3807,3.3807,3.3807,3.3815,3.3881,3.3947,3.4036,3.4173,3.4245,3.4305,3.4351,3.4316,3.4316,3.445,3.4416,3.445,3.4623,3.4473,3.4381,3.4363,3.4539,3.4602,3.4484,3.4528,3.4506,3.4393,3.4374,3.4374,3.4363,3.4363,3.4363,3.4351,3.4351,3.4351,3.4351,3.4351,3.434,4.0726,4.0593,4.0496,4.0496,4.0496,4.0496,4.0496,4.0496,4.0496,4.0496,4.0496,4.0508,4.0492,4.0503,4.046,4.0396,4.0389,4.0317,4.0158,4.008,3.9991,3.9886,3.9157,0.0,0.0,0.0,0.0,0.0,0.0,0.0,3.3985,3.3855,3.3807,3.3807,3.3807,3.3807,3.3807,3.3807,3.3807,3.3807,3.3807,3.3807,3.3807,3.3807,3.3807,3.3807,3.3807,0.0,0.0,3.3807,3.3807,3.3807,3.3807,3.3807,3.3807,3.3807,3.3807,3.3807,3.3807,3.3807,3.3807,3.3807,3.3807,3.3807,3.3807,3.3807,3.3807,3.3807,3.3807,3.3807,3.3807,3.3807,3.3807,3.3807,3.3807,3.3807,3.3807,3.3829,3.3895,3.3998,3.4136,3.4305,3.4461,3.4588,3.468,3.4701,3.468,3.4641,3.462,3.463,3.4691,3.4811,3.4668,3.4604,3.4649,3.4742,3.4811,3.4801,3.4831,3.4822,3.4764,3.4754,3.4754,3.4754,3.4754,3.4754,3.4754,3.4754,3.4754,3.4754,3.4754,3.4754,4.0726,4.0605,4.0496,4.0496,4.0496,4.0496,4.0496,4.0496,4.0496,4.0496,4.0496,4.0496,4.0496,4.0496,4.05,4.0491,4.0502,4.0458,4.0353,4.0279,4.0223,4.0167,0.0,3.9166,0.0,3.729,0.0,0.0,0.0,0.0,0.0,3.4023,3.3881,3.3815,3.382,3.3807,3.3807,3.3807,3.3807,3.3807,3.3807,3.3807,3.3807,3.3807,3.3807,3.3807,0.0,0.0,0.0,3.3807,3.3807,3.3807,3.3807,3.3807,3.3807,3.3807,3.3807,3.3807,3.3807,3.3807,3.3807,3.3807,3.3807,3.3807,3.3807,3.3807,3.3807,3.3807,3.3807,3.3807,3.3807,3.3807,3.3807,3.3807,3.3807,3.3807,3.3807,3.3842,3.3947,3.4099,3.4293,3.4498,3.4723,3.487,3.4964,3.4992,3.4963,3.4936,3.486,3.487,3.4926,3.501,3.4927,3.4879,3.4898,3.4963,3.5028,3.5065,3.5089,3.5088,3.5051,3.5051,3.5051,3.5051,3.5051,3.5051,3.5051,3.5051,3.5051,3.5051,3.5051,3.5051,4.072,4.0605,4.0496,4.0496,4.0496,4.0496,4.0496,4.0496,4.0496,4.0496,4.0496,4.0496,4.0496,4.0496,4.05,4.0491,4.0502,4.0485,4.0415,4.0407,4.037,0.0,0.0,4.0045,3.9167,0.0,0.0,0.0,0.0,0.0,0.0,3.4305,3.4099,3.3908,3.3829,3.3807,3.3807,3.3807,3.3807,3.3807,3.3807,3.3807,3.3807,3.3807,3.3807,0.0,0.0,0.0,0.0,3.3807,3.3807,3.3807,3.3807,3.3807,3.3807,3.3807,3.3807,3.3807,3.3807,3.3807,3.3807,3.3807,3.3807,3.3807,3.3807,3.3807,3.3807,3.3807,3.3807,3.3807,3.3807,3.3807,3.3807,3.3807,3.3807,3.3807,3.3807,3.3842,3.3959,3.4161,3.4351,3.4575,3.4841,3.5011,3.5119,3.5193,3.5149,3.5113,3.5193,3.5141,3.5149,3.5277,3.5285,3.5234,3.5105,3.5218,3.5269,3.5209,3.5261,3.5269,3.5209,3.5201,3.5201,3.5201,3.5201,3.5201,3.5201,3.5201,3.5201,3.5201,3.5201,3.5201,4.0653,4.0561,4.0496,4.0496,4.0496,4.0496,4.0496,4.0496,4.0496,4.0496,4.0496,4.0496,4.0496,4.0496,4.07,4.13,4.1388,4.138,4.1371,4.1363,0.0,4.051,4.046,4.0126,0.0,0.0,0.0,0.0,0.0,0.0,0.0,3.4575,3.434,3.4049,3.3921,3.3868,3.3868,3.3815,3.3807,3.3807,3.3807,3.3807,3.3807,3.3807,0.0,0.0,0.0,0.0,0.0,3.3807,3.3807,3.3807,3.3807,3.3807,3.3807,3.3807,3.3807,3.3807,3.3807,3.3807,3.3807,3.3807,3.3807,3.3807,3.3807,3.3829,3.3868,3.3921,3.3895,3.3868,3.3868,3.3829,3.3807,3.3807,3.3807,3.3802,3.3855,3.3959,3.4111,3.4351,3.4607,3.4841,3.5072,3.5218,3.5304,3.5327,3.532,3.5304,3.527,3.5262,3.527,3.5361,3.5369,3.5327,3.5235,3.532,3.5361,3.5335,3.541,3.5424,3.541,3.541,3.541,3.541,3.541,3.541,3.541,3.541,3.541,3.541,3.541,3.541,4.061,4.0539,4.0496,4.0496,4.0496,4.0496,4.0496,4.0496,4.0496,4.0496,4.0496,4.0496,4.0496,4.0766,4.1162,4.1712,4.2085,4.2181,4.1846,0.0,0.0,4.0593,0.0,0.0,0.0,0.0,0.0,0.0,0.0,0.0,0.0,3.485,3.4639,3.4413,3.4142,3.3998,3.3972,3.3881,3.3847,3.3847,3.3802,3.3807,3.3807,3.3807,0.0,0.0,0.0,0.0,0.0,3.3868,3.3868,3.3868,3.3868,3.3868,3.3868,3.386,3.3847,3.3829,3.382,3.3807,3.3788,3.3815,3.3868,3.3921,3.3972,3.3959,3.3947,3.4023,3.4011,3.3972,3.3947,3.3881,3.3847,3.3847,3.3847,3.3855,3.3959,3.4086,3.4257,3.4517,3.4771,3.5001,3.5201,3.5339,3.5412,3.5427,3.5446,3.542,3.5372,3.5372,3.5379,3.5427,3.5446,3.542,3.5372,3.5412,3.5446,3.5446,3.5486,3.55,3.55,3.55,3.55,3.55,3.55,3.55,3.55,3.55,3.55,3.55,3.55,3.55,0.0,4.0558,4.0496,4.0496,4.0496,4.0496,4.0496,4.0496,0.0,4.0496,4.0496,4.0516,4.0573,4.1258,4.1846,4.1962,4.2662,4.2874,4.2,4.1788,0.0,0.0,4.0496,0.0,0.0,0.0,0.0,0.0,0.0,0.0,0.0,3.51,3.4982,3.4908,3.4491,3.4221,3.4136,3.3985,3.3921,3.3908,3.3829,3.382,3.382,3.3788,0.0,0.0,0.0,0.0,0.0,3.4023,3.4023,3.4036,3.4036,3.4023,3.4011,3.3947,3.3908,3.3895,3.3847,3.3802,3.3834,3.3895,3.4011,3.4136,3.4281,3.4185,3.4049,3.4124,3.4136,3.4111,3.4049,3.3972,3.3921,3.3921,3.3921,3.3972,3.4099,3.4233,3.4416,3.4676,3.4888,3.5073,3.5269,3.5361,3.542,3.5493,3.55,3.55,3.55,3.55,3.55,3.55,3.55,3.55,3.55,3.55,3.55,3.55,3.55,3.55,3.55,3.55,3.55,3.55,3.55,3.55,3.55,3.55,3.55,3.55,3.55,3.55,4.0531,0.0,4.0496,4.0496,4.0496,4.0496,0.0,4.0496,4.0496,4.0496,4.0496,4.0708,4.1373,4.1662,4.222,4.3508,4.3874,4.372,4.2912,0.0,0.0,4.0516,4.0496,0.0,0.0,0.0,0.0,0.0,0.0,0.0,0.0,3.5258,3.5193,3.5124,3.4917,3.468,3.4416,3.4221,3.4099,3.4049,3.3934,3.3868,3.3868,3.3815,0.0,0.0,0.0,0.0,3.4161,3.4209,3.4257,3.4305,3.4305,3.4269,3.4221,3.4161,3.4099,3.4049,3.3972,3.3947,3.3972,3.4086,3.4185,3.4281,3.4473,3.4409,3.4328,3.445,3.4416,3.4328,3.4305,3.4221,3.4136,3.4136,3.4173,3.4245,3.4393,3.4506,3.4668,3.4879,3.5044,3.5201,3.5354,3.5439,3.5474,3.55,3.55,3.55,3.55,3.55,3.55,3.55,3.55,3.55,3.55,3.55,3.55,3.55,3.55,3.55,3.55,3.55,3.55,3.55,3.55,3.55,3.55,3.55,3.55,3.55,3.55,3.55,4.0496,4.0496,4.0496,4.0496,4.0496,4.0496,4.0496,4.0496,4.0496,4.0496,4.0496,4.0766,4.1643,4.2143,4.2816,4.4085,4.4643,0.0,0.0,0.0,4.0496,4.0496,4.0496,0.0,0.0,0.0,0.0,0.0,0.0,0.0,0.0,3.5376,3.5331,3.5289,3.5185,3.4982,3.4699,3.4476,3.434,3.4281,3.4148,3.4049,3.3985,3.3947,3.3972,0.0,0.0,0.0,3.4386,3.4446,3.4502,3.4534,3.4534,3.4513,3.448,3.4409,3.434,3.4269,3.4173,3.4173,3.4245,3.434,3.4476,3.4607,3.474,3.4752,3.4713,3.4691,3.4639,3.4586,3.455,3.4461,3.4374,3.4374,3.4416,3.4476,3.4639,3.4761,3.4879,3.5062,3.5182,3.527,3.5372,3.5453,3.55,3.55,3.55,3.55,3.55,3.55,3.55,3.55,3.55,3.55,3.55,3.55,3.55,3.55,3.55,3.55,3.55,3.55,3.55,3.55,3.55,3.55,3.55,3.55,3.55,3.55,3.55,3.55,4.0496,4.0496,4.0496,4.0496,4.0496,4.0496,4.0496,4.0496,4.0496,4.0496,4.0612,4.095,4.1835,4.2701,4.3547,4.4374,0.0,0.0,4.3124,4.1508,4.0496,4.0496,0.0,0.0,0.0,0.0,0.0,0.0,0.0,0.0,0.0,3.5453,3.5412,3.5412,3.5346,3.5201,3.4992,3.4771,3.4626,3.4561,3.4409,3.4281,3.4173,3.4161,3.4185,0.0,0.0,0.0,3.4647,3.4742,3.4773,3.4783,3.4783,3.4764,3.4744,3.4689,3.4615,3.455,3.4409,3.4443,3.4572,3.4636,3.4791,3.4936,3.5029,3.5081,3.5088,3.4917,3.486,3.4841,3.4771,3.471,3.4668,3.4668,3.4668,3.473,3.4917,3.4992,3.5082,3.5209,3.527,3.535,3.5405,3.546,3.55,3.55,3.55,3.55,3.55,3.55,3.55,3.55,3.55,3.55,3.55,3.55,3.55,3.55,3.55,3.55,3.55,3.55,3.55,3.55,3.55,3.55,3.55,3.55,3.55,3.55,3.55,3.55,4.0496,4.0496,4.0496,4.0496,4.0496,4.0496,4.0496,4.0496,4.0496,4.0496,4.1085,4.1873,4.2739,4.3566,4.4393,4.5267,0.0,4.3143,0.0,0.0,4.0496,0.0,0.0,0.0,0.0,0.0,0.0,0.0,0.0,0.0,0.0,3.5493,3.5474,3.5474,3.5412,3.5357,3.5327,3.5063,3.4898,3.485,3.4647,3.4539,3.4517,3.4416,3.4386,0.0,0.0,3.472,3.4851,3.4992,3.5073,3.5124,3.5124,3.5079,3.5035,3.4964,3.4898,3.4812,3.4693,3.4723,3.486,3.4927,3.5001,3.5088,3.5229,3.5261,3.525,3.5219,3.5147,3.5053,3.5044,3.4981,3.4944,3.4944,3.4981,3.5044,3.5132,3.5201,3.5277,3.5342,3.5391,3.5412,3.5467,3.5493,3.55,3.55,3.55,3.55,3.55,3.55,3.55,3.55,3.55,3.55,3.55,3.55,3.55,3.55,3.55,3.55,3.55,3.55,3.55,3.55,3.55,3.55,3.55,3.55,3.55,3.55,3.55,3.55,4.0496,4.0496,4.0496,4.0496,4.0496,4.0496,4.0496,4.0496,4.0496,4.0496,4.1181,4.2066,4.2931,4.3758,4.4432,4.4836,0.0,4.2797,4.1923,0.0,0.0,0.0,0.0,0.0,0.0,0.0,0.0,0.0,0.0,0.0,0.0,0.0,3.55,3.55,3.5467,3.5453,3.5453,3.5308,3.5157,3.5063,3.4926,3.4831,3.4761,3.4691,3.467,3.467,0.0,3.4917,3.5018,3.5149,3.5242,3.5254,3.5254,3.5239,3.5195,3.5132,3.5063,3.5,3.4935,3.4991,3.5072,3.5134,3.5209,3.5262,3.5339,3.5388,3.541,3.5405,3.53,3.5203,3.5218,3.5193,3.5157,3.5157,3.5193,3.5226,3.5289,3.532,3.5369,3.5446,3.5453,3.546,3.55,3.55,3.55,3.55,3.55,3.55,3.55,3.55,3.55,3.55,3.55,3.55,3.55,3.55,3.55,3.55,3.55,3.55,3.55,3.55,3.55,3.55,3.55,3.55,3.55,3.55,3.55,3.55,3.55,3.55,4.0496,4.0496,4.0496,4.0496,4.0496,4.0496,4.0496,4.0496,4.0496,4.0496,4.1354,4.2316,4.2989,4.3758,0.0,4.4047,4.3335,4.2489,0.0,0.0,0.0,0.0,0.0,0.0,0.0,0.0,0.0,0.0,0.0,0.0,0.0,0.0,3.55,3.55,3.55,3.55,3.55,3.5453,3.535,3.525,3.5174,3.5098,3.4992,3.4982,3.4936,3.4908,3.5008,3.5105,3.5155,3.5258,3.533,3.5357,3.5357,3.533,3.5315,3.5273,3.5207,3.5147,3.5147,3.5198,3.5258,3.5308,3.5361,3.542,3.542,3.546,3.55,3.55,3.542,3.535,3.5358,3.535,3.535,3.535,3.535,3.5365,3.5405,3.542,3.5446,3.5493,3.55,3.55,3.55,3.55,3.55,3.55,3.55,3.55,3.55,3.55,3.55,3.55,3.55,3.55,3.55,3.55,3.55,3.55,3.55,3.55,3.55,3.55,3.55,3.55,3.55,3.55,3.55,3.55,3.55,3.55,3.55,3.55,4.0496,4.0496,4.0496,4.0496,4.0496,4.0496,4.0496,4.0496,4.0496,4.0496,4.1835,4.3028,4.3085,4.3758,4.4066,4.3316,4.247,4.1585,0.0,0.0,0.0,0.0,0.0,0.0,0.0,0.0,0.0,0.0,0.0,0.0,0.0,0.0,0.0,3.55,3.55,3.55,3.55,3.55,3.5453,3.5372,3.5316,3.5277,3.5269,3.5209,3.5185,3.5185,3.5253,3.5281,3.53,3.5364,3.542,3.5493,3.5493,3.5453,3.5379,3.5398,3.535,3.5293,3.5293,3.5323,3.5391,3.5398,3.5446,3.5493,3.5493,3.55,3.55,3.55,3.5493,3.5493,3.5486,3.5486,3.5486,3.5486,3.5486,3.5493,3.5493,3.5493,3.55,3.55,3.55,3.55,3.55,3.55,3.55,3.55,3.55,3.55,3.55,3.55,3.55,3.55,3.55,3.55,3.55,3.55,3.55,3.55,3.55,3.55,3.55,3.55,3.55,3.55,3.55,3.55,3.55,3.55,3.55,3.55,3.55,3.55,4.0496,4.0496,4.0496,4.0496,4.0496,4.0496,4.0496,4.0496,4.0496,4.0496,4.145,4.247,4.3008,4.3355,4.3278,4.2431,4.2019,0.0,0.0,0.0,0.0,0.0,0.0,0.0,0.0,0.0,0.0,0.0,0.0,0.0,0.0,0.0,0.0,3.55,3.55,3.55,3.55,3.55,3.5493,3.546,3.5432,3.5403,3.5361,3.5346,3.5304,3.5262,3.5327,3.535,3.5364,3.5427,3.5486,3.55,3.55,3.5474,3.546,3.546,3.5453,3.542,3.542,3.5446,3.546,3.546,3.5486,3.55,3.55,3.55,3.55,3.55,3.55,3.55,3.55,3.55,3.55,3.55,3.55,3.55,3.55,3.55,3.55,3.55,3.55,3.55,3.55,3.55,3.55,3.55,3.55,3.55,3.55,3.55,3.55,3.55,3.5508,3.5522,3.556,3.5566,3.5566,3.5566,3.5521,3.55,3.55,3.55,3.55,3.55,3.55,3.55,3.55,3.55,3.55,3.55,3.55,3.55,4.0496,4.0496,4.0496,4.0496,4.0496,4.0496,4.0496,4.0496,4.0496,4.0496,4.1181,4.2066,4.2931,4.2874,0.0,0.0,0.0,0.0,0.0,0.0,0.0,0.0,0.0,0.0,0.0,0.0,0.0,0.0,0.0,0.0,0.0,0.0,0.0,0.0,3.55,3.55,3.55,3.55,3.55,3.55,3.55,3.5486,3.5427,3.5427,3.5412,3.5364,3.5412,3.5427,3.5446,3.5486,3.55,3.55,3.55,3.55,3.55,3.55,3.55,3.55,3.55,3.55,3.55,3.55,3.55,3.5558,3.5808,3.5885,3.5942,3.6212,3.6288,3.6288,3.6288,3.5904,3.55,3.55,3.55,3.55,3.55,3.55,3.55,3.55,3.55,3.55,3.55,3.55,3.55,3.55,3.55,3.55,3.55,3.55,3.5507,3.5534,3.5528,3.5558,3.5629,3.5623,3.5637,3.5629,3.5578,3.5515,3.5501,3.5507,3.55,3.55,3.55,3.55,3.55,3.55,3.55,3.55,3.55,3.5507,4.0496,4.0496,4.0496,4.0496,4.0496,4.0496,4.0496,4.0496,4.0496,4.0496,4.1181,4.2047,4.2912,4.2374,0.0,0.0,0.0,0.0,0.0,0.0,0.0,0.0,0.0,0.0,0.0,0.0,0.0,0.0,0.0,0.0,0.0,0.0,0.0,0.0,3.55,3.55,3.55,3.55,3.55,3.55,3.55,3.55,3.55,3.55,3.55,3.55,3.55,3.55,3.55,3.55,3.55,3.55,3.55,3.55,3.55,3.55,3.55,3.55,3.55,3.55,3.55,3.5519,3.5519,3.5654,3.6462,3.6712,3.6885,3.7757,3.8007,3.8007,3.8007,3.6776,3.5519,3.5519,3.5519,3.5519,3.5519,3.5519,3.5519,3.5519,3.5519,3.5519,3.55,3.55,3.55,3.55,3.55,3.55,3.55,3.55,3.5534,3.5591,3.5593,3.5618,3.5707,3.5694,3.5699,3.5693,3.5643,3.5568,3.5496,3.5508,3.55,3.55,3.55,3.55,3.55,3.55,3.55,3.55,3.55,3.5508,4.0496,4.0496,4.0496,4.0496,4.0496,4.0496,4.0496,4.0496,4.0496,4.0496,4.0708,4.095,4.1227,4.1054,0.0,0.0,0.0,0.0,0.0,0.0,0.0,0.0,0.0,0.0,0.0,0.0,0.0,0.0,0.0,0.0,0.0,0.0,0.0,0.0,3.55,3.55,3.55,3.55,3.55,3.55,3.55,3.55,3.55,3.55,3.55,3.55,3.55,3.55,3.55,3.55,3.55,3.55,3.55,3.55,3.55,3.55,3.55,3.55,3.55,3.55,3.5596,3.6154,3.6346,3.65,3.7353,3.7603,3.768,3.793,3.8007,3.8007,3.8007,3.7623,3.7257,3.7257,3.7257,3.7257,3.7257,3.7257,3.7084,3.6462,3.6346,3.6154,3.5596,3.55,3.55,3.55,3.55,3.55,3.55,3.5508,3.5528,3.5593,3.5634,3.5722,3.583,3.5791,3.5795,3.5836,3.5775,3.5689,3.5583,3.5522,3.5509,3.5509,3.5494,3.55,3.55,3.5495,3.5509,3.5509,3.5554,3.5566,4.0496,4.0496,4.0496,4.0496,4.0496,4.0496,4.0496,4.0496,4.0496,4.0496,4.0496,4.0496,4.0496,4.0496,0.0,0.0,0.0,0.0,0.0,0.0,0.0,0.0,0.0,0.0,0.0,0.0,0.0,0.0,0.0,0.0,0.0,0.0,0.0,0.0,3.55,3.55,3.55,3.55,3.55,3.55,3.55,3.55,3.55,3.55,3.55,3.55,3.55,3.55,3.55,3.55,3.55,3.55,3.55,3.55,3.55,3.55,3.55,3.5558,3.5865,3.5981,3.6115,3.6949,3.7219,3.7373,3.8257,3.8527,3.8584,3.8892,3.8988,3.8988,3.8988,3.8988,3.8834,3.8161,3.8007,3.8007,3.8007,3.8007,3.7834,3.7315,3.7219,3.7065,3.6577,3.6481,3.6481,3.6481,3.6481,3.6488,3.6528,3.6537,3.6574,3.6662,3.6735,3.6829,3.6924,3.6893,3.6882,3.693,3.6887,3.6829,3.6716,3.595,3.554,3.5547,3.5515,3.5515,3.5547,3.5534,3.5534,3.5547,3.5614,3.5648,4.0496,4.0496,4.0496,4.0516,4.0504,4.0512,4.0512,4.0512,4.0512,4.0496,4.0496,4.0496,4.0496,4.0496,0.0,0.0,0.0,0.0,0.0,0.0,0.0,0.0,0.0,0.0,0.0,0.0,0.0,0.0,0.0,0.0,0.0,0.0,0.0,3.55,3.55,3.55,3.55,3.55,3.55,0.0,3.55,3.55,3.55,3.55,3.55,3.55,3.55,3.55,3.55,3.55,3.55,3.55,3.55,3.55,3.55,3.55,3.5558,3.5712,3.6442,3.675,3.6962,3.7834,3.8123,3.8277,3.915,3.9419,3.9554,4.0285,4.0496,4.0496,4.0496,4.0496,4.0131,3.8584,3.8238,3.8238,3.8238,3.8238,3.82,3.8123,3.8123,3.8084,3.8007,3.8007,3.8007,3.8007,3.8007,3.8022,3.8091,3.8119,3.8166,3.8287,3.8377,3.8444,3.8508,3.8507,3.8513,3.8507,3.851,3.8473,3.8416,3.6768,3.5858,3.585,3.5784,3.5766,3.5829,3.5758,3.5718,3.5728,3.5716,3.5718,4.0496,4.0496,4.0504,4.0565,4.0624,4.0666,4.0666,4.0666,4.0619,4.0512,4.0496,4.0496,4.0496,4.0496,0.0,0.0,0.0,0.0,0.0,0.0,0.0,0.0,0.0,0.0,0.0,0.0,0.0,0.0,0.0,0.0,0.0,0.0,0.0,3.55,3.55,3.55,3.55,3.55,3.55,0.0,3.55,3.55,3.55,3.55,3.55,3.55,3.55,3.55,3.55,3.55,3.55,3.55,3.55,3.55,3.55,3.55,3.5904,3.6462,3.6635,3.7161,3.7853,3.8738,3.9015,3.9169,3.9996,4.0246,4.0285,4.0458,4.0496,4.0496,4.0496,4.0496,4.0419,4.0054,3.9958,3.9958,3.9958,3.9958,3.9785,3.915,3.9015,3.8796,3.8123,3.8007,3.8007,3.8007,3.8007,3.8022,3.8091,3.8144,3.8205,3.8291,3.841,3.8517,3.8573,3.8583,3.8587,3.8589,3.8582,3.8552,3.8484,3.7992,3.7715,3.7709,3.7651,3.7591,3.7566,3.6982,3.6707,3.6679,3.608,3.578,4.0496,4.0531,4.0561,4.0633,4.0688,4.0752,4.0751,4.0751,4.0732,4.0668,4.0591,4.0539,4.0539,0.0,0.0,0.0,0.0,0.0,0.0,0.0,0.0,0.0,0.0,0.0,0.0,0.0,0.0,0.0,0.0,0.0,0.0,3.6308,3.6077,3.6077,3.5692,3.55,3.55,3.55,3.55,3.55,3.55,3.55,3.55,3.55,3.55,3.55,3.55,3.55,3.55,3.55,3.55,3.55,3.55,3.55,3.5558,3.5923,3.6346,3.6808,3.7661,3.8238,3.8757,3.9611,3.9881,3.9958,4.0362,4.0496,4.0496,4.0496,4.0496,4.0496,4.0496,4.0496,4.0496,4.0496,4.0496,4.0496,4.0496,4.0496,4.0381,3.9958,3.9881,3.9727,3.9284,3.92,3.92,3.92,3.92,3.923,3.9287,3.9386,3.9478,3.9531,3.9669,3.9767,3.9794,3.9821,3.9843,3.9843,3.9802,3.9778,3.9756,3.968,3.9229,3.8372,3.8277,3.8233,3.8199,3.7811,3.7638,3.7652,3.7267,3.7094,4.0496,4.0554,4.0626,4.0707,4.0773,4.0832,4.0824,4.0829,4.0824,4.0837,4.0739,4.0624,0.0,0.0,0.0,0.0,0.0,0.0,0.0,0.0,0.0,0.0,0.0,0.0,0.0,0.0,0.0,0.0,0.0,0.0,3.8007,3.7315,3.6923,3.6923,3.6269,3.5865,3.5712,3.5712,3.5635,3.55,3.55,3.55,3.55,3.55,3.55,3.55,3.55,3.55,3.55,3.55,3.55,3.5519,3.5654,3.5712,3.5808,3.6615,3.7019,3.7353,3.8796,3.94,3.9631,4.0285,4.0496,4.0496,4.0496,4.0496,4.0496,4.0496,4.0496,4.0496,4.0496,4.0496,4.0496,4.0496,4.0496,4.0496,4.0496,4.0496,4.0496,4.0496,4.0496,4.0496,4.0496,4.0496,4.0496,4.0496,4.0504,4.0534,4.0614,4.0713,4.0828,4.091,4.102,4.1108,4.1106,4.1151,4.1191,4.1191,4.1152,4.1112,4.1112,4.1117,4.04,3.8893,3.8801,3.8763,3.8748,3.8615,3.8576,3.8611,3.8544,3.8493,4.0496,4.06,4.0694,4.0759,4.0888,4.0968,4.0967,4.097,4.097,0.0,4.0869,0.0,0.0,0.0,0.0,0.0,0.0,0.0,0.0,0.0,0.0,0.0,0.0,0.0,0.0,0.0,0.0,0.0,0.0,0.0,3.8007,3.7892,3.7834,3.7834,3.7719,3.7296,3.6538,3.6538,3.6192,3.55,3.55,3.55,3.55,3.55,3.55,3.55,3.55,3.55,3.55,3.55,3.55,3.5577,3.6269,3.6538,3.6635,3.7507,3.8296,3.8996,3.9227,3.9765,4.0362,4.0477,4.0496,4.0496,4.0496,4.0496,4.0496,4.0496,4.0496,4.0496,4.0496,4.0496,4.0496,4.0496,4.0496,4.0496,4.0496,4.0496,4.0496,4.0496,4.0496,4.0496,4.0496,4.0496,4.0496,4.0496,4.0539,4.061,4.068,4.0742,4.0859,4.0976,4.1054,4.1094,4.1106,4.1151,4.1191,4.1191,4.1191,4.1191,4.1191,4.1131,4.0985,4.0748,4.0672,4.0613,4.0548,3.9859,3.9519,3.9503,3.8818,3.8491,4.0591,4.0688,4.0773,4.0893,4.0953,4.1006,4.1054,4.1061,4.1059,4.1052,4.1013,0.0,0.0,0.0,0.0,0.0,0.0,0.0,0.0,0.0,0.0,0.0,0.0,0.0,0.0,0.0,0.0,0.0,0.0,3.94,3.94,3.8969,3.8719,3.8719,3.8257,3.7815,3.743,3.743,3.7007,3.6173,3.5712,3.55,3.55,3.55,3.55,3.55,3.55,3.55,3.55,3.55,3.5769,3.6212,3.6558,3.7,3.7526,3.8411,3.8977,3.9361,3.9823,4.0208,4.0496,4.0496,4.0496,4.0496,4.0496,4.0496,4.0496,4.0496,4.0496,4.0496,4.0496,4.0496,4.0496,4.0496,4.0496,4.0496,4.0496,4.0496,4.0496,4.0496,4.0496,4.0496,4.0496,4.0496,4.0496,4.0496,4.0565,4.0617,4.0687,4.079,4.0882,4.0983,4.1064,4.1099,4.1107,4.1151,4.1191,4.1191,4.1191,4.1191,4.1191,4.1132,4.1109,4.1101,4.1061,4.101,4.0964,4.064,4.0488,4.0479,4.0112,3.995,4.064,4.0752,4.0832,4.0953,4.1,4.1042,4.109,0.0,4.1095,0.0,0.0,0.0,0.0,0.0,0.0,0.0,0.0,0.0,0.0,0.0,0.0,0.0,0.0,0.0,0.0,0.0,0.0,0.0,0.0,4.0496,4.0496,3.9938,3.9611,3.9611,3.8969,3.8546,3.8334,3.8104,3.7565,3.6692,3.6096,3.5692,3.55,3.55,3.55,3.55,3.55,3.55,3.5519,3.5712,3.6154,3.6731,3.7199,3.7757,3.843,3.9284,3.9611,3.9688,4.0285,4.0496,4.0496,4.0496,4.0496,4.0496,4.0496,4.0496,4.0496,4.0496,4.0496,4.0496,4.0496,4.0496,4.0496,4.0496,4.0496,4.0496,4.0496,4.0496,4.0496,4.0496,4.0496,4.0496,4.0496,4.0496,4.0496,4.0496,4.0561,4.0646,4.0713,4.0833,4.0941,4.1023,4.1074,4.1103,4.1108,4.1152,4.1191,4.1191,4.1191,4.1191,4.1191,4.1152,4.1111,4.1108,4.1097,4.1072,4.1031,4.1089,4.1105,4.1099,4.11,4.1109,4.0593,4.0694,4.0814,4.0898,4.0998,4.1091,4.1104,0.0,4.1091,4.1091,0.0,0.0,0.0,0.0,0.0,0.0,0.0,0.0,0.0,0.0,0.0,0.0,0.0,0.0,0.0,0.0,0.0,0.0,0.0,4.0496,4.0496,4.0458,4.0439,4.0439,4.04,3.9996,3.9246,3.8411,3.7565,3.6692,3.6654,3.6231,3.55,3.55,3.55,3.55,3.55,3.55,3.5558,3.6327,3.6654,3.6865,3.8527,3.9188,3.9342,4.015,4.0439,4.0439,4.0496,4.0496,4.0496,4.0496,4.0496,4.0496,4.0496,4.0496,4.0496,4.0496,4.0496,4.0496,4.0496,4.0496,4.0496,4.0496,4.0496,4.0496,4.0496,4.0496,4.0496,4.0496,4.0496,4.0496,4.0496,4.0496,4.0496,4.0496,4.0605,4.072,4.0782,4.0902,4.1023,4.1086,4.1091,4.1108,4.1091,4.1152,4.1191,4.1191,4.1191,4.1191,4.1191,4.1191,4.1152,4.1092,4.1091,4.1102,4.1092,4.1092,4.1097,4.1109,4.1102,4.1109,4.0626,4.0732,4.0832,4.0949,4.1028,4.1097,4.1103,4.111,4.1112,4.1152,0.0,0.0,0.0,0.0,0.0,0.0,0.0,0.0,0.0,0.0,0.0,0.0,0.0,0.0,0.0,0.0,0.0,0.0,0.0,0.0,4.0496,4.0496,4.0496,4.0496,4.0496,4.0362,4.0073,3.9246,3.8392,3.7526,3.6962,3.6269,3.55,3.55,3.55,3.55,3.55,3.5788,3.6288,3.6577,3.7353,3.843,3.9053,3.9631,4.0112,4.04,4.0496,4.0496,4.0496,4.0496,4.0496,4.0496,4.0496,4.0496,4.0496,4.0496,4.0496,4.0496,4.0496,4.0496,4.0496,4.0496,4.0496,4.0496,4.0496,4.0496,4.0496,4.0496,4.0496,4.0496,4.0496,4.0496,4.0496,4.0496,4.0496,4.0496,4.0612,4.072,4.0788,4.092,4.1039,4.1091,4.1097,4.1091,4.1092,4.1152,4.1191,4.1191,4.1191,4.1191,4.1191,4.1191,4.1191,4.1152,4.1112,4.1108,4.1099,4.1099,4.1101,4.1106,4.1109,4.1112,4.0591,4.0694,4.0784,4.09,4.1,4.1074,4.1093,4.1104,4.111,4.1152,0.0,0.0,0.0,0.0,0.0,0.0,0.0,0.0,0.0,0.0,0.0,0.0,0.0,0.0,0.0,0.0,0.0,0.0,0.0,0.0,4.0496,4.0496,4.0496,4.0496,4.0496,4.0496,4.0496,3.9977,3.9284,3.843,3.7546,3.6692,3.5885,3.5615,3.55,3.5519,3.5788,3.6212,3.6712,3.7019,3.7988,3.9323,3.9611,4.0035,4.0496,4.0496,4.0496,4.0496,4.0496,4.0496,4.0496,4.0496,4.0496,4.0496,4.0496,4.0496,4.0496,4.0496,4.0496,4.0496,4.0496,4.0496,4.0496,4.0496,4.0496,4.0496,4.0496,4.0496,4.0496,4.0496,4.0496,4.0496,4.0496,4.0496,4.0496,4.0496,4.0612,4.072,4.0788,4.092,4.1039,4.1091,4.1094,4.1109,4.1092,4.1132,4.1172,4.1191,4.1191,4.1191,4.1191,4.1191,4.1191,4.1191,4.1152,4.1132,4.113,4.1108,4.1109,4.1092,4.1092,4.1132,0.0,0.0,0.0,4.0784,4.0894,4.1,4.1083,0.0,4.1101,4.111,0.0,0.0,0.0,0.0,0.0,0.0,0.0,0.0,0.0,0.0,0.0,0.0,0.0,0.0,0.0,0.0,0.0,0.0,0.0,4.0496,4.0496,4.0496,4.0496,4.0496,4.0496,4.0496,4.0496,4.0496,4.0092,3.9284,3.843,3.7565,3.6673,3.5885,3.5538,3.5577,3.6365,3.6731,3.6846,3.77,3.8546,3.9419,4.0208,4.0496,4.0496,4.0496,4.0496,4.0496,4.0496,4.0496,4.0496,4.0496,4.0496,4.0496,4.0496,4.0496,4.0496,4.0496,4.0496,4.0496,4.0496,4.0496,4.0496,4.0496,4.0496,4.0496,4.0496,4.0496,4.0496,4.0496,4.0496,4.0496,4.0496,4.0496,4.0496,4.0496,4.0612,4.072,4.0788,4.0906,4.1026,4.1089,4.1103,4.1102,4.1091,4.1091,4.1132,4.1191,4.1191,4.1191,4.1191,4.1191,4.1191,4.1191,4.1191,4.1191,4.1191,4.113,4.1109,4.1092,4.1092,4.1132,4.04,0.0,0.0,0.0,0.0,0.0,0.0,0.0,0.0,0.0,0.0,0.0,0.0,0.0,0.0,0.0,0.0,0.0,0.0,0.0,0.0,0.0,0.0,0.0,0.0,0.0,0.0,0.0,4.0496,4.0496,4.0496,4.0496,4.0496,4.0496,4.0496,4.0496,4.0496,4.0496,4.0092,3.9304,3.9053,3.8142,3.6692,3.6462,3.6365,3.6385,3.6596,3.743,3.8604,3.8834,3.9438,4.0189,4.0419,4.0496,4.0496,4.0496,4.0496,4.0496,4.0496,4.0496,4.0496,4.0496,4.0496,4.0496,4.0496,4.0496,4.0496,4.0496,4.0496,4.0496,4.0496,4.0496,4.0496,4.0496,4.0496,4.0496,4.0496,4.0496,4.0496,4.0496,4.0496,4.0496,4.0496,4.0496,4.0496,4.0496,4.0612,4.0713,4.0719,4.084,4.0956,4.1026,4.1076,4.1103,4.1108,4.1094,4.1119,4.112,4.112,4.112,4.112,4.112,4.112,4.112,4.1124,4.1125,4.1125,4.115,4.1171,4.1172,4.1172,4.1172,3.9734,3.9632,3.9492,3.9612,0.0,0.0,4.0395,4.0692,0.0,0.0,0.0,0.0,0.0,0.0,0.0,0.0,0.0,0.0,0.0,0.0,0.0,0.0,0.0,0.0,0.0,0.0,0.0,4.0504,4.0496,4.0496,4.0496,4.0496,4.0496,4.0496,4.0496,4.0496,4.0496,4.0496,4.0265,3.9804,3.9457,3.8757,3.7777,3.7411,3.7238,3.7257,3.7623,3.8354,3.9323,3.9669,4.0073,4.0496,4.0496,4.0496,4.0496,4.0496,4.0496,4.0496,4.0496,4.0496,4.0496,4.0496,4.0496,4.0496,4.0496,4.0496,4.0496,4.0496,4.0496,4.0496,4.0496,4.0496,4.0496,4.0496,4.0496,4.0496,4.0496,4.0496,4.0496,4.0496,4.0496,4.0496,4.0496,4.0496,4.0496,4.0496,4.0583,4.0666,4.0668,4.0757,4.0849,4.0909,4.0986,4.1025,4.1069,4.1059,4.1068,4.1056,4.1056,4.1056,4.1056,4.1056,4.1056,4.1056,4.1062,4.1069,4.1095,4.1149,4.1172,4.1191,4.1191,4.1191,3.8813,3.8371,3.7873,3.7964,0.0,0.0,3.9397,4.0116,4.0761,0.0,0.0,0.0,0.0,0.0,0.0,0.0,0.0,0.0,0.0,0.0,0.0,0.0,0.0,0.0,0.0,4.0629,4.0579,4.0504,4.0496,4.0496,4.0496,4.0496,4.0496,4.0496,4.0496,4.0496,4.0496,4.0496,4.0496,4.0496,3.9785,3.94,3.9265,3.8507,3.8142,3.818,3.895,3.9361,3.9496,4.0208,4.0496,4.0496,4.0496,4.0496,4.0496,4.0496,4.0496,4.0496,4.0496,4.0496,4.0496,4.0496,4.0496,4.0496,4.0496,4.0496,4.0496,4.0496,4.0496,4.0496,4.0496,4.0496,4.0496,4.0496,4.0496,4.0535,4.0631,4.065,4.0669,4.0766,4.0631,4.0496,4.0496,4.0496,4.0496,4.0496,4.0565,4.0603,4.06,4.0668,4.0724,4.0779,4.0854,4.0911,4.0963,4.0974,4.0987,4.0975,4.0978,4.0978,4.0978,4.0978,4.0978,4.0978,4.0983,4.102,4.1085,4.1105,4.1132,4.1191,4.1191,4.1191,3.8596,3.8126,0.0,0.0,0.0,0.0,3.837,3.9082,3.9718,0.0,0.0,0.0,0.0,0.0,0.0,0.0,0.0,0.0,0.0,0.0,0.0,0.0,0.0,0.0,0.0,4.0612,4.0561,4.0516,4.0496,4.0496,4.0496,4.0496,4.0496,4.0496,4.0496,4.0496,4.0496,4.0496,4.0496,4.0496,4.0342,3.9938,3.9284,3.913,3.9053,3.9053,3.9227,3.9669,4.0285,4.0439,4.0496,4.0496,4.0496,4.0496,4.0496,4.0496,4.0496,4.0496,4.0496,4.0496,4.0496,4.0496,4.0496,4.0496,4.0496,4.0496,4.0496,4.0496,4.0496,4.0496,4.0496,4.0496,4.0496,4.0496,4.0496,4.0689,4.1393,4.1546,4.1758,4.245,4.1458,4.0496,4.0496,4.0496,4.0496,4.0496,4.0565,4.0607,4.0595,4.0666,4.0713,4.0713,4.0769,4.0815,4.0837,4.0844,4.084,4.083,4.083,4.083,4.083,4.083,4.083,4.083,4.0889,4.0954,4.1011,4.1077,4.111,4.1112,4.1172,4.1191,0.0,0.0,0.0,3.6301,0.0,0.0,0.0,3.7991,3.8798,3.9341,3.9798,4.0234,0.0,0.0,0.0,0.0,0.0,0.0,0.0,0.0,0.0,0.0,0.0,0.0,0.0,4.0603,4.0573,4.0516,4.0496,4.0496,4.0496,4.0496,4.0496,4.0496,4.0496,4.0496,4.0496,4.0496,4.0496,4.0496,4.0496,4.0285,3.99,3.99,3.99,3.99,3.99,4.0131,4.0496,4.0496,4.0496,4.0496,4.0496,4.0496,4.0496,4.0496,4.0496,4.0496,4.0496,4.0496,4.0496,4.0496,4.0496,4.0496,4.0496,4.0496,4.0496,4.0496,4.0496,4.0496,4.0496,4.0496,4.0612,4.1046,4.1143,4.1393,4.2258,4.245,4.2585,4.3028,4.2393,4.1797,4.1797,4.1797,4.1797,4.1797,4.1466,4.1212,4.1212,4.0846,4.0605,4.0646,4.0673,4.0713,4.0745,4.0745,4.0744,4.0742,4.0742,4.0742,4.0742,4.0742,4.0742,4.0742,4.0819,4.0863,4.0898,4.0998,4.1065,4.1106,4.1128,4.115,0.0,0.0,0.0,0.0,0.0,3.5932,0.0,0.0,0.0,3.8645,3.9105,0.0,0.0,0.0,0.0,0.0,0.0,0.0,0.0,0.0,0.0,0.0,0.0,0.0,0.0,4.058,4.0565,4.0496,4.0496,4.0496,4.0496,4.0496,4.0496,4.0496,4.0496,4.0496,4.0496,4.0496,4.0496,4.0496,4.0496,4.0496,4.0496,4.0496,4.0496,4.0496,4.0496,4.0496,4.0496,4.0496,4.0496,4.0496,4.0496,4.0496,4.0496,4.0496,4.0496,4.0496,4.0496,4.0496,4.0496,4.0496,4.0496,4.0496,4.0496,4.0496,4.0496,4.0496,4.0496,4.0496,4.0496,4.0631,4.0931,4.1643,4.1923,4.2297,4.3143,4.3335,4.3374,4.3547,4.3585,4.347,4.3162,4.3104,4.3104,4.3104,4.2508,4.2038,4.2038,4.1431,4.0966,4.0843,4.0823,4.0795,4.066,4.0666,4.0661,4.0655,4.0655,4.0655,4.0655,4.0655,4.0662,4.0688,4.0724,4.0771,4.0784,4.0896,4.0994,4.1088,4.1093,4.1101,0.0,0.0,0.0,0.0,3.465,0.0,0.0,0.0,3.6462,3.6682,0.0,0.0,0.0,0.0,0.0,0.0,0.0,0.0,0.0,0.0,0.0,0.0,0.0,0.0,0.0,0.0,4.0516,4.0496,4.0496,4.0496,4.0496,4.0496,4.0496,4.0496,4.0496,4.0496,4.0496,4.0496,4.0496,4.0496,4.0496,4.0496,4.0496,4.0496,4.0496,4.0496,4.0496,4.0496,4.0496,4.0496,4.0496,4.0496,4.0496,4.0496,4.0496,4.0496,4.0496,4.0496,4.0496,4.0496,4.0496,4.0496,4.0496,4.0496,4.0496,4.0496,4.0496,4.0496,4.0496,4.0496,4.0496,4.1066,4.1681,4.1769,4.2393,4.3162,4.3989,4.4162,4.4393,4.5171,4.5325,4.4844,4.3355,4.3104,4.3104,4.3104,4.3028,4.2951,4.2951,4.2874,4.2508,4.1739,4.1662,4.1343,4.0589,4.0512,4.0519,4.0519,4.0519,4.0519,4.0519,4.0519,4.0554,4.061,4.0614,4.0649,4.0712,4.0792,4.0888,4.1006,4.1064,4.1103,0.0,0.0,0.0,0.0,0.0,0.0,3.4607,0.0,3.5463,0.0,0.0,0.0,0.0,0.0,0.0,0.0,4.0484,0.0,0.0,0.0,0.0,0.0,0.0,0.0,0.0,0.0,0.0,0.0,0.0,4.0496,4.0496,4.0496,4.0496,4.0496,4.0496,4.0496,4.0496,4.0496,4.0496,4.0496,4.0496,4.0496,4.0496,4.0496,4.0496,4.0496,4.0496,4.0496,4.0496,4.0496,4.0496,4.0496,4.0496,4.0496,4.0496,4.0496,4.0496,4.0496,4.0496,4.0496,4.0496,4.0496,4.0496,4.0496,4.0496,4.0496,4.0496,4.0496,4.0496,4.0631,4.1123,4.1527,4.2038,4.3028,4.3528,4.4028,4.4874,4.5056,4.5171,4.5537,4.5594,4.5383,4.4671,4.4547,4.4547,4.4547,4.4124,4.3797,4.3797,4.3393,4.297,4.2585,4.2104,4.1662,4.1296,4.0785,4.0496,4.0496,4.0496,4.0496,4.0496,4.0496,4.0504,4.0539,4.0576,4.0612,4.064,4.0713,4.0769,4.0819,4.0937,4.1006,3.7029,0.0,0.0,0.0,0.0,0.0,0.0,0.0,0.0,0.0,0.0,0.0,0.0,0.0,0.0,4.0196,0.0,4.0413,0.0,0.0,0.0,0.0,0.0,0.0,0.0,0.0,0.0,0.0,0.0,0.0,4.0496,4.0496,4.0496,4.0496,4.0496,4.0496,4.0496,4.0496,4.0496,4.0496,4.0496,4.0496,4.0496,4.0496,4.0496,4.0496,4.0496,4.0496,4.0496,4.0496,4.0496,4.0496,4.0496,4.0496,4.0496,4.0496,4.0496,4.0496,4.0496,4.0496,4.0496,4.0496,4.0496,4.0496,4.0496,4.0496,4.0496,4.0496,4.0669,4.0989,4.1643,4.2135,4.2797,4.4008,4.447,4.4816,4.546,4.5594,4.5594,4.5594,4.5594,4.5594,4.5594,4.5594,4.5594,4.5594,4.5056,4.4662,4.4662,4.4143,4.3682,4.3451,4.2854,4.2297,4.1846,4.1219,4.0746,4.0516,4.0496,4.0496,4.0496,4.0496,4.0496,4.0496,4.0539,4.0573,4.0573,4.0631,4.064,4.0673,4.0804,4.0898,0.0,0.0,0.0,3.5903,0.0,0.0,0.0,0.0,3.4212,0.0,0.0,0.0,0.0,0.0,3.9935,3.9996,4.0129,0.0,0.0,0.0,0.0,0.0,0.0,0.0,0.0,0.0,0.0,0.0,0.0,0.0,4.0496,4.0496,4.0496,4.0496,4.0496,4.0496,4.0496,4.0496,4.0496,4.0496,4.0496,4.0496,4.0496,4.0496,4.0496,4.0496,4.0496,4.0496,4.0496,4.0496,4.0496,4.0496,4.0496,4.0496,4.0496,4.0496,4.0496,4.0496,4.0496,4.0496,4.0496,4.0496,4.0496,4.0496,4.0496,4.0496,4.0496,4.0496,4.1104,4.175,4.1788,4.3008,4.422,4.4297,4.4932,4.5575,4.5594,4.5594,4.5594,4.5594,4.5594,4.5594,4.5594,4.5594,4.5594,4.5594,4.5575,4.5556,4.5556,4.5537,4.521,4.4355,4.4239,4.3566,4.1942,4.1769,4.1393,4.0554,4.0496,4.0496,4.0496,4.0496,4.0496,4.0496,4.0496,4.0496,4.0496,4.0516,4.0539,4.0615,4.0738,4.0809,0.0,0.0,3.6239,3.6163,0.0,0.0,0.0,0.0,0.0,0.0,0.0,0.0,0.0,0.0,3.9508,3.9587,3.9829,4.001,0.0,0.0,0.0,0.0,0.0,0.0,0.0,0.0,0.0,0.0,0.0,0.0,0.0,4.0496,4.0496,4.0496,4.0496,4.0496,4.0496,4.0496,4.0496,4.0496,4.0496,4.0496,4.0496,4.0496,4.0496,4.0496,4.0496,4.0496,4.0496,4.0496,4.0496,4.0496,4.0496,4.0496,4.0496,4.0496,4.0496,4.0496,4.0496,4.0496,4.0496,4.0496,4.0496,4.0496,4.0496,4.0496,4.0496,4.0496,4.1123,4.1923,4.2508,4.3489,4.4451,4.5017,4.5383,4.5594,4.5594,4.5594,4.5594,4.5594,4.5594,4.5594,4.5594,4.5594,4.5594,4.5594,4.5594,4.5594,4.5594,4.5594,4.5498,4.519,4.4643,4.4066,4.3508,4.245,4.1431,4.0554,4.0496,4.0496,4.0496,4.0496,4.0496,4.0496,4.0496,4.0496,4.0496,4.0496,4.0504,4.0539,4.0626,4.0688,3.6871,3.6582,0.0,3.637,3.5789,0.0,3.5526,0.0,0.0,0.0,0.0,0.0,0.0,0.0,3.911,3.9232,3.9502,3.9751,0.0,4.0109,0.0,0.0,0.0,0.0,0.0,0.0,0.0,4.0496,4.0496,0.0,0.0,0.0,4.0496,4.0496,4.0496,4.0496,4.0496,4.0496,4.0496,4.0496,4.0496,4.0496,4.0496,4.0496,4.0496,4.0496,4.0496,4.0496,4.0496,4.0496,4.0496,4.0496,4.0496,4.0496,4.0496,4.0496,4.0496,4.0496,4.0496,4.0496,4.0496,4.0496,4.0496,4.0496,4.0496,4.0496,4.0554,4.0873,4.1585,4.247,4.3316,4.4143,4.4893,4.5479,4.5594,4.5594,4.5594,4.5594,4.5594,4.5594,4.5594,4.5594,4.5594,4.5594,4.5594,4.5594,4.5594,4.5594,4.5594,4.5594,4.5594,4.5594,4.5094,4.4509,4.3912,4.2604,4.1431,4.0554,4.0496,4.0496,4.0496,4.0496,4.0496,4.0496,4.0496,4.0496,4.0496,4.0496,4.0496,4.0496,4.0539,4.0591]}]]